[[{"header":{"parameterUnit":"m.s-1","parameterCategory":1,"la1":31.0,"la2":29.5877,"lo1":-88.7671,"lo2":-86.6584,"dy":0.0162,"dx":0.0185,"nx":115,"ny":88,"refTime":"2023-11-09T06:00:00:Z","depth":0,"parameterNumber":2,"parameterNumberName":"U-component_of_WINDS"},"data":[0.0,0.0,0.0,0.0,0.0,0.0,0.0,0.0,0.0,0.0,0.0,0.0,0.0,0.0,0.0,0.0,0.0,0.0,0.0,0.0,0.0,0.0,0.0,0.0,0.0,0.0,0.0,0.0,0.0,0.0,0.0,0.0,0.0,0.0,0.0,0.0,0.0,0.0,0.0,0.0,0.0,0.0,0.0,0.0,0.0,0.0,0.0,0.0,0.0,0.0,0.0,0.0,0.0,0.0,0.0,0.0,0.0,0.0,0.0,0.0,0.0,0.0,0.0,0.0,0.0,0.0,0.0,0.0,0.0,0.0,0.0,0.0,0.0,0.0,0.0,0.0,0.0,0.0,0.0,0.0,0.0,0.0,0.0,0.0,0.0,0.0,0.0,0.0,0.0,0.0,0.0,0.0,0.0,0.0,0.0,0.0,0.0,0.0,0.0,0.0,0.0,0.0,0.0,0.0,0.0,0.0,0.0,0.0,0.0,0.0,0.0,0.0,0.0,0.0,0.0,0.0,0.0,0.0,0.0,0.0,0.0,0.0,0.0,0.0,0.0,0.0,0.0,0.0,0.0,0.0,0.0,0.0,0.0,0.0,0.0,0.0,0.0,0.0,0.0,0.0,0.0,0.0,0.0,0.0,0.0,0.0,0.0,0.0,0.0,0.0,0.0,0.0,0.0,0.0,0.0,0.0,0.0,0.0,0.0,0.0,0.0,0.0,0.0,0.0,0.0,0.0,0.0,0.0,0.0,0.0,0.0,0.0,0.0,0.0,0.0,0.0,0.0,0.0,0.0,0.0,0.0,0.0,0.0,0.0,0.0,0.0,0.0,0.0,0.0,0.0,0.0,0.0,0.0,0.0,0.0,0.0,0.0,0.0,0.0,0.0,0.0,0.0,0.0,0.0,0.0,0.0,0.0,0.0,0.0,0.0,0.0,0.0,0.0,0.0,0.0,0.0,0.0,0.0,0.0,0.0,0.0,0.0,0.0,0.0,0.0,0.0,0.0,0.0,0.0,0.0,0.0,0.0,0.0,0.0,0.0,0.0,0.0,0.0,0.0,0.0,0.0,0.0,0.0,0.0,0.0,0.0,0.0,0.0,0.0,0.0,0.0,0.0,0.0,0.0,0.0,0.0,0.0,0.0,0.0,0.0,0.0,0.0,0.0,0.0,0.0,0.0,0.0,0.0,0.0,0.0,0.0,0.0,0.0,0.0,0.0,0.0,0.0,0.0,0.0,0.0,0.0,0.0,0.0,0.0,0.0,0.0,0.0,0.0,0.0,0.0,0.0,0.0,0.0,0.0,0.0,0.0,0.0,0.0,0.0,0.0,0.0,0.0,0.0,0.0,0.0,0.0,0.0,0.0,0.0,0.0,0.0,0.0,0.0,0.0,0.0,0.0,0.0,0.0,0.0,0.0,0.0,0.0,0.0,0.0,0.0,0.0,0.0,0.0,0.0,0.0,0.0,0.0,0.0,0.0,0.0,0.0,0.0,0.0,0.0,0.0,0.0,0.0,0.0,0.0,0.0,0.0,0.0,0.0,0.0,0.0,0.0,0.0,0.0,0.0,0.0,0.0,0.0,0.0,0.0,0.0,0.0,0.0,0.0,0.0,0.0,0.0,0.0,0.0,0.0,0.0,0.0,0.0,0.0,0.0,0.0,0.0,0.0,0.0,0.0,0.0,0.0,0.0,0.0,0.0,0.0,0.0,0.0,0.0,0.0,0.0,0.0,0.0,0.0,0.0,0.0,0.0,0.0,0.0,0.0,0.0,0.0,0.0,0.0,0.0,0.0,0.0,0.0,0.0,0.0,0.0,0.0,0.0,0.0,0.0,0.0,0.0,0.0,0.0,0.0,0.0,0.0,0.0,0.0,0.0,0.0,0.0,0.0,0.0,0.0,0.0,0.0,0.0,0.0,0.0,0.0,0.0,0.0,0.0,0.0,0.0,0.0,0.0,0.0,0.0,0.0,0.0,0.0,0.0,0.0,0.0,0.0,0.0,0.0,0.0,0.0,0.0,0.0,0.0,0.0,0.0,0.0,0.0,0.0,0.0,0.0,0.0,0.0,0.0,0.0,0.0,0.0,0.0,0.0,0.0,0.0,0.0,0.0,0.0,0.0,0.0,0.0,0.0,0.0,0.0,0.0,0.0,0.0,0.0,0.0,0.0,0.0,0.0,0.0,0.0,0.0,0.0,0.0,0.0,0.0,0.0,0.0,0.0,0.0,0.0,0.0,0.0,0.0,0.0,0.0,0.0,0.0,0.0,0.0,0.0,0.0,0.0,0.0,0.0,0.0,0.0,0.0,0.0,0.0,0.0,0.0,0.0,0.0,0.0,0.0,0.0,0.0,0.0,0.0,0.0,0.0,0.0,0.0,0.0,0.0,0.0,0.0,0.0,0.0,0.0,0.0,0.0,0.0,0.0,0.0,0.0,0.0,0.0,0.0,0.0,0.0,0.0,0.0,0.0,0.0,0.0,0.0,0.0,0.0,0.0,0.0,0.0,0.0,0.0,0.0,0.0,0.0,0.0,0.0,0.0,0.0,0.0,0.0,0.0,0.0,0.0,0.0,0.0,0.0,0.0,0.0,0.0,0.0,0.0,0.0,0.0,0.0,0.0,0.0,0.0,0.0,0.0,0.0,0.0,0.0,0.0,0.0,0.0,0.0,0.0,0.0,0.0,0.0,0.0,0.0,0.0,0.0,0.0,0.0,0.0,0.0,0.0,0.0,0.0,0.0,0.0,0.0,0.0,0.0,0.0,0.0,0.0,0.0,0.0,0.0,0.0,0.0,0.0,0.0,0.0,0.0,0.0,0.0,0.0,0.0,0.0,0.0,0.0,0.0,0.0,0.0,0.0,0.0,0.0,0.0,0.0,0.0,0.0,0.0,0.0,0.0,0.0,0.0,0.0,0.0,0.0,0.0,0.0,0.0,0.0,0.0,0.0,0.0,0.0,0.0,0.0,0.0,0.0,0.0,0.0,0.0,0.0,0.0,0.0,0.0,0.0,0.0,0.0,0.0,0.0,0.0,0.0,0.0,0.0,0.0,0.0,0.0,0.0,0.0,0.0,0.0,0.0,0.0,0.0,0.0,0.0,0.0,0.0,0.0,0.0,0.0,0.0,0.0,0.0,0.0,0.0,0.0,0.0,0.0,0.0,0.0,0.0,0.0,0.0,0.0,0.0,0.0,0.0,0.0,0.0,0.0,0.0,0.0,0.0,0.0,0.0,0.0,0.0,0.0,0.0,0.0,0.0,0.0,0.0,0.0,0.0,0.0,0.0,0.0,0.0,0.0,0.0,0.0,0.0,0.0,0.0,0.0,0.0,0.0,0.0,0.0,0.0,0.0,0.0,0.0,0.0,0.0,0.0,0.0,0.0,0.0,0.0,0.0,0.0,0.0,0.0,0.0,0.0,0.0,0.0,0.0,0.0,0.0,0.0,0.0,0.0,0.0,0.0,0.0,0.0,0.0,0.0,0.0,0.0,0.0,0.0,0.0,0.0,0.0,0.0,0.0,0.0,0.0,0.0,0.0,0.0,0.0,0.0,0.0,0.0,0.0,0.0,0.0,0.0,0.0,0.0,0.0,0.0,0.0,0.0,0.0,0.0,0.0,0.0,0.0,0.0,0.0,0.0,0.0,0.0,0.0,0.0,0.0,0.0,0.0,0.0,0.0,0.0,0.0,0.0,0.0,0.0,0.0,0.0,0.0,0.0,0.0,0.0,0.0,0.0,0.0,0.0,0.0,0.0,0.0,0.0,0.0,0.0,0.0,0.0,0.0,0.0,0.0,0.0,0.0,0.0,0.0,0.0,0.0,0.0,0.0,0.0,0.0,0.0,0.0,0.0,0.0,0.0,0.0,0.0,0.0,0.0,0.0,0.0,0.0,0.0,0.0,0.0,0.0,0.0,0.0,0.0,0.0,0.0,0.0,0.0,0.0,0.0,0.0,0.0,0.0,0.0,0.0,0.0,0.0,0.0,0.0,0.0,0.0,0.0,0.0,0.0,0.0,0.0,0.0,0.0,0.0,0.0,0.0,0.0,0.0,0.0,0.0,0.0,0.0,0.0,0.0,0.0,0.0,0.0,0.0,0.0,0.0,0.0,0.0,0.0,0.0,0.0,0.0,0.0,0.0,0.0,0.0,0.0,0.0,0.0,0.0,0.0,0.0,0.0,0.0,0.0,0.0,0.0,0.0,0.0,0.0,0.0,0.0,0.0,0.0,0.0,0.0,0.0,0.0,0.0,0.0,0.0,0.0,0.0,0.0,0.0,4.4343,0.0,0.0,0.0,0.0,0.0,0.0,0.0,0.0,0.0,0.0,0.0,0.0,0.0,0.0,0.0,0.0,0.0,0.0,0.0,0.0,0.0,0.0,0.0,0.0,0.0,0.0,0.0,0.0,0.0,0.0,0.0,0.0,0.0,0.0,0.0,0.0,0.0,0.0,0.0,0.0,0.0,0.0,0.0,0.0,0.0,0.0,0.0,0.0,0.0,0.0,0.0,0.0,0.0,0.0,0.0,0.0,0.0,0.0,0.0,0.0,0.0,0.0,0.0,0.0,0.0,0.0,0.0,0.0,0.0,0.0,0.0,0.0,0.0,0.0,0.0,0.0,0.0,0.0,0.0,0.0,0.0,0.0,0.0,0.0,0.0,0.0,0.0,0.0,0.0,0.0,0.0,0.0,0.0,0.0,0.0,0.0,0.0,0.0,0.0,0.0,0.0,0.0,0.0,0.0,0.0,0.0,0.0,0.0,0.0,0.0,4.4591,4.4591,4.4591,4.4543,4.4448,0.0,0.0,0.0,0.0,0.0,0.0,0.0,0.0,0.0,0.0,0.0,0.0,0.0,0.0,0.0,0.0,0.0,0.0,0.0,0.0,0.0,0.0,0.0,0.0,0.0,0.0,0.0,0.0,0.0,0.0,0.0,0.0,0.0,0.0,0.0,0.0,0.0,0.0,0.0,0.0,0.0,0.0,0.0,0.0,0.0,0.0,0.0,0.0,0.0,0.0,0.0,0.0,0.0,0.0,0.0,0.0,0.0,0.0,0.0,0.0,0.0,0.0,0.0,0.0,0.0,0.0,0.0,0.0,0.0,0.0,0.0,0.0,0.0,0.0,0.0,0.0,0.0,0.0,0.0,0.0,0.0,0.0,0.0,0.0,0.0,0.0,0.0,0.0,0.0,0.0,0.0,0.0,0.0,0.0,0.0,0.0,0.0,0.0,0.0,0.0,0.0,0.0,0.0,0.0,0.0,0.0,0.0,0.0,0.0,0.0,0.0,0.0,4.4591,4.4553,4.4458,0.0,0.0,0.0,0.0,0.0,0.0,0.0,0.0,0.0,0.0,0.0,0.0,0.0,0.0,0.0,0.0,0.0,0.0,0.0,0.0,0.0,0.0,0.0,0.0,0.0,0.0,0.0,0.0,0.0,0.0,0.0,0.0,0.0,0.0,0.0,0.0,0.0,0.0,0.0,0.0,0.0,0.0,0.0,0.0,0.0,0.0,0.0,0.0,0.0,0.0,0.0,0.0,0.0,0.0,0.0,0.0,0.0,0.0,0.0,0.0,0.0,0.0,0.0,0.0,0.0,0.0,0.0,0.0,0.0,0.0,0.0,0.0,0.0,0.0,0.0,0.0,0.0,0.0,0.0,0.0,0.0,0.0,0.0,0.0,0.0,0.0,0.0,0.0,0.0,0.0,0.0,0.0,0.0,0.0,0.0,0.0,0.0,0.0,0.0,0.0,0.0,0.0,0.0,0.0,0.0,0.0,0.0,0.0,0.0,0.0,4.4591,4.4591,4.4591,0.0,4.4094,0.0,0.0,0.0,0.0,0.0,0.0,0.0,0.0,0.0,0.0,0.0,0.0,0.0,0.0,0.0,0.0,0.0,0.0,0.0,0.0,0.0,0.0,0.0,0.0,0.0,0.0,0.0,0.0,0.0,0.0,0.0,0.0,0.0,0.0,0.0,0.0,0.0,0.0,0.0,0.0,0.0,0.0,0.0,0.0,0.0,0.0,0.0,0.0,0.0,0.0,0.0,0.0,0.0,0.0,0.0,0.0,0.0,0.0,0.0,0.0,0.0,0.0,0.0,0.0,0.0,0.0,0.0,0.0,0.0,0.0,0.0,0.0,0.0,0.0,0.0,0.0,0.0,0.0,0.0,0.0,0.0,0.0,0.0,0.0,0.0,0.0,0.0,0.0,0.0,0.0,0.0,0.0,0.0,0.0,0.0,0.0,0.0,0.0,0.0,0.0,0.0,0.0,0.0,0.0,0.0,0.0,0.0,0.0,0.0,0.0,4.4591,4.4591,4.4591,4.4458,0.0,0.0,0.0,0.0,0.0,0.0,0.0,0.0,0.0,0.0,0.0,0.0,0.0,0.0,0.0,0.0,0.0,0.0,0.0,0.0,0.0,0.0,0.0,0.0,0.0,0.0,0.0,0.0,0.0,0.0,0.0,0.0,0.0,0.0,0.0,0.0,0.0,0.0,0.0,0.0,0.0,0.0,0.0,0.0,0.0,0.0,0.0,0.0,0.0,0.0,0.0,0.0,0.0,0.0,0.0,0.0,0.0,0.0,0.0,0.0,0.0,0.0,0.0,0.0,0.0,0.0,0.0,0.0,0.0,0.0,0.0,0.0,0.0,0.0,0.0,0.0,0.0,0.0,0.0,0.0,0.0,0.0,0.0,0.0,0.0,0.0,0.0,0.0,0.0,0.0,0.0,0.0,0.0,0.0,0.0,0.0,0.0,0.0,0.0,0.0,0.0,0.0,0.0,0.0,0.0,0.0,0.0,0.0,0.0,0.0,4.4591,4.4591,4.4591,4.4591,4.4467,4.4239,0.0,0.0,0.0,0.0,0.0,0.0,0.0,0.0,0.0,0.0,0.0,0.0,0.0,0.0,0.0,0.0,0.0,0.0,0.0,0.0,0.0,0.0,0.0,0.0,0.0,0.0,0.0,0.0,0.0,0.0,0.0,0.0,0.0,0.0,0.0,0.0,0.0,0.0,0.0,0.0,0.0,0.0,0.0,0.0,0.0,0.0,0.0,0.0,0.0,0.0,0.0,0.0,0.0,0.0,0.0,0.0,0.0,0.0,0.0,0.0,0.0,0.0,0.0,0.0,0.0,0.0,0.0,0.0,0.0,0.0,0.0,0.0,0.0,0.0,0.0,0.0,0.0,0.0,0.0,0.0,0.0,0.0,0.0,0.0,0.0,0.0,0.0,0.0,0.0,0.0,0.0,0.0,0.0,0.0,0.0,0.0,0.0,0.0,0.0,0.0,0.0,0.0,0.0,0.0,0.0,0.0,0.0,0.0,4.4591,4.4591,4.4591,4.4591,4.4591,4.44,0.0,0.0,0.0,0.0,0.0,0.0,0.0,0.0,0.0,0.0,0.0,0.0,0.0,0.0,0.0,0.0,0.0,0.0,0.0,0.0,0.0,0.0,0.0,0.0,0.0,0.0,0.0,0.0,0.0,0.0,0.0,0.0,0.0,0.0,0.0,0.0,0.0,0.0,0.0,0.0,0.0,0.0,0.0,0.0,0.0,0.0,0.0,0.0,0.0,0.0,0.0,0.0,0.0,0.0,0.0,0.0,0.0,0.0,0.0,0.0,0.0,0.0,0.0,0.0,0.0,0.0,0.0,0.0,0.0,0.0,0.0,0.0,0.0,0.0,0.0,0.0,0.0,0.0,0.0,0.0,0.0,0.0,0.0,0.0,0.0,0.0,0.0,0.0,0.0,0.0,0.0,0.0,0.0,0.0,0.0,0.0,0.0,0.0,0.0,0.0,0.0,0.0,0.0,0.0,0.0,0.0,0.0,0.0,0.0,4.4591,4.4591,4.4591,4.4591,4.4591,4.4498,0.0,0.0,0.0,0.0,0.0,0.0,0.0,0.0,0.0,0.0,0.0,0.0,0.0,0.0,0.0,0.0,0.0,0.0,0.0,0.0,0.0,0.0,0.0,0.0,0.0,0.0,0.0,0.0,0.0,0.0,0.0,0.0,0.0,0.0,0.0,0.0,0.0,0.0,0.0,0.0,0.0,0.0,0.0,0.0,0.0,0.0,0.0,0.0,0.0,0.0,0.0,0.0,0.0,0.0,0.0,0.0,0.0,0.0,0.0,0.0,0.0,0.0,0.0,0.0,0.0,0.0,0.0,0.0,0.0,0.0,0.0,0.0,0.0,0.0,0.0,0.0,0.0,0.0,0.0,0.0,0.0,0.0,0.0,0.0,0.0,0.0,0.0,0.0,0.0,0.0,0.0,0.0,0.0,0.0,0.0,0.0,0.0,0.0,0.0,0.0,0.0,0.0,0.0,0.0,0.0,0.0,0.0,0.0,0.0,4.4591,0.0,4.4524,4.4591,4.4524,4.44,0.0,0.0,0.0,0.0,0.0,0.0,0.0,0.0,0.0,0.0,0.0,0.0,0.0,0.0,0.0,0.0,0.0,0.0,0.0,0.0,0.0,0.0,0.0,0.0,0.0,0.0,0.0,0.0,0.0,0.0,0.0,0.0,0.0,0.0,0.0,0.0,0.0,0.0,0.0,0.0,0.0,0.0,0.0,0.0,0.0,0.0,0.0,0.0,0.0,0.0,0.0,0.0,0.0,0.0,0.0,0.0,0.0,0.0,0.0,0.0,0.0,0.0,0.0,0.0,0.0,0.0,0.0,0.0,0.0,0.0,0.0,0.0,0.0,0.0,0.0,0.0,0.0,0.0,0.0,0.0,0.0,0.0,0.0,0.0,0.0,0.0,0.0,0.0,0.0,0.0,0.0,0.0,0.0,0.0,0.0,0.0,0.0,0.0,0.0,0.0,0.0,0.0,0.0,0.0,0.0,0.0,0.0,0.0,4.4622,4.4622,4.4462,4.4504,4.4603,4.4473,4.425,0.0,0.0,0.0,0.0,0.0,0.0,0.0,0.0,0.0,0.0,0.0,0.0,0.0,0.0,0.0,0.0,0.0,0.0,0.0,0.0,0.0,0.0,0.0,0.0,0.0,0.0,0.0,0.0,0.0,0.0,0.0,0.0,0.0,0.0,0.0,0.0,0.0,0.0,0.0,0.0,0.0,0.0,0.0,0.0,0.0,0.0,0.0,0.0,0.0,0.0,0.0,0.0,0.0,0.0,0.0,0.0,0.0,0.0,0.0,0.0,0.0,0.0,0.0,0.0,0.0,0.0,0.0,0.0,0.0,0.0,0.0,0.0,0.0,0.0,0.0,0.0,0.0,0.0,0.0,0.0,0.0,0.0,0.0,0.0,0.0,0.0,0.0,0.0,0.0,0.0,0.0,0.0,0.0,0.0,0.0,0.0,0.0,0.0,0.0,0.0,0.0,0.0,0.0,0.0,0.0,0.0,0.0,0.0,0.0,4.528,4.5369,4.5543,4.5761,4.5543,4.5314,0.0,0.0,0.0,0.0,0.0,0.0,0.0,0.0,0.0,0.0,0.0,0.0,0.0,0.0,0.0,0.0,0.0,0.0,0.0,0.0,0.0,0.0,0.0,0.0,0.0,0.0,0.0,0.0,0.0,0.0,0.0,0.0,0.0,0.0,0.0,0.0,0.0,0.0,0.0,0.0,0.0,0.0,0.0,0.0,0.0,0.0,0.0,0.0,0.0,0.0,0.0,0.0,0.0,0.0,0.0,0.0,0.0,0.0,0.0,0.0,0.0,0.0,0.0,0.0,0.0,0.0,0.0,0.0,0.0,0.0,0.0,0.0,0.0,0.0,0.0,0.0,0.0,0.0,0.0,0.0,0.0,0.0,0.0,0.0,0.0,0.0,0.0,0.0,0.0,0.0,0.0,0.0,0.0,0.0,0.0,0.0,0.0,0.0,0.0,0.0,0.0,0.0,0.0,0.0,0.0,0.0,0.0,0.0,0.0,4.6079,4.59,4.591,4.6143,4.592,4.5717,4.5604,0.0,0.0,0.0,0.0,0.0,0.0,0.0,0.0,0.0,0.0,0.0,0.0,0.0,0.0,0.0,0.0,0.0,0.0,0.0,0.0,0.0,0.0,0.0,0.0,0.0,0.0,0.0,0.0,0.0,0.0,0.0,0.0,0.0,0.0,0.0,0.0,0.0,0.0,0.0,0.0,0.0,0.0,0.0,0.0,0.0,0.0,0.0,0.0,0.0,0.0,0.0,0.0,0.0,0.0,0.0,0.0,0.0,0.0,0.0,0.0,0.0,0.0,0.0,0.0,0.0,0.0,0.0,0.0,0.0,0.0,0.0,0.0,0.0,0.0,0.0,0.0,0.0,0.0,0.0,0.0,0.0,0.0,0.0,0.0,0.0,0.0,0.0,0.0,0.0,0.0,0.0,0.0,0.0,0.0,0.0,0.0,0.0,0.0,0.0,0.0,0.0,0.0,0.0,0.0,0.0,0.0,0.0,0.0,4.6981,4.6169,4.5816,4.599,4.5816,4.5704,0.0,0.0,0.0,0.0,0.0,0.0,0.0,0.0,0.0,0.0,0.0,0.0,0.0,0.0,0.0,0.0,0.0,0.0,0.0,0.0,0.0,0.0,0.0,0.0,0.0,0.0,0.0,0.0,0.0,0.0,0.0,0.0,0.0,0.0,0.0,0.0,0.0,0.0,0.0,0.0,0.0,0.0,0.0,0.0,0.0,0.0,0.0,0.0,0.0,0.0,0.0,0.0,0.0,0.0,0.0,0.0,0.0,0.0,0.0,0.0,0.0,0.0,0.0,0.0,0.0,0.0,0.0,0.0,0.0,0.0,0.0,0.0,0.0,0.0,0.0,0.0,0.0,0.0,0.0,0.0,0.0,0.0,0.0,0.0,0.0,0.0,0.0,0.0,0.0,0.0,0.0,0.0,0.0,0.0,0.0,0.0,0.0,0.0,0.0,0.0,0.0,0.0,0.0,0.0,0.0,0.0,0.0,0.0,0.0,4.7171,4.6967,4.6952,4.7154,4.6963,4.6856,0.0,0.0,0.0,0.0,0.0,0.0,0.0,0.0,0.0,0.0,0.0,0.0,0.0,0.0,0.0,0.0,0.0,0.0,0.0,0.0,0.0,0.0,0.0,0.0,0.0,0.0,0.0,0.0,0.0,0.0,0.0,0.0,0.0,0.0,0.0,0.0,0.0,0.0,0.0,0.0,0.0,0.0,0.0,0.0,0.0,0.0,0.0,0.0,0.0,0.0,0.0,0.0,0.0,0.0,0.0,0.0,0.0,0.0,0.0,0.0,0.0,0.0,0.0,0.0,0.0,0.0,0.0,0.0,0.0,0.0,0.0,0.0,0.0,0.0,0.0,0.0,0.0,0.0,0.0,0.0,0.0,0.0,0.0,0.0,0.0,0.0,0.0,0.0,0.0,0.0,0.0,0.0,0.0,0.0,0.0,0.0,0.0,0.0,0.0,0.0,0.0,0.0,0.0,0.0,0.0,0.0,0.0,0.0,4.6757,4.7279,4.7298,4.7363,4.7493,4.7363,4.7298,0.0,0.0,0.0,0.0,0.0,0.0,0.0,0.0,0.0,0.0,0.0,0.0,0.0,0.0,0.0,0.0,0.0,0.0,0.0,0.0,0.0,0.0,0.0,0.0,0.0,0.0,0.0,0.0,0.0,0.0,0.0,0.0,0.0,0.0,0.0,0.0,0.0,0.0,0.0,0.0,0.0,0.0,0.0,0.0,0.0,0.0,0.0,0.0,0.0,0.0,0.0,0.0,0.0,0.0,0.0,0.0,0.0,0.0,0.0,0.0,0.0,0.0,0.0,0.0,0.0,0.0,0.0,0.0,0.0,0.0,0.0,0.0,0.0,0.0,0.0,0.0,0.0,0.0,0.0,0.0,0.0,0.0,0.0,0.0,0.0,0.0,0.0,0.0,0.0,0.0,0.0,0.0,0.0,0.0,0.0,0.0,0.0,0.0,0.0,0.0,0.0,0.0,0.0,0.0,0.0,0.0,0.0,0.0,4.67,4.7279,4.7298,4.7298,4.7298,4.7298,4.7298,0.0,0.0,0.0,0.0,0.0,0.0,0.0,0.0,0.0,0.0,0.0,0.0,0.0,0.0,0.0,0.0,0.0,0.0,0.0,0.0,0.0,0.0,0.0,0.0,0.0,0.0,0.0,0.0,0.0,0.0,0.0,0.0,0.0,0.0,0.0,0.0,0.0,0.0,0.0,0.0,0.0,0.0,0.0,0.0,0.0,0.0,0.0,0.0,0.0,0.0,0.0,0.0,0.0,0.0,0.0,0.0,0.0,0.0,0.0,0.0,0.0,0.0,0.0,0.0,0.0,0.0,0.0,0.0,0.0,0.0,0.0,0.0,0.0,0.0,0.0,0.0,0.0,0.0,0.0,0.0,0.0,0.0,0.0,0.0,0.0,0.0,0.0,0.0,0.0,0.0,0.0,0.0,0.0,0.0,0.0,0.0,0.0,0.0,0.0,0.0,0.0,0.0,0.0,0.0,0.0,0.0,0.0,0.0,4.7149,4.7309,4.7298,4.7298,4.7298,4.7298,4.7298,0.0,0.0,0.0,0.0,0.0,0.0,0.0,0.0,0.0,0.0,0.0,0.0,0.0,0.0,0.0,0.0,0.0,0.0,0.0,0.0,0.0,0.0,0.0,0.0,0.0,0.0,0.0,0.0,0.0,0.0,0.0,0.0,0.0,0.0,0.0,0.0,0.0,0.0,0.0,0.0,0.0,0.0,0.0,0.0,0.0,0.0,0.0,0.0,4.7374,0.0,0.0,0.0,0.0,0.0,0.0,0.0,0.0,0.0,0.0,0.0,0.0,0.0,0.0,0.0,0.0,0.0,0.0,0.0,0.0,0.0,0.0,0.0,0.0,0.0,0.0,0.0,0.0,0.0,0.0,0.0,0.0,0.0,0.0,0.0,0.0,0.0,0.0,0.0,0.0,0.0,0.0,0.0,0.0,0.0,0.0,0.0,0.0,0.0,0.0,0.0,0.0,0.0,0.0,0.0,0.0,0.0,0.0,0.0,4.7298,4.7298,4.7298,4.7298,4.7298,4.7298,4.7298,0.0,0.0,0.0,0.0,0.0,0.0,0.0,0.0,0.0,0.0,0.0,0.0,0.0,0.0,0.0,0.0,0.0,0.0,0.0,0.0,0.0,0.0,0.0,0.0,0.0,0.0,0.0,0.0,0.0,0.0,0.0,0.0,0.0,0.0,0.0,0.0,0.0,0.0,0.0,0.0,0.0,0.0,0.0,0.0,0.0,0.0,0.0,0.0,0.0,0.0,0.0,0.0,0.0,0.0,0.0,0.0,0.0,0.0,0.0,0.0,0.0,0.0,0.0,0.0,0.0,0.0,0.0,0.0,0.0,0.0,0.0,0.0,0.0,0.0,0.0,0.0,0.0,0.0,0.0,0.0,0.0,0.0,0.0,0.0,0.0,0.0,0.0,0.0,0.0,0.0,0.0,0.0,0.0,0.0,0.0,0.0,0.0,0.0,0.0,0.0,0.0,0.0,0.0,0.0,0.0,0.0,0.0,4.7298,4.7298,4.7298,4.7298,4.7298,4.7298,4.7298,4.7298,4.7298,0.0,0.0,0.0,0.0,0.0,0.0,0.0,0.0,0.0,0.0,0.0,0.0,0.0,0.0,0.0,0.0,0.0,0.0,0.0,0.0,0.0,0.0,0.0,0.0,0.0,0.0,0.0,0.0,0.0,0.0,0.0,0.0,0.0,0.0,0.0,0.0,0.0,0.0,4.7549,4.7387,0.0,0.0,0.0,0.0,0.0,0.0,0.0,0.0,4.7298,0.0,0.0,0.0,0.0,0.0,0.0,0.0,0.0,0.0,0.0,0.0,0.0,0.0,0.0,0.0,0.0,0.0,0.0,0.0,0.0,0.0,0.0,0.0,0.0,0.0,0.0,0.0,0.0,0.0,0.0,0.0,0.0,0.0,0.0,0.0,0.0,0.0,0.0,0.0,0.0,0.0,0.0,0.0,0.0,0.0,0.0,0.0,0.0,0.0,0.0,0.0,0.0,0.0,0.0,0.0,0.0,4.7298,4.7298,4.7298,4.7298,4.7298,4.7298,4.7298,4.7298,4.7298,4.7298,0.0,0.0,0.0,0.0,0.0,0.0,0.0,0.0,0.0,0.0,0.0,0.0,0.0,0.0,0.0,0.0,0.0,0.0,0.0,0.0,0.0,0.0,0.0,0.0,0.0,0.0,0.0,0.0,0.0,0.0,0.0,0.0,0.0,0.0,0.0,0.0,0.0,0.0,0.0,4.7331,4.7298,0.0,0.0,0.0,0.0,0.0,0.0,0.0,0.0,4.7298,0.0,0.0,0.0,0.0,0.0,0.0,0.0,0.0,0.0,0.0,0.0,0.0,0.0,0.0,0.0,0.0,0.0,0.0,0.0,0.0,0.0,0.0,0.0,0.0,0.0,0.0,0.0,0.0,0.0,0.0,0.0,0.0,0.0,0.0,0.0,0.0,0.0,0.0,0.0,0.0,0.0,0.0,0.0,0.0,0.0,0.0,0.0,0.0,0.0,0.0,0.0,0.0,0.0,0.0,0.0,4.7298,4.7298,4.7298,4.7298,4.7298,4.7298,4.7298,4.7298,4.7298,0.0,0.0,0.0,0.0,0.0,0.0,0.0,0.0,0.0,0.0,0.0,0.0,0.0,0.0,0.0,0.0,0.0,0.0,0.0,0.0,0.0,0.0,0.0,0.0,0.0,0.0,0.0,0.0,0.0,0.0,0.0,0.0,0.0,0.0,0.0,0.0,0.0,0.0,0.0,0.0,4.7298,4.7298,4.7298,0.0,0.0,0.0,0.0,0.0,0.0,4.7298,4.7298,0.0,0.0,0.0,0.0,0.0,0.0,0.0,0.0,0.0,0.0,0.0,0.0,0.0,0.0,0.0,0.0,0.0,0.0,0.0,0.0,0.0,0.0,0.0,0.0,0.0,0.0,0.0,0.0,0.0,0.0,0.0,0.0,0.0,0.0,0.0,0.0,0.0,0.0,0.0,0.0,0.0,0.0,0.0,0.0,0.0,0.0,0.0,0.0,0.0,0.0,0.0,0.0,0.0,0.0,0.0,4.6997,4.6822,4.677,4.6986,4.6997,4.7084,4.7287,4.7095,4.7073,0.0,0.0,0.0,0.0,0.0,0.0,0.0,0.0,0.0,0.0,0.0,0.0,0.0,0.0,0.0,0.0,0.0,0.0,0.0,0.0,0.0,0.0,0.0,0.0,0.0,0.0,0.0,0.0,0.0,0.0,0.0,0.0,0.0,0.0,0.0,0.0,0.0,0.0,0.0,0.0,0.0,4.7298,4.7298,4.7298,0.0,0.0,0.0,0.0,4.7298,4.7298,0.0,0.0,0.0,0.0,0.0,0.0,0.0,0.0,0.0,0.0,0.0,0.0,0.0,0.0,0.0,0.0,0.0,0.0,0.0,0.0,0.0,0.0,0.0,0.0,0.0,0.0,0.0,0.0,0.0,0.0,0.0,0.0,0.0,0.0,0.0,0.0,0.0,0.0,0.0,0.0,0.0,0.0,0.0,0.0,0.0,0.0,0.0,0.0,0.0,0.0,0.0,0.0,0.0,0.0,0.0,0.0,4.5965,4.5098,4.5075,4.5902,4.5999,4.6388,4.7266,4.6462,4.6377,0.0,0.0,0.0,0.0,0.0,0.0,0.0,0.0,0.0,0.0,0.0,0.0,0.0,0.0,0.0,0.0,0.0,0.0,0.0,0.0,0.0,0.0,0.0,0.0,0.0,0.0,0.0,0.0,0.0,0.0,0.0,0.0,0.0,0.0,0.0,0.0,0.0,0.0,0.0,0.0,0.0,4.7298,4.7298,4.7298,4.7298,0.0,0.0,4.7298,4.7298,4.7298,0.0,0.0,0.0,0.0,0.0,0.0,0.0,0.0,0.0,0.0,0.0,0.0,0.0,0.0,0.0,0.0,0.0,0.0,0.0,0.0,0.0,0.0,0.0,0.0,0.0,0.0,0.0,0.0,0.0,0.0,0.0,0.0,0.0,0.0,0.0,0.0,0.0,0.0,0.0,0.0,0.0,0.0,0.0,0.0,0.0,0.0,0.0,0.0,0.0,0.0,0.0,0.0,0.0,0.0,0.0,4.6099,4.6583,4.5098,4.4788,4.5734,4.5247,4.5167,4.5593,4.5178,4.5417,0.0,0.0,0.0,0.0,0.0,0.0,0.0,0.0,0.0,0.0,0.0,0.0,0.0,0.0,0.0,0.0,0.0,0.0,0.0,0.0,0.0,0.0,0.0,0.0,0.0,0.0,0.0,0.0,0.0,0.0,0.0,0.0,0.0,0.0,0.0,0.0,0.0,0.0,0.0,0.0,0.0,0.0,4.7298,4.7298,0.0,0.0,0.0,4.7429,4.7818,0.0,0.0,0.0,0.0,0.0,0.0,0.0,0.0,0.0,0.0,0.0,0.0,0.0,0.0,0.0,0.0,0.0,0.0,0.0,0.0,0.0,0.0,0.0,0.0,0.0,0.0,0.0,0.0,0.0,0.0,0.0,0.0,0.0,0.0,0.0,0.0,0.0,0.0,0.0,0.0,0.0,0.0,0.0,0.0,0.0,0.0,0.0,0.0,0.0,0.0,0.0,0.0,0.0,0.0,0.0,0.0,0.0,4.6495,4.471,4.4255,4.5223,4.4537,4.4294,4.4502,4.415,0.0,0.0,0.0,0.0,0.0,0.0,0.0,0.0,0.0,0.0,0.0,0.0,0.0,0.0,0.0,0.0,0.0,0.0,0.0,0.0,0.0,0.0,0.0,0.0,0.0,0.0,0.0,4.7298,0.0,0.0,0.0,0.0,0.0,0.0,0.0,0.0,0.0,0.0,0.0,0.0,0.0,0.0,4.6873,4.6797,4.6764,4.6912,0.0,0.0,4.7651,4.8424,4.8558,4.8708,0.0,0.0,0.0,0.0,0.0,0.0,0.0,0.0,0.0,0.0,0.0,0.0,0.0,0.0,0.0,0.0,0.0,0.0,0.0,0.0,0.0,0.0,0.0,0.0,0.0,0.0,0.0,0.0,0.0,0.0,0.0,0.0,0.0,0.0,0.0,0.0,0.0,0.0,0.0,0.0,0.0,0.0,0.0,0.0,0.0,0.0,0.0,0.0,0.0,0.0,0.0,0.0,0.0,0.0,4.4452,4.4457,4.3094,4.2866,4.3808,4.3771,4.4184,4.5072,4.3667,4.3831,0.0,0.0,0.0,0.0,0.0,0.0,0.0,0.0,0.0,0.0,0.0,0.0,0.0,0.0,0.0,0.0,0.0,0.0,0.0,0.0,0.0,0.0,0.0,0.0,0.0,0.0,0.0,0.0,0.0,0.0,0.0,0.0,0.0,0.0,0.0,0.0,0.0,0.0,0.0,0.0,0.0,4.5796,4.5407,4.5333,4.5891,0.0,4.7573,4.7951,4.907,4.9217,4.9258,4.9277,0.0,0.0,0.0,0.0,0.0,0.0,0.0,0.0,0.0,0.0,0.0,0.0,0.0,0.0,0.0,0.0,0.0,0.0,0.0,0.0,0.0,0.0,0.0,0.0,0.0,0.0,0.0,0.0,0.0,0.0,0.0,0.0,0.0,0.0,0.0,0.0,0.0,0.0,0.0,0.0,0.0,0.0,0.0,0.0,0.0,0.0,0.0,0.0,0.0,0.0,0.0,0.0,0.0,4.5711,4.6289,4.3922,4.3184,4.4105,4.3604,4.3465,4.383,4.3225,4.3569,0.0,0.0,0.0,0.0,0.0,0.0,0.0,0.0,0.0,0.0,0.0,0.0,0.0,0.0,0.0,0.0,0.0,0.0,0.0,0.0,0.0,0.0,0.0,0.0,0.0,0.0,0.0,0.0,4.7298,4.7298,4.7298,0.0,0.0,0.0,0.0,0.0,0.0,0.0,0.0,0.0,0.0,4.5879,4.5697,4.5705,0.0,0.0,4.661,4.6908,4.7765,4.8441,4.9016,4.9427,5.0033,0.0,0.0,0.0,0.0,0.0,0.0,0.0,0.0,0.0,0.0,0.0,0.0,0.0,0.0,0.0,0.0,0.0,0.0,0.0,0.0,0.0,0.0,0.0,0.0,0.0,0.0,0.0,0.0,0.0,0.0,0.0,0.0,0.0,0.0,0.0,0.0,0.0,0.0,0.0,0.0,0.0,0.0,0.0,0.0,0.0,0.0,0.0,0.0,0.0,0.0,0.0,0.0,4.5953,4.667,4.443,4.3624,4.4306,4.365,4.3284,4.3258,4.3088,4.3463,0.0,0.0,0.0,0.0,0.0,0.0,0.0,0.0,0.0,0.0,0.0,0.0,0.0,0.0,0.0,0.0,0.0,0.0,0.0,0.0,0.0,0.0,0.0,0.0,0.0,0.0,0.0,0.0,4.7298,4.7298,4.7298,0.0,0.0,0.0,0.0,0.0,0.0,0.0,0.0,0.0,0.0,4.5372,4.5253,4.5518,4.5947,4.6497,4.6885,4.7401,4.8395,4.8799,4.9249,4.9915,0.0,0.0,0.0,0.0,0.0,0.0,0.0,0.0,0.0,0.0,0.0,0.0,0.0,0.0,0.0,0.0,0.0,0.0,0.0,0.0,0.0,0.0,0.0,0.0,0.0,0.0,0.0,4.306,0.0,0.0,4.0894,0.0,0.0,0.0,0.0,0.0,0.0,0.0,0.0,0.0,0.0,0.0,0.0,0.0,0.0,0.0,0.0,0.0,0.0,0.0,0.0,0.0,0.0,4.4595,4.4595,4.4162,4.3899,4.3952,4.3899,4.3873,4.3846,4.3337,4.3476,4.4457,0.0,0.0,0.0,0.0,0.0,0.0,0.0,0.0,0.0,0.0,0.0,0.0,0.0,0.0,0.0,0.0,0.0,0.0,0.0,0.0,0.0,0.0,0.0,0.0,0.0,0.0,4.7298,4.7298,4.7328,0.0,0.0,0.0,0.0,0.0,0.0,0.0,0.0,0.0,4.3993,4.3948,4.3983,4.3582,4.444,4.5784,4.7585,4.8754,5.0021,5.1564,5.0778,5.0209,0.0,0.0,0.0,0.0,0.0,0.0,0.0,0.0,0.0,0.0,0.0,0.0,0.0,0.0,0.0,0.0,0.0,0.0,0.0,0.0,0.0,0.0,0.0,0.0,0.0,0.0,0.0,4.3068,4.232,0.0,0.0,0.0,0.0,0.0,0.0,0.0,0.0,0.0,0.0,0.0,4.4492,4.3234,0.0,0.0,0.0,0.0,0.0,0.0,0.0,0.0,0.0,0.0,0.0,0.0,4.5777,4.5725,4.4904,4.4434,4.4421,4.4421,4.4421,4.4421,4.4225,4.411,4.4084,0.0,0.0,0.0,0.0,0.0,0.0,0.0,0.0,0.0,0.0,0.0,0.0,0.0,0.0,0.0,0.0,0.0,0.0,0.0,0.0,0.0,0.0,0.0,0.0,0.0,4.7298,0.0,0.0,0.0,0.0,0.0,0.0,0.0,0.0,0.0,0.0,0.0,4.4972,4.429,4.4373,4.4304,4.3809,4.4651,4.5494,0.0,0.0,0.0,0.0,0.0,0.0,0.0,0.0,0.0,0.0,0.0,0.0,0.0,0.0,4.6083,4.812,4.8919,4.9213,4.8971,0.0,0.0,0.0,0.0,0.0,0.0,0.0,0.0,0.0,0.0,0.0,0.0,0.0,0.0,4.2419,4.1678,4.1966,0.0,0.0,0.0,0.0,0.0,0.0,0.0,0.0,4.1466,4.2353,4.4033,4.273,4.3084,4.4842,4.3845,4.4042,0.0,0.0,0.0,0.0,0.0,0.0,0.0,0.0,4.6437,4.641,4.5706,4.5335,4.5335,4.5113,4.5008,4.4995,4.4799,4.4552,4.4186,4.4186,4.4058,0.0,0.0,0.0,0.0,0.0,0.0,0.0,0.0,0.0,0.0,0.0,0.0,0.0,0.0,0.0,0.0,0.0,0.0,0.0,0.0,0.0,0.0,0.0,4.7262,0.0,0.0,0.0,0.0,0.0,0.0,0.0,0.0,0.0,4.525,4.4797,4.4428,4.4275,4.4427,4.45,4.4347,0.0,0.0,0.0,0.0,0.0,0.0,0.0,4.7579,4.7595,4.7916,4.8181,4.8112,4.7241,4.6599,4.6713,0.0,0.0,4.7357,4.8066,4.834,4.814,4.8728,4.9044,4.8262,4.8309,4.8414,0.0,0.0,0.0,0.0,4.1811,0.0,0.0,0.0,4.1983,4.1651,0.0,4.1991,0.0,0.0,0.0,0.0,4.0119,4.0145,0.0,0.0,4.1349,4.1605,4.2169,4.2446,4.2755,4.3082,4.3658,4.4052,4.433,4.4093,0.0,0.0,0.0,0.0,0.0,0.0,4.6527,4.6503,4.6489,4.6501,4.6475,4.591,4.5635,4.5609,4.506,4.4773,4.4721,4.4721,4.4916,4.5328,4.4454,0.0,0.0,0.0,0.0,0.0,0.0,0.0,0.0,0.0,0.0,0.0,0.0,0.0,0.0,0.0,0.0,0.0,0.0,0.0,0.0,4.7201,0.0,0.0,0.0,0.0,0.0,0.0,0.0,0.0,0.0,0.0,4.4679,4.452,4.433,4.3905,0.0,0.0,0.0,0.0,4.6773,4.6968,4.7974,4.8884,4.9406,4.8367,4.7674,4.8296,0.0,0.0,4.6786,4.6576,4.6471,4.6756,4.6576,4.62,4.5747,4.6829,4.7492,4.701,4.7777,4.8044,4.7144,4.6886,4.6602,4.2116,0.0,0.0,0.0,0.0,4.1381,4.1194,4.068,4.1419,4.1214,4.0411,4.066,0.0,0.0,0.0,0.0,0.0,0.0,4.1619,4.1847,4.1663,4.2008,4.2732,4.265,4.3052,4.3918,4.4095,4.4294,4.4599,4.4955,4.5343,4.5814,0.0,0.0,0.0,0.0,4.6527,4.6527,4.6527,4.6527,4.6501,4.633,4.6252,4.6252,4.6069,4.5794,4.5374,4.5348,4.5211,4.4903,4.4648,0.0,0.0,0.0,0.0,0.0,0.0,0.0,0.0,0.0,0.0,0.0,0.0,0.0,0.0,0.0,0.0,0.0,0.0,0.0,4.849,4.6473,4.5573,0.0,0.0,0.0,0.0,0.0,0.0,0.0,0.0,0.0,4.496,4.4726,4.4517,0.0,0.0,4.5066,4.4785,4.5707,4.6312,4.6017,4.6564,0.0,4.7235,4.7111,4.6982,4.6953,4.6899,4.7029,4.7488,4.7517,4.7471,4.7579,4.7517,4.7405,4.727,4.7197,4.7232,4.7106,4.7582,4.7973,4.7646,4.7502,4.7431,4.2146,4.2307,4.1272,4.0833,4.0873,4.1453,4.1273,4.0612,4.1222,4.1158,4.0573,4.0573,4.0829,4.1303,4.1408,0.0,0.0,0.0,4.2006,4.2127,4.1993,4.2271,4.2993,4.3194,4.3543,4.411,4.4577,4.4875,4.5055,4.5517,4.5941,4.6274,0.0,4.6445,4.6813,4.7062,4.7167,4.7167,4.7167,4.7167,4.7167,4.6944,4.6722,4.6527,4.6527,4.633,4.5976,4.5976,4.5794,4.5414,4.5165,4.4917,0.0,0.0,0.0,0.0,0.0,0.0,0.0,0.0,0.0,0.0,0.0,4.6148,4.5905,0.0,0.0,0.0,4.6567,4.6931,4.7291,4.5719,0.0,0.0,0.0,0.0,0.0,0.0,0.0,4.494,4.5106,4.5262,4.5247,4.545,4.5432,4.5006,4.5271,4.5497,4.5568,0.0,4.6577,4.6451,4.6728,4.6938,4.6938,4.7081,4.7167,4.6969,4.7189,4.749,4.7832,4.7908,4.7908,4.7908,4.7908,4.7908,4.7908,4.7832,4.7666,4.749,4.7666,4.7908,4.7908,4.7908,4.7908,4.314,4.3037,4.2019,4.1528,4.1453,4.1428,4.1414,4.1439,4.1428,4.1439,4.1439,4.1453,4.1439,4.1503,4.1823,0.0,4.1944,4.1944,4.2126,4.2375,4.24,4.2637,4.3165,4.3964,4.4164,4.3962,4.497,4.5511,4.5608,4.5902,4.6417,4.7195,4.7316,4.733,4.7426,4.7925,4.8187,4.8187,4.8187,4.8187,4.8187,4.7661,4.7153,4.6644,4.6632,4.6618,4.6566,4.6566,4.6554,4.6501,4.5976,4.5661,4.5661,0.0,0.0,0.0,0.0,0.0,0.0,0.0,0.0,0.0,0.0,0.0,0.0,0.0,0.0,0.0,4.4874,0.0,4.4585,4.5099,0.0,0.0,0.0,4.6001,4.5477,4.5261,4.5139,4.5204,0.0,0.0,4.5688,4.6562,4.6813,4.5813,4.5713,4.605,4.7023,4.7164,4.735,4.7757,4.7883,4.7908,4.7807,4.7848,4.7863,4.7908,4.7967,4.7992,4.8068,4.8109,4.8058,4.8109,4.8043,4.8068,4.8058,4.8501,4.8693,4.8159,4.8068,4.8083,4.8118,4.8134,4.8159,4.4242,4.4202,4.3926,4.3363,4.2598,4.2598,4.2585,4.2598,4.2598,4.2598,4.2585,4.2598,4.2811,4.3223,4.3707,4.3911,4.3911,4.3911,4.3972,4.4027,4.4027,4.4102,4.4227,4.4425,4.463,4.4803,4.5073,4.5311,4.5537,4.6059,4.6428,4.6629,4.726,4.773,4.7975,4.8134,4.8187,4.8187,4.8187,4.8187,4.8187,4.8056,4.7925,4.7809,4.7794,4.7571,4.7138,4.7098,4.6944,4.6513,4.6356,4.6304,4.6278,4.5701,0.0,0.0,0.0,0.0,0.0,0.0,0.0,0.0,0.0,4.5171,4.4583,0.0,4.5248,0.0,4.4512,4.5096,4.6865,4.595,0.0,0.0,4.5722,4.5243,4.4854,4.5166,4.5565,4.5978,4.6431,4.6863,4.728,4.7556,4.7616,4.7355,4.733,4.7431,4.7691,4.7716,4.7741,4.7892,4.7958,4.7908,4.7958,4.7908,4.8083,4.8501,4.8576,4.8727,4.9113,4.9188,4.9188,4.9188,4.9188,4.9188,4.9163,4.933,4.9355,4.9213,4.9188,4.9188,4.9188,4.9188,4.9188,4.5357,4.5357,4.5342,4.502,4.4457,4.3915,4.3714,4.3714,4.3714,4.3714,4.3714,4.3729,4.3865,4.4177,4.4478,4.4589,4.4589,4.4589,4.4589,4.4589,4.4589,4.4589,4.4629,4.488,4.5083,4.5283,4.5536,4.5769,4.6101,4.6422,4.6623,4.6755,4.7228,4.756,4.7762,4.8055,4.8187,4.8187,4.8187,4.8187,4.8187,4.8187,4.8187,4.8187,4.8187,4.8041,4.7728,4.7713,4.7571,4.7272,4.701,4.6808,4.668,4.612,4.5683,0.0,0.0,0.0,0.0,0.0,0.0,0.0,0.0,0.0,0.0,0.0,4.5161,4.4983,4.4624,4.5067,4.6508,4.5593,4.524,4.6091,4.5624,4.5372,4.5683,4.601,4.6411,4.6938,4.729,4.7566,4.7883,4.8134,4.8284,4.8284,4.851,4.856,4.835,4.8284,4.8385,4.8611,4.8661,4.8661,4.8677,4.8661,4.8761,4.9079,4.9154,4.9254,4.954,4.959,4.959,4.959,4.959,4.959,4.959,4.959,4.959,4.959,4.959,4.959,4.959,4.959,4.959,4.6361,4.6311,4.6311,4.6311,4.6195,4.5231,4.4815,4.4815,4.483,4.483,4.4815,4.483,4.483,4.483,4.483,4.483,4.4815,4.4815,4.483,4.483,4.4815,4.4815,4.484,4.5347,4.5612,4.5623,4.606,4.6446,4.6746,4.6746,4.6855,4.7072,4.7116,4.7146,4.7176,4.784,4.8163,4.8128,4.8172,4.8187,4.8187,4.8187,4.8187,4.8187,4.8157,4.8128,4.8154,4.8084,4.807,4.807,4.7571,4.7181,4.6935,4.6378,4.5899,0.0,4.5537,0.0,0.0,0.0,0.0,0.0,0.0,0.0,0.0,4.4941,4.5138,4.5425,4.4998,4.4846,4.5135,4.499,4.5131,4.5623,4.5763,4.6175,4.7074,4.7199,4.7415,4.7958,4.8018,4.8033,4.8184,4.8601,4.8919,4.8928,4.9229,4.9355,4.9003,4.8903,4.9053,4.9556,4.959,4.9464,4.949,4.954,4.954,4.9565,4.9565,4.959,4.959,4.9665,4.9699,4.9715,4.9841,4.9866,4.9816,4.9857,4.9841,4.9891,4.9916,4.9841,4.964,4.959,4.9615,4.6697,4.6311,4.6311,4.6311,4.6301,4.606,4.5984,4.5984,4.5984,4.5959,4.5984,4.5984,4.5984,4.5984,4.5984,4.5984,4.5984,4.5984,4.5999,4.5959,4.5984,4.5959,4.5984,4.6085,4.6135,4.615,4.6235,4.6316,4.6401,4.6401,4.6421,4.6481,4.6736,4.687,4.691,0.0,0.0,0.0,4.8055,4.8187,4.8187,4.8187,4.8187,4.8172,4.7938,0.0,4.7792,4.753,4.7383,4.7383,4.728,0.0,0.0,0.0,0.0,0.0,0.0,0.0,0.0,0.0,0.0,0.0,4.5418,4.5494,4.5051,4.4828,4.4821,4.5149,4.5264,4.5351,4.5435,4.6165,4.6672,4.6813,4.7164,4.7531,4.7741,4.7741,4.7983,4.8551,4.8642,4.8802,4.9163,4.9405,4.9439,4.943,4.9531,4.9565,4.948,4.943,4.9464,4.959,4.9665,4.964,4.959,4.964,4.9715,4.959,4.959,4.964,4.969,5.0017,5.0226,5.0252,5.0628,5.0962,5.0962,5.0987,5.0912,5.0987,5.0962,5.0711,4.9791,4.9615,4.9715,4.734,4.7104,4.7104,4.7089,0.0,4.7089,4.7089,4.7054,4.6512,4.6311,4.6311,4.6311,4.6311,4.6311,4.6311,4.6311,4.6311,4.6311,4.6311,4.6311,4.6311,4.6311,4.6311,4.6311,4.6311,4.6311,4.6562,4.6672,4.6697,4.6963,4.7064,4.7104,4.7272,4.7349,4.7349,4.7922,4.8268,4.8303,4.8468,4.8632,4.8782,4.8632,4.8617,4.8782,4.8457,0.0,0.0,0.0,0.0,0.0,0.0,0.0,0.0,4.6739,0.0,4.6349,4.6041,4.5903,4.5889,4.5889,4.5845,4.5723,4.6183,4.6259,4.5759,4.5521,4.5617,4.6057,4.6225,4.6401,4.6677,4.7179,4.7475,4.7516,4.7741,4.8008,4.83,4.8335,4.8576,4.9079,4.9179,4.9305,4.9565,4.959,4.959,4.9615,4.9825,5.0001,4.995,4.9766,4.9665,4.995,5.0268,5.046,5.0435,5.0435,5.0435,5.0435,5.0435,5.0435,5.0435,5.067,5.0862,5.087,5.1113,5.1289,5.1289,5.1289,5.1289,5.1289,5.1289,5.1163,5.0519,5.0419,5.0494,4.8008,4.7908,4.7908,4.7908,4.7908,4.7908,4.7908,4.7832,4.6963,0.0,0.0,4.6587,4.6587,4.6602,4.6602,4.6587,4.6587,4.6587,4.6562,4.6577,4.6587,4.6602,4.6587,4.6562,4.6602,4.6612,4.7023,4.7249,4.7249,4.7691,4.7908,4.7908,4.7908,4.7942,4.8074,4.8323,4.8663,4.8988,4.8948,4.903,4.929,4.9045,4.903,4.9331,4.8984,4.8815,4.8815,4.8753,4.8549,4.8089,4.8064,4.7739,4.7035,4.6995,4.6874,4.6592,4.6587,4.6602,4.6587,4.6587,4.6562,4.6587,4.6973,4.7064,4.6612,4.6602,4.6763,4.7214,4.7249,4.74,4.7857,4.8008,4.8058,4.8058,4.8159,4.841,4.8853,4.8928,4.9104,4.9531,4.9665,4.9741,4.9766,4.9882,4.9907,4.9967,5.0318,5.0553,5.0503,5.0243,5.0142,5.0503,5.0896,5.1239,5.1289,5.1239,5.1289,5.1214,5.1239,5.1289,5.1314,5.1389,5.144,5.144,5.1565,5.1766,5.1766,5.1967,5.1883,5.1892,5.1892,5.1883,5.1892,5.1892,5.1816,4.84,4.7908,4.7908,4.7908,4.7908,4.7908,4.7908,4.7883,4.7757,4.7666,4.7682,4.7666,4.7666,4.7682,4.7666,4.7682,4.7682,4.7682,4.7666,4.7666,4.7666,4.7682,4.7666,4.7666,4.7682,4.7666,4.7767,4.7792,4.7792,4.7867,4.7908,4.7933,4.7908,4.8174,4.8642,4.8724,4.8998,4.9458,4.9099,4.8922,4.8968,4.8922,4.8922,4.8938,4.8686,4.8466,4.8476,4.8228,4.8022,4.7947,4.7922,4.7866,4.7769,4.7734,4.7728,4.7682,4.7682,4.7682,4.7682,4.7666,4.7682,4.7666,4.7741,4.7741,4.7682,4.7682,4.7707,4.7807,4.7807,4.7817,4.7917,4.8375,4.8677,4.8718,4.9079,4.9405,4.948,4.9506,4.9515,4.9681,5.0001,5.0302,5.0343,5.0695,5.0962,5.1038,5.1096,5.1197,5.1247,5.1113,5.1088,5.1163,5.1239,5.1289,5.1465,5.1314,5.1465,5.1289,5.144,5.1565,5.159,5.1875,5.2126,5.2026,5.2729,5.3206,5.3306,5.3801,5.3868,5.3893,5.3851,5.3919,5.3868,5.3893,5.3592,4.9983,4.9741,4.9757,4.9757,4.9741,4.9741,4.9741,4.9741,4.9741,4.9038,4.7958,4.7908,4.7908,4.7908,4.7908,4.7908,4.7908,4.7908,4.7908,4.7908,4.7908,4.7908,4.7908,4.7908,4.7908,4.7917,4.8234,4.84,4.8426,4.8677,4.8837,4.8837,4.9113,4.9389,4.9665,4.9983,5.0284,5.0485,4.9693,4.9374,4.9532,4.9374,4.9358,4.9532,4.9232,4.9074,4.9033,4.8891,4.867,4.84,4.8375,4.8234,4.7933,4.7908,4.7908,4.7908,4.7908,4.7908,4.7908,4.7908,4.8058,4.835,4.84,4.851,4.8812,4.8259,4.8033,4.835,4.84,4.8485,4.8786,4.9079,4.9229,4.9229,4.948,4.9715,4.9992,5.0026,5.0167,5.0485,5.072,5.0912,5.087,5.1138,5.1289,5.1339,5.1741,5.2251,5.2553,5.2846,5.2721,5.1967,5.1975,5.2302,5.2545,5.262,5.2746,5.2997,5.3072,5.3072,5.3089,5.3323,5.3399,5.3474,5.3901,5.4127,5.4177,5.4396,5.4572,5.4597,5.4597,5.4597,5.4597,5.4597,5.4321,5.1289,5.1289,5.1289,5.1289,5.1289,5.1289,5.1289,5.1289,5.1289,5.0309,4.8786,4.8535,4.841,4.8284,4.8269,4.8284,4.8284,4.8284,4.8284,4.8284,4.841,4.8469,4.8469,4.8586,4.8661,4.8711,4.9154,4.9371,4.9405,4.9782,4.9967,5.0033,5.0377,5.0619,5.0619,5.1071,5.1289,5.1239,5.0435,5.0138,5.0364,5.0096,5.0122,5.0348,5.0113,4.9967,4.9983,4.9983,4.9766,4.9396,4.9371,4.9104,4.852,4.8444,4.841,4.8294,4.8269,4.8335,4.846,4.846,4.8711,4.9305,4.9371,4.9531,4.9841,4.9188,4.8711,4.8953,4.9104,4.9355,4.9707,4.9916,4.9967,4.9967,4.9967,5.0209,5.0544,5.0619,5.077,5.1214,5.1389,5.1515,5.1624,5.1766,5.1967,5.2268,5.2779,5.3432,5.3858,5.4328,5.3969,5.3206,5.3013,5.3381,5.3851,5.3876,5.4027,5.4547,5.4522,5.4396,5.4421,5.4522,5.4572,5.4496,5.4629,5.4755,5.4798,5.4931,5.5006,5.5082,5.5082,5.5031,5.5056,5.5056,5.4848,5.1314,5.1289,5.1339,5.1289,5.1339,5.1339,5.1339,5.1339,5.1314,5.1214,5.0862,5.0419,4.9891,4.949,4.9439,4.9439,4.9439,4.9455,4.9455,4.949,4.995,5.0151,5.0151,5.067,5.0987,5.0912,5.0962,5.0912,5.0912,5.1038,5.1138,5.1138,5.1188,5.1214,5.1214,5.1289,5.1314,5.1289,5.1214,5.1155,5.1213,5.1155,5.1155,5.1188,5.1171,5.1138,5.1088,5.1138,5.1113,5.1063,5.1029,5.077,5.0226,5.0151,4.9941,4.949,4.9439,4.964,5.0101,5.016,5.0393,5.0987,5.0987,5.0987,5.1088,5.1013,5.0535,4.9882,4.9992,5.0252,5.0352,5.077,5.1013,5.0987,5.1038,5.1163,5.1239,5.1214,5.1239,5.1289,5.1917,5.2226,5.2729,5.3105,5.3582,5.3876,5.4127,5.4378,5.4479,5.4655,5.4748,5.4403,5.4429,5.4429,5.4504,5.4522,5.4597,5.4672,5.4629,5.4705,5.4798,5.4755,5.4647,5.5107,5.5182,5.5483,5.5559,5.5666,5.605,5.6068,5.6068,5.605,5.605,5.605,5.5792,5.2234,5.2251,5.2234,5.2234,5.2234,5.2251,5.2234,5.2234,5.2251,5.2076,5.1774,5.1498,5.1096,5.0611,5.0611,5.0611,5.0611,5.0594,5.0594,5.0636,5.0862,5.0921,5.0987,5.1163,5.1289,5.1289,5.1289,5.1289,5.1289,5.1289,5.1289,5.1339,5.1615,5.1774,5.1774,5.2101,5.2234,5.2251,5.2234,5.2234,5.2176,5.1624,5.1289,5.1289,5.1289,5.1289,5.1289,5.1289,5.1289,5.1289,5.1289,5.1188,5.0946,5.0921,5.0837,5.0611,5.0611,5.0711,5.0921,5.0921,5.1038,5.1289,5.1289,5.1289,5.1289,5.1289,5.1063,5.0761,5.0795,5.0921,5.0971,5.1163,5.1289,5.1289,5.1289,5.1548,5.2201,5.2251,5.2452,5.3097,5.3466,5.3625,5.3876,5.4102,5.4328,5.4622,5.4848,5.5082,5.5082,5.5333,5.5516,5.5559,5.5541,5.5408,5.5157,5.5056,5.5207,5.5458,5.5559,5.5541,5.5584,5.5842,5.6043,5.5993,5.6394,5.6721,5.6922,5.6997,5.7198,5.7148,5.7198,5.7198,5.7198,5.7198,5.6947,5.3364,5.3364,5.3364,5.3364,5.3381,5.3364,5.3364,5.3381,5.3381,5.3155,5.2821,5.2796,5.2595,5.2168,5.159,5.1289,5.1289,5.1289,5.1289,5.1314,5.144,5.154,5.154,5.1691,5.1724,5.1724,5.1766,5.1749,5.1724,5.1724,5.1741,5.1825,5.226,5.2553,5.2603,5.3105,5.3381,5.3364,5.3364,5.3381,5.3264,5.2603,5.2068,5.1791,5.1724,5.1724,5.1724,5.1724,5.1724,5.1749,5.1724,5.1674,5.154,5.1515,5.1465,5.1314,5.1289,5.1364,5.1515,5.1649,5.18,5.1925,5.2093,5.2193,5.221,5.2193,5.2218,5.2243,5.221,5.2168,5.1766,5.2017,5.221,5.221,5.2193,5.257,5.3256,5.3381,5.3658,5.4471,5.4421,5.4672,5.4823,5.4949,5.5107,5.5175,5.5408,5.5616,5.5641,5.5942,5.62,5.6376,5.6401,5.6194,5.5742,5.5792,5.6018,5.6276,5.6477,5.6671,5.6671,5.7029,5.723,5.7022,5.7625,5.7801,5.7575,5.7725,5.7901,5.7901,5.7901,5.7901,5.775,5.7876,5.7876,5.4522,5.4479,5.4522,5.4446,5.4522,5.4471,5.4496,5.4403,5.4471,5.4471,5.4371,5.4396,5.4446,5.4195,5.2361,5.1364,5.1364,5.1465,5.1515,5.1565,5.1942,5.2101,5.2101,5.2586,5.2837,5.2837,5.2837,5.2837,5.2837,5.2837,5.282,5.2862,5.3356,5.3607,5.3658,5.4127,5.4479,5.4378,5.4378,5.4471,5.4471,5.4396,5.3801,5.2937,5.282,5.2837,5.2837,5.282,5.2837,5.282,5.2837,5.2611,5.2176,5.2109,5.1942,5.149,5.1389,5.159,5.2126,5.2586,5.3013,5.3507,5.3901,5.4346,5.4145,5.4145,5.4145,5.4371,5.4195,5.3901,5.3155,5.36,5.4145,5.422,5.4321,5.4346,5.4471,5.4429,5.4504,5.4672,5.4748,5.4949,5.5333,5.5835,5.5968,5.6018,5.61,5.615,5.6175,5.6226,5.6502,5.6853,5.6935,5.6803,5.6351,5.6527,5.6828,5.7004,5.728,5.7656,5.7801,5.787,5.7851,5.7901,5.8052,5.8102,5.7951,5.7951,5.8052,5.8102,5.8152,5.8127,5.8303,5.8045,5.8096,5.4597,5.4597,5.4597,5.4597,5.4597,5.4597,5.4597,5.4597,5.4597,5.4597,5.4597,5.4597,5.4597,5.4547,5.3793,5.3416,5.3399,5.3416,5.3416,5.3424,5.3625,5.37,5.3725,5.3909,5.4002,5.4002,5.3984,5.4002,5.4002,5.3984,5.4002,5.4002,5.4177,5.4278,5.4328,5.4496,5.4597,5.4597,5.4597,5.4597,5.4622,5.4597,5.4396,5.4052,5.3976,5.3976,5.4002,5.3976,5.3976,5.3976,5.4002,5.3884,5.3725,5.37,5.3625,5.3424,5.3416,5.3499,5.3675,5.3876,5.4052,5.4253,5.4471,5.4647,5.4597,5.4597,5.4597,5.4672,5.4949,5.4856,5.4655,5.4604,5.4597,5.4597,5.4622,5.4773,5.5024,5.5107,5.5232,5.5516,5.5616,5.5717,5.5867,5.6093,5.6219,5.6244,5.6502,5.6677,5.6778,5.7004,5.7323,5.7499,5.7575,5.7524,5.7374,5.7424,5.7581,5.7625,5.7775,5.7851,5.7951,5.8303,5.8403,5.8478,5.8554,5.873,5.8704,5.8704,5.8704,5.8755,5.878,5.8679,5.893,5.8724,5.8774,5.5107,5.5107,5.5107,5.5107,5.5107,5.5107,5.5107,5.5107,5.5107,5.5132,5.5107,5.5107,5.5107,5.5132,5.5107,5.5107,5.5056,5.4755,5.4597,5.4597,5.4597,5.4597,5.4597,5.4597,5.4597,5.4597,5.4597,5.4597,5.4597,5.4597,5.4597,5.4597,5.4748,5.4856,5.4898,5.5024,5.5107,5.5107,5.5107,5.5132,5.5089,5.5132,5.5107,5.5107,5.5107,5.4931,5.4647,5.4597,5.4597,5.4597,5.4597,5.4597,5.4597,5.4597,5.4597,5.4597,5.4572,5.4597,5.4622,5.4748,5.4848,5.4898,5.5031,5.5107,5.5125,5.5125,5.5107,5.5207,5.5408,5.5666,5.5591,5.5333,5.5132,5.5107,5.5107,5.5257,5.5591,5.5641,5.5817,5.6093,5.6319,5.6426,5.6502,5.6652,5.6771,5.6728,5.7079,5.728,5.7355,5.7581,5.7976,5.8127,5.8152,5.8278,5.8328,5.8453,5.8278,5.8252,5.8403,5.8353,5.8353,5.873,5.8956,5.9012,5.9207,5.9408,5.9527,5.9527,5.9552,5.9578,5.9377,5.9201,5.9351,5.9427,5.9427,5.615,5.6082,5.6175,5.6093,5.6068,5.6068,5.6143,5.6093,5.6118,5.6043,5.5993,5.6118,5.6018,5.6118,5.6018,5.6118,5.5892,5.5157,5.4755,5.4755,5.4748,5.4748,5.4748,5.4798,5.4798,5.4755,5.4672,5.4672,5.4748,5.4798,5.4755,5.4798,5.5225,5.539,5.5408,5.5817,5.6118,5.6068,5.6043,5.6093,5.6194,5.6093,5.6043,5.6093,5.6093,5.5641,5.4748,5.4697,5.473,5.4723,5.4705,5.4647,5.4748,5.4748,5.4672,5.4748,5.4697,5.4672,5.4748,5.5157,5.5408,5.5458,5.5867,5.6043,5.5993,5.6043,5.6025,5.6018,5.6068,5.6168,5.6125,5.6143,5.6075,5.6168,5.6018,5.6043,5.6194,5.6219,5.6226,5.6394,5.6753,5.7004,5.7129,5.7355,5.7625,5.7675,5.7826,5.7901,5.7926,5.8033,5.8227,5.8535,5.871,5.8805,5.9156,5.9452,5.9131,5.893,5.9106,5.9182,5.9081,5.9282,5.9382,5.9483,5.9784,6.0004,6.0055,6.0055,5.9954,5.9929,5.9753,5.9778,5.9904,6.0004,5.9854,5.6054,5.5852,5.6091,5.6219,5.6219,5.6219,5.6219,5.6219,5.6219,5.6219,5.6219,5.6219,5.6219,5.6219,5.6219,5.6219,5.6168,5.5842,5.5691,5.5666,5.5709,5.5666,5.5666,5.5691,5.5691,5.5691,5.5691,5.5691,5.5666,5.5666,5.5691,5.5742,5.5842,5.5942,5.5942,5.6143,5.6219,5.6219,5.6219,5.6219,5.6219,5.6219,5.6219,5.6219,5.6219,5.6018,5.5717,5.5691,5.5717,5.5684,5.5691,5.5691,5.5691,5.5691,5.5691,5.5691,5.5691,5.5691,5.5717,5.5817,5.5942,5.5993,5.6118,5.6194,5.6219,5.6219,5.6219,5.6219,5.6219,5.6219,5.6269,5.6552,5.6602,5.6251,5.6219,5.6401,5.6728,5.7079,5.7349,5.7374,5.7524,5.7625,5.765,5.7876,5.7976,5.8027,5.8252,5.8434,5.8485,5.871,5.9006,5.9212,5.9282,5.9207,5.9382,5.9583,5.9508,5.9338,5.9533,5.9684,5.9633,5.9778,5.9879,6.001,6.0337,6.0487,6.0557,6.0532,6.0457,6.0532,6.0607,6.0632,6.0658,6.0557,6.0406,5.5926,5.5871,5.6109,5.6219,5.6219,5.6219,5.6219,5.6219,5.6219,5.6219,5.6219,5.6219,5.6219,5.6219,5.6219,5.6219,5.6219,5.6219,5.6219,5.6219,5.6219,5.6219,5.6219,5.6219,5.6219,5.6219,5.6219,5.6219,5.6219,5.6219,5.6219,5.6194,5.6219,5.6194,5.6219,5.6219,5.6219,5.6219,5.6219,5.6219,5.6219,5.6219,5.6219,5.6219,5.6219,5.6219,5.6219,5.6219,5.6219,5.6219,5.6219,5.6219,5.6219,5.6194,5.6219,5.6219,5.6194,5.6194,5.6219,5.6168,5.6219,5.6219,5.6219,5.6219,5.6219,5.6219,5.6251,5.6477,5.6527,5.6559,5.6828,5.7104,5.7154,5.6878,5.6872,5.6979,5.733,5.7675,5.7851,5.7876,5.8052,5.8177,5.8202,5.8428,5.8478,5.8554,5.878,5.8987,5.9062,5.9282,5.9433,5.9483,5.9433,5.9433,5.9483,5.9633,5.9809,5.9809,5.984,5.9935,5.9935,6.0281,6.0482,6.0607,6.0858,6.0864,6.0909,6.0984,6.0964,6.1165,6.1291,6.111,6.0959,6.1009,6.0889,5.5779,5.6091,5.6127,5.6109,5.6146,5.6146,5.6164,5.6219,5.6219,5.6219,5.6219,5.6301,5.6319,5.6276,5.6445,5.6495,5.6326,5.6445,5.647,5.647,5.6445,5.642,5.6244,5.6219,5.6219,5.6219,5.6219,5.6219,5.6219,5.6219,5.6219,5.6219,5.6219,5.6219,5.6219,5.6219,5.6219,5.6219,5.6182,5.6146,5.62,5.6164,5.6182,5.62,5.6219,5.6219,5.6219,5.6219,5.6219,5.6219,5.6219,5.6219,5.6219,5.6219,5.6219,5.6219,5.6219,5.6219,5.6219,5.6219,5.6219,5.6219,5.6294,5.6251,5.6344,5.6477,5.6677,5.701,5.7054,5.7255,5.7656,5.7901,5.7926,5.7976,5.7876,5.7901,5.7926,5.8001,5.8196,5.8202,5.8434,5.8736,5.8761,5.9131,5.9307,5.9357,5.9402,5.9382,5.9408,5.9458,5.9502,5.9552,5.9603,5.9734,5.9809,6.0186,6.0362,6.0437,6.0442,6.0537,6.0512,6.0814,6.1085,6.121,6.1341,6.1316,6.1391,6.1567,6.1592,6.1667,6.1592,6.1336,6.1386,6.1542,6.1592,5.5053,5.4924,5.5183,5.5485,5.5742,5.5761,5.5944,5.62,5.6226,5.6239,5.6282,5.6627,5.6766,5.6828,5.723,5.7449,5.7374,5.7399,5.743,5.7449,5.7449,5.6947,5.6344,5.6219,5.6244,5.6269,5.6319,5.6219,5.6219,5.6257,5.6251,5.6219,5.6239,5.6232,5.6219,5.6214,5.6219,5.6164,5.5889,5.5932,5.6159,5.5939,5.5926,5.62,5.6226,5.6207,5.6219,5.6219,5.6219,5.6219,5.6219,5.6219,5.6219,5.6219,5.6219,5.6219,5.6244,5.6219,5.6219,5.6269,5.6244,5.6244,5.6602,5.6784,5.6784,5.7204,5.7474,5.7656,5.7675,5.7725,5.7951,5.8278,5.8604,5.8956,5.8704,5.8504,5.8554,5.8855,5.91,5.9106,5.9182,5.9232,5.9282,5.9357,5.9527,5.9527,5.9527,5.9552,5.9603,5.9628,5.9653,5.9709,5.9784,6.001,6.0242,6.0688,6.0939,6.104,6.1165,6.1366,6.1341,6.1441,6.1642,6.1793,6.2044,6.2094,6.225,6.245,6.2375,6.2169,6.222,6.2119,6.2295,6.2425,6.2375,5.5165,5.5366,5.5573,5.5798,5.5985,5.6004,5.6154,5.6321,5.6359,5.6359,5.6433,5.6682,5.6925,5.7125,5.7424,5.7725,5.7882,5.7901,5.7763,5.7555,5.7379,5.7143,5.6936,5.6922,5.6903,5.6903,5.6878,5.6928,5.691,5.6737,5.6644,5.6613,5.6452,5.6383,5.6371,5.6359,5.6359,5.6328,5.6135,5.621,5.6545,5.621,5.629,5.6514,5.6514,5.6359,5.6383,5.6359,5.6333,5.6234,5.6219,5.6219,5.6219,5.6219,5.6219,5.6219,5.6401,5.6552,5.6584,5.6753,5.6922,5.6972,5.7255,5.7355,5.743,5.775,5.7926,5.8202,5.8227,5.8353,5.8579,5.888,5.9156,5.9357,5.9207,5.9037,5.9031,5.9301,5.9477,5.9527,5.9527,5.9527,5.9527,5.9527,5.9527,5.9527,5.9527,5.9659,5.9809,5.9809,5.9935,6.0111,6.0311,6.0563,6.0814,6.1215,6.1492,6.1592,6.1793,6.2019,6.2044,6.2044,6.2169,6.237,6.2626,6.2802,6.2802,6.2802,6.2701,6.2601,6.2777,6.2802,6.2802,6.2802,6.2802,5.5722,5.6467,5.6467,5.651,5.6456,5.6524,5.6483,5.6576,5.6603,5.6584,5.6609,5.6669,5.7004,5.727,5.7488,5.7647,5.8108,5.8063,5.7792,5.757,5.7379,5.7394,5.802,5.7619,5.7494,5.7494,5.7757,5.7688,5.7437,5.7204,5.714,5.6947,5.6668,5.6614,5.6562,5.6578,5.6601,5.6554,5.6429,5.6537,5.6784,5.6556,5.6556,5.684,5.6689,5.6562,5.6573,5.6573,5.6474,5.6261,5.6284,5.6385,5.6378,5.6365,5.639,5.6472,5.6823,5.7085,5.7136,5.7506,5.7801,5.7775,5.7851,5.7976,5.8027,5.8152,5.8403,5.8755,5.8786,5.8981,5.9257,5.9458,5.9458,5.9502,5.9458,5.9502,5.9527,5.9527,5.9527,5.9527,5.9527,5.9527,5.9508,5.9533,5.9608,5.9834,5.9885,6.0205,6.0337,6.0412,6.0588,6.0839,6.1059,6.1235,6.1466,6.1743,6.1943,6.2119,6.235,6.2526,6.2526,6.2551,6.2676,6.2802,6.2802,6.2802,6.2802,6.2802,6.2802,6.2802,6.2802,6.2802,6.2802,6.2802,6.2802,5.5482,5.5656,5.566,5.5834,5.6108,5.6147,5.6319,5.6611,5.6611,5.6647,5.6685,5.7029,5.7432,5.7866,5.7943,5.8467,5.885,5.8464,5.8312,5.8558,5.8456,5.8649,5.8739,5.7973,5.7246,5.7232,5.7662,5.7568,5.7151,5.7206,5.7044,5.6789,5.6753,5.6631,5.6641,5.6638,5.6606,5.6549,5.6324,5.6412,5.6685,5.6455,5.6417,5.6718,5.668,5.6611,5.6606,5.6606,5.6578,5.6615,5.6786,5.6956,5.6931,5.72,5.72,5.7087,5.7381,5.7681,5.775,5.7876,5.7926,5.8027,5.8353,5.8535,5.856,5.8905,5.9131,5.9332,5.9313,5.9357,5.9477,5.9527,5.9527,5.9527,5.9527,5.9527,5.9527,5.9527,5.9527,5.9527,5.9552,5.9527,5.9552,5.996,6.0085,6.0166,6.0437,6.0808,6.0934,6.0989,6.1215,6.1492,6.1667,6.1818,6.1943,6.2124,6.23,6.2425,6.2651,6.2802,6.2802,6.2802,6.2802,6.2802,6.2802,6.2802,6.2802,6.2802,6.2802,6.2802,6.2802,6.2802,6.2802,6.2802,6.2802,5.5919,5.6135,5.6135,5.6277,5.6453,5.6492,5.659,5.6765,5.6804,5.6804,5.6853,5.712,5.7453,5.7848,5.7942,5.832,5.8677,5.8305,5.832,5.8589,5.8374,5.834,5.8701,5.8061,5.7401,5.7652,5.8119,5.794,5.7599,5.7338,5.732,5.7077,5.6897,5.6838,5.6804,5.6799,5.679,5.6794,5.6609,5.6668,5.6916,5.6687,5.6531,5.6746,5.6804,5.6785,5.6809,5.6809,5.6902,5.7072,5.726,5.7227,5.7004,5.7158,5.7215,5.7335,5.7697,5.8082,5.8227,5.8504,5.8679,5.8629,5.893,5.9006,5.9087,5.9357,5.9477,5.9527,5.9502,5.9502,5.9527,5.9527,5.9527,5.9527,5.9527,5.9527,5.9527,5.9527,5.9527,5.9578,5.9759,5.9859,6.0016,6.0412,6.0638,6.0763,6.0814,6.116,6.1517,6.1592,6.1818,6.2024,6.2225,6.2375,6.2425,6.2526,6.2626,6.2701,6.2727,6.2802,6.2802,6.2802,6.2802,6.2802,6.2802,6.2802,6.2802,6.2802,6.2802,6.2802,6.2802,6.2802,6.2802,6.2802,6.2802,5.6592,5.7001,5.7001,5.7001,5.7001,5.6997,5.6968,5.6992,5.7001,5.6956,5.7021,5.7001,5.7262,5.7532,5.7532,5.7774,5.7932,5.805,5.8227,5.8379,5.775,5.7853,5.8143,5.7927,5.782,5.8628,5.8646,5.8417,5.7947,5.7789,5.7476,5.7424,5.7171,5.6991,5.6988,5.6997,5.6956,5.6952,5.6932,5.7035,5.7292,5.7079,5.6956,5.6956,5.6976,5.6976,5.6971,5.6995,5.7127,5.7497,5.7493,5.7184,5.6876,5.6852,5.6928,5.7322,5.7825,5.8191,5.8522,5.8945,5.9267,5.9431,5.9483,5.9483,5.9502,5.9477,5.9502,5.9527,5.9527,5.9527,5.9527,5.9527,5.9527,5.9552,5.9578,5.9608,5.9633,5.9659,5.9854,5.9734,6.0136,6.0437,6.0638,6.0914,6.114,6.1336,6.1411,6.1537,6.1893,6.2144,6.23,6.2375,6.2526,6.2601,6.2626,6.2651,6.2777,6.2802,6.2802,6.2802,6.2659,6.2059,6.1998,6.27,6.2802,6.2761,6.2761,6.2802,6.2802,6.2802,6.2802,6.2802,6.2802,6.2802,6.2802,5.6929,5.7001,5.7001,5.7001,5.7001,5.7001,5.7001,5.7001,5.7001,5.7001,5.7001,5.7021,5.722,5.7438,5.7239,5.718,5.7418,5.7695,5.7971,5.7947,5.7537,5.7754,5.8011,5.773,5.769,5.7848,5.8129,5.7971,5.7537,5.7438,5.7374,5.716,5.7041,5.7001,5.7001,5.7001,5.7001,5.7001,5.7001,5.708,5.71,5.708,5.7001,5.7001,5.7001,5.7001,5.7001,5.7001,5.7041,5.71,5.71,5.702,5.7039,5.7482,5.7658,5.7639,5.7888,5.824,5.8465,5.8749,5.8984,5.9101,5.9295,5.9489,5.9508,5.9527,5.9527,5.9527,5.9527,5.9527,5.9527,5.9558,5.9533,5.9608,5.9935,6.0161,6.0261,6.0512,6.0658,6.0412,6.0738,6.104,6.1215,6.1441,6.1743,6.1943,6.2069,6.2144,6.2395,6.2526,6.2626,6.2701,6.2752,6.2777,6.2777,6.2777,6.2802,6.2802,6.2802,6.2802,6.2347,6.1142,6.1038,6.1808,6.2413,6.2536,6.2597,6.2741,6.2802,6.2802,6.2802,6.2781,6.2802,6.2802,6.2802,5.7001,5.7001,5.7001,5.7001,5.7001,5.7001,5.7001,5.7001,5.7001,5.7001,5.7001,5.7021,5.71,5.72,5.712,5.7001,5.716,5.7358,5.7596,5.7537,5.7438,5.7537,5.7853,5.7473,5.7339,5.7358,5.7497,5.7477,5.7041,5.718,5.718,5.708,5.7001,5.7001,5.7001,5.7001,5.7001,5.7001,5.7001,5.7001,5.7001,5.7001,5.7001,5.7001,5.7001,5.7001,5.7001,5.7001,5.7001,5.7021,5.7001,5.7001,5.7164,5.7343,5.766,5.768,5.7813,5.805,5.8251,5.8521,5.8677,5.8926,5.9095,5.9289,5.9425,5.9527,5.9508,5.9508,5.9527,5.9527,5.9527,5.9759,5.989,6.001,6.0412,6.0713,6.0889,6.1291,6.1316,6.119,6.1416,6.1642,6.1692,6.1969,6.232,6.2526,6.2676,6.2752,6.2802,6.2802,6.2802,6.27,6.2638,6.2409,6.2368,6.2372,6.2347,6.2434,6.2475,6.2495,6.2121,6.0955,6.0643,6.1042,6.1498,6.127,6.2495,6.2659,6.272,6.27,6.2618,6.2577,6.272,6.2802,6.2802,5.7001,5.7001,5.7001,5.7001,5.7001,5.7001,5.7001,5.7001,5.7001,5.7001,5.7001,5.7001,5.7001,5.7001,5.7021,5.7001,5.7001,5.7041,5.722,5.7339,5.72,5.722,5.7275,5.722,5.7041,5.708,5.708,5.7001,5.7021,5.7041,5.7021,5.7001,5.7001,5.7001,5.7001,5.7001,5.7001,5.7001,5.7001,5.7001,5.7001,5.7001,5.7001,5.7001,5.7001,5.7001,5.7001,5.7001,5.7097,5.7169,5.7217,5.7241,5.7313,5.7313,5.7425,5.7587,5.7546,5.7695,5.7892,5.8129,5.8266,5.8477,5.8692,5.8945,5.914,5.9237,5.9423,5.9492,5.9664,5.9834,6.003,6.0261,6.0462,6.0613,6.0964,6.1391,6.1492,6.1768,6.2074,6.2074,6.2149,6.2048,6.1952,6.2295,6.2576,6.2626,6.2752,6.2752,6.2802,6.2802,6.2761,6.2618,6.2388,6.2018,6.1853,6.173,6.1668,6.156,6.1581,6.1581,6.1312,6.0789,6.035,5.9381,5.8724,5.8722,6.0601,6.1957,6.1395,6.1225,6.187,6.208,6.1746,6.2306,6.2802,5.7001,5.7001,5.7001,5.7001,5.7001,5.7001,5.7001,5.7001,5.7001,5.7001,5.7001,5.7001,5.7001,5.7001,5.7001,5.7001,5.7001,5.7021,5.7061,5.712,5.7041,5.7041,5.708,5.7041,5.7001,5.7001,5.7001,5.7001,5.7001,5.7001,5.7001,5.7001,5.7001,5.7001,5.7001,5.7001,5.7001,5.7001,5.7001,5.7001,5.7025,5.7025,5.7049,5.7049,5.7097,5.7145,5.7193,5.7217,5.7313,5.767,5.7718,5.7959,5.8319,5.8416,5.8127,5.7782,5.7393,5.7124,5.7352,5.7634,5.792,5.8142,5.8315,5.8394,5.8772,5.9091,5.9391,5.9701,5.9976,6.0367,6.0708,6.1009,6.1085,6.1285,6.1567,6.1843,6.1994,6.2104,6.241,6.1996,6.1737,6.1918,6.1968,6.2416,6.2802,6.2802,6.2781,6.272,6.2327,6.1952,6.1664,6.1246,6.0893,6.0493,6.0389,6.0413,6.0413,6.0413,6.0413,6.0368,5.9991,5.9338,5.7869,5.6944,5.6424,5.6229,5.7418,5.8424,5.8997,5.976,6.0392,6.0497,6.0371,6.1312,6.272,5.7001,5.7001,5.7001,5.7001,5.7001,5.7001,5.7001,5.7001,5.7001,5.7001,5.7001,5.7001,5.7001,5.7001,5.7001,5.7001,5.7001,5.7001,5.7001,5.7001,5.7001,5.7001,5.7021,5.7001,5.7001,5.7001,5.7001,5.7001,5.7001,5.7001,5.7001,5.7001,5.7001,5.7001,5.7001,5.7001,5.7001,5.7001,5.7001,5.7001,5.7073,5.7265,5.7458,5.7482,5.7718,5.7818,5.7842,5.7911,5.8007,5.8247,5.8247,5.8343,5.8536,5.8584,5.844,5.8295,5.8079,5.779,5.759,5.7618,5.7959,5.8378,5.8691,5.8945,5.9155,5.9425,5.9727,6.0124,6.0551,6.0905,6.1136,6.1466,6.1592,6.1712,6.1523,6.1839,6.2014,6.2474,6.2527,6.1911,6.1229,6.0955,6.0997,6.1602,6.187,6.2059,6.1911,6.1767,6.0872,5.9715,5.9462,5.923,5.8891,5.8552,5.853,5.853,5.8509,5.8509,5.8509,5.8445,5.8296,5.7459,5.6098,5.5924,5.6272,5.5881,5.5137,5.6077,5.7717,5.8381,5.8873,5.9169,5.9634,6.156,6.2536,5.7001,5.7001,5.7001,5.7001,5.7001,5.7001,5.7001,5.7001,5.7001,5.7001,5.7001,5.7001,5.7001,5.7001,5.7001,5.7001,5.7001,5.7001,5.7001,5.7001,5.7001,5.7001,5.7001,5.7001,5.7001,5.7001,5.7001,5.7001,5.7001,5.7001,5.7001,5.7001,5.7001,5.7001,5.7001,5.7025,5.7049,5.7265,5.7265,5.7337,5.7526,5.7794,5.7938,5.8127,5.8367,5.8608,5.8608,5.856,5.856,5.8776,5.8821,5.8687,5.8338,5.818,5.7598,5.7186,5.671,5.6656,5.6811,5.7251,5.8227,5.8786,5.8951,5.8762,5.848,5.9269,5.9755,5.9536,6.0173,6.0529,6.0954,6.1245,6.0769,6.0674,6.0683,6.1189,6.1412,6.1122,6.0726,5.9949,5.923,5.887,5.9188,6.0263,6.083,6.1163,6.1101,6.0768,5.9547,5.7974,5.7845,5.776,5.6986,5.6728,5.6641,5.6641,5.6641,5.6619,5.6619,5.6598,5.6489,5.5793,5.4609,5.4917,5.5531,5.4631,5.3344,5.4983,5.6445,5.612,5.6207,5.804,5.9336,6.125,6.231,5.7001,5.7001,5.7001,5.7001,5.7001,5.7001,5.7001,5.7001,5.7001,5.7001,5.7001,5.7001,5.7001,5.7001,5.7001,5.7001,5.7001,5.7001,5.7001,5.7001,5.7001,5.7001,5.7001,5.7001,5.7001,5.7001,5.7001,5.7001,5.7049,5.7145,5.7073,5.7001,5.7073,5.7025,5.7097,5.7241,5.7434,5.765,5.7746,5.7962,5.8223,5.8464,5.8512,5.856,5.8584,5.8608,5.8632,5.8523,5.857,5.8932,5.8575,5.8129,5.7345,5.7201,5.6441,5.5421,5.501,5.4943,5.5152,5.6548,5.8133,5.8526,5.8311,5.7618,5.6743,5.7041,5.7535,5.8183,5.8899,5.9484,5.9881,6.0087,5.9485,5.9106,5.9006,5.9011,5.9061,5.8722,5.8273,5.7695,5.7266,5.6899,5.6337,5.718,5.87,5.9124,5.853,5.8168,5.7803,5.6662,5.6705,5.6446,5.54,5.4939,5.4785,5.4763,5.4763,5.4763,5.4763,5.4763,5.4741,5.3878,5.3211,5.3053,5.3344,5.2469,5.2107,5.3612,5.4278,5.3232,5.3745,5.6251,5.8232,5.9907,6.0997,5.7001,5.7001,5.7001,5.7001,5.7001,5.7001,5.7001,5.7001,5.7001,5.7001,5.7001,5.7001,5.7001,5.7001,5.7001,5.7001,5.7001,5.7001,5.7025,5.7001,5.7001,5.7001,5.7001,5.7073,5.7001,5.7049,5.7049,5.7217,5.7502,5.7482,5.7766,5.7742,5.7381,5.7333,5.7409,5.7722,5.8035,5.8199,5.8295,5.844,5.856,5.8965,5.911,5.911,5.9519,5.9567,5.9448,5.8372,5.8174,5.7821,5.7096,5.6351,5.5769,5.5661,5.5004,5.3996,5.3777,5.3755,5.3865,5.5056,5.5648,5.6027,5.5987,5.577,5.5036,5.5814,5.6312,5.69,5.7414,5.7977,5.8243,5.8337,5.8036,5.7502,5.7137,5.6943,5.6791,5.6533,5.6207,5.5772,5.5378,5.5027,5.4366,5.3812,5.5531,5.6922,5.6207,5.5597,5.54,5.5093,5.4983,5.4873,5.3923,5.3455,5.3299,5.312,5.2941,5.3031,5.3098,5.321,5.3344,5.2807,5.2244,5.1836,5.1791,5.1836,5.2062,5.2447,5.2514,5.2244,5.3344,5.5312,5.705,5.8571,5.923,5.7097,5.7241,5.7241,5.7145,5.7001,5.7001,5.7001,5.7001,5.7001,5.7001,5.7001,5.7001,5.7001,5.7001,5.7001,5.7001,5.7073,5.7169,5.7241,5.7337,5.7434,5.7454,5.7458,5.7506,5.7646,5.7458,5.7482,5.7746,5.8031,5.8031,5.8199,5.8199,5.7935,5.7862,5.8031,5.8347,5.8636,5.88,5.8824,5.8989,5.9134,5.9422,5.9639,5.9475,5.9382,5.9056,5.8524,5.743,5.6506,5.6095,5.5443,5.4389,5.3903,5.3593,5.337,5.308,5.2879,5.288,5.2884,5.3775,5.3996,5.4785,5.4785,5.4412,5.4036,5.4411,5.4632,5.4785,5.5508,5.6098,5.6184,5.6185,5.5706,5.5027,5.4851,5.4697,5.4763,5.4609,5.4256,5.3901,5.3589,5.3388,5.3187,5.2673,5.3344,5.4587,5.4167,5.3745,5.3656,5.3277,5.2785,5.2673,5.2379,5.2085,5.1882,5.2154,5.2424,5.2357,5.2357,5.2199,5.2107,5.1791,5.1791,5.1791,5.1791,5.1791,5.1949,5.2197,5.2085,5.1859,5.3322,5.4917,5.5772,5.7094,5.7223,5.7337,5.7746,5.777,5.7482,5.7145,5.7025,5.7073,5.7169,5.7145,5.7145,5.7169,5.7145,5.7145,5.7145,5.7285,5.7289,5.7337,5.7646,5.779,5.7886,5.8083,5.8392,5.8416,5.8367,5.8223,5.8512,5.8085,5.783,5.8294,5.7653,5.7954,5.8091,5.7624,5.8065,5.8461,5.8547,5.8831,5.9281,5.9312,5.9323,5.9479,5.9388,5.9117,5.8823,5.8038,5.7462,5.703,5.5596,5.4697,5.4389,5.3925,5.2946,5.1936,5.1778,5.11,4.9862,4.9587,4.9403,4.938,5.2479,5.3571,5.3593,5.3191,5.2968,5.2161,5.2206,5.2565,5.2678,5.308,5.3503,5.3703,5.3836,5.3301,5.3032,5.2919,5.2986,5.3143,5.3187,5.2941,5.2852,5.2334,5.1904,5.1927,5.1882,5.1949,5.2199,5.1972,5.1949,5.2197,5.213,5.1836,5.1791,5.1791,5.1791,5.1791,5.1791,5.1882,5.1791,5.1791,5.1791,5.1791,5.1791,5.1791,5.1791,5.1791,5.1791,5.1791,5.1836,5.1791,5.1927,5.3076,5.4388,5.5071,5.5334,5.5312,5.8175,5.8319,5.8319,5.8203,5.8079,5.8055,5.8035,5.8079,5.8055,5.8055,5.8055,5.8079,5.8079,5.8055,5.8007,5.8007,5.8079,5.8151,5.8343,5.8306,5.8338,5.856,5.8509,5.8293,5.841,5.8195,5.768,5.7019,5.7169,5.6471,5.5827,5.5771,5.6238,5.7173,5.8241,5.8584,5.8374,5.9377,5.8916,5.8115,5.817,5.7267,5.6618,5.6618,5.5902,5.5509,5.5356,5.3615,5.2745,5.2454,5.2003,5.0825,5.0117,5.0025,4.9656,4.894,4.8894,4.8894,4.8986,5.0325,5.0644,5.0916,5.1052,5.0848,4.9957,5.0274,5.0479,5.0687,5.1118,5.1458,5.1435,5.1885,5.1725,5.1838,5.1838,5.2041,5.2177,5.2132,5.2062,5.2107,5.1814,5.1746,5.1723,5.1769,5.1791,5.1791,5.1791,5.1791,5.1972,5.1972,5.1791,5.1791,5.1791,5.1791,5.1791,5.1791,5.1791,5.1791,5.1791,5.1791,5.1791,5.1791,5.1791,5.1791,5.1791,5.1791,5.1791,5.1791,5.1791,5.2177,5.2897,5.3165,5.3367,5.3278,5.2964,5.8704,5.8893,5.8872,5.9013,5.9065,5.8773,5.8608,5.8608,5.8608,5.8608,5.8584,5.8584,5.856,5.8584,5.8608,5.8608,5.8547,5.8056,5.7896,5.7816,5.7271,5.7007,5.7007,5.7273,5.6844,5.6788,5.6241,5.557,5.5819,5.4629,5.4434,5.4544,5.3903,5.5112,5.643,5.6825,5.6746,5.735,5.6703,5.6357,5.6076,5.5465,5.4719,5.4521,5.4058,5.3547,5.3013,5.2005,5.0735,5.0368,4.9748,4.8894,4.8894,4.8894,4.8894,4.8894,4.8894,4.8894,4.8963,4.8986,4.938,4.9285,4.8894,4.8894,4.8917,4.9354,4.9423,4.9561,4.9719,4.9925,5.0154,5.0542,5.077,5.0884,5.1248,5.1474,5.1678,5.1678,5.1497,5.152,5.1429,5.1452,5.161,5.1723,5.1791,5.1791,5.1791,5.1791,5.1791,5.1791,5.1791,5.1791,5.1791,5.1791,5.1791,5.1791,5.1791,5.1791,5.1791,5.1791,5.1791,5.1791,5.1791,5.1791,5.1791,5.1791,5.1791,5.1791,5.1791,5.1791,5.2017,5.2062,5.1791,5.1791,5.1791,5.8903,5.9398,5.9422,5.9711,5.9952,5.9137,5.8728,5.8704,5.8704,5.8728,5.8704,5.88,5.8848,5.8752,5.8728,5.8776,5.8499,5.7497,5.7085,5.6456,5.5866,5.5286,5.4982,5.5004,5.5307,5.4873,5.4346,5.4106,5.4346,5.3352,5.3417,5.3504,5.2162,5.2905,5.3683,5.4059,5.4433,5.5093,5.4873,5.4543,5.4235,5.3903,5.3348,5.2968,5.2342,5.1755,5.1143,5.0231,4.9449,4.9101,4.894,4.8894,4.8894,4.8894,4.8894,4.8894,4.8894,4.8894,4.8894,4.8894,4.8894,4.8894,4.8894,4.8894,4.8894,4.8963,4.9032,4.9032,4.917,4.9351,4.9558,4.9856,5.0131,5.0474,5.0907,5.118,5.1429,5.1361,5.1134,5.0975,5.0793,5.0861,5.127,5.1474,5.1791,5.1791,5.1791,5.1791,5.1791,5.1791,5.1791,5.1791,5.1791,5.1791,5.1791,5.1791,5.1791,5.1791,5.1791,5.1791,5.1791,5.1791,5.1791,5.1791,5.1791,5.1791,5.1791,5.1791,5.1791,5.1791,5.1791,5.1791,5.1791,5.1791,5.1791,5.8629,5.991,5.9976,6.0072,6.0144,5.9855,5.9735,5.9735,5.9735,5.9735,5.9714,5.9735,5.9427,5.9735,5.9735,5.9586,5.8961,5.8188,5.7423,5.6375,5.4698,5.4544,5.4345,5.4146,5.4367,5.3881,5.3259,5.2476,5.2162,5.153,5.0757,5.0231,5.0299,5.0504,5.0598,5.0598,5.2252,5.328,5.2968,5.2633,5.2138,5.1552,5.1213,5.0666,5.0461,4.9979,4.9633,4.9377,4.8894,4.8894,4.8894,4.8894,4.8894,4.8894,4.8894,4.8894,4.8894,4.8894,4.8894,4.8894,4.8894,4.8894,4.8894,4.8894,4.8894,4.8894,4.8894,4.8894,4.8894,4.9098,4.9259,4.9466,4.9719,5.0042,5.0408,5.0679,5.0884,5.0793,5.0565,5.0428,5.0268,5.0656,5.1043,5.1497,5.1791,5.1791,5.1791,5.1791,5.1791,5.1791,5.1791,5.1791,5.1791,5.1791,5.1791,5.1791,5.1791,5.1791,5.1791,5.1791,5.1791,5.1791,5.1791,5.1791,5.1791,5.1791,5.1791,5.1791,5.1791,5.1791,5.1791,5.1791,5.1791,5.1791,5.1791,5.6901,5.7999,5.8813,5.9494,6.0024,5.9431,5.9089,5.9195,5.9853,6.0213,6.0108,5.932,5.9089,5.8809,5.8123,5.7629,5.7479,5.5616,5.472,5.4235,5.337,5.2319,5.2207,5.2409,5.2027,5.18,5.1417,5.0575,5.0345,4.9771,4.9009,4.9124,4.8894,4.8894,4.9078,4.9426,5.0185,5.1052,5.1234,5.0735,5.0139,4.9541,4.9124,4.8894,4.8894,4.8894,4.8894,4.8894,4.8894,4.8894,4.8894,4.8894,4.8894,4.8894,4.8894,4.8894,4.8894,4.8894,4.8894,4.8894,4.8894,4.8894,4.8894,4.8894,4.8894,4.8894,4.8894,4.8894,4.8894,4.8917,4.9009,4.9147,4.9354,4.9584,4.9856,5.0108,5.0131,5.0131,5.0017,4.9902,5.0108,5.0542,5.0975,5.1474,5.1791,5.1791,5.1791,5.1791,5.1791,5.1791,5.1791,5.1791,5.1791,5.1791,5.1791,5.1791,5.1791,5.1791,5.1791,5.1791,5.1791,5.1791,5.1791,5.1791,5.1791,5.1791,5.1791,5.1791,5.1791,5.1791,5.1791,5.1791,5.1791,5.1791,5.1791,5.4411,5.4763,5.6423,5.8042,5.9367,5.7827,5.716,5.7355,5.8726,5.9642,5.9174,5.7892,5.716,5.6922,5.5967,5.5312,5.4873,5.3548,5.2723,5.171,5.0553,4.9816,4.9679,4.9055,4.9934,4.9335,4.9055,4.9472,4.9101,4.8894,4.8894,4.8894,4.8894,4.8894,4.8894,4.8894,4.9358,4.9564,4.9679,4.9358,4.9216,4.894,4.8894,4.8894,4.8894,4.8894,4.8894,4.8894,4.8894,4.8894,4.8894,4.8894,4.8894,4.8894,4.8894,4.8894,4.8894,4.8894,4.8894,4.8894,4.8894,4.8894,4.8894,4.8894,4.8894,4.8894,4.8894,4.8894,4.8894,4.8894,4.8963,4.9006,4.9167,4.9285,4.9489,4.965,4.9696,4.965,4.9512,4.9558,4.9994,5.0382,5.0679,5.1157,5.1769,5.1791,5.1791,5.1791,5.1791,5.1791,5.1791,5.1791,5.1791,5.1791,5.1791,5.1791,5.1791,5.1791,5.1791,5.1791,5.1791,5.1791,5.1791,5.1791,5.1791,5.1791,5.1791,5.1791,5.1791,5.1791,5.1791,5.1791,5.1791,5.1791,5.1791,5.3192,5.4521,5.5005,5.5487,5.5815,5.54,5.5203,5.5246,5.5596,5.588,5.5793,5.5399,5.518,5.4983,5.4411,5.3991,5.3681,5.2162,5.18,5.1075,4.9656,4.8917,4.8894,4.8894,4.8894,4.8894,4.8894,4.8894,4.8894,4.8894,4.8894,4.8894,4.8894,4.8894,4.8894,4.8894,4.8894,4.8894,4.8894,4.8894,4.8894,4.8894,4.8894,4.8894,4.8894,4.8894,4.8894,4.8894,4.8894,4.8894,4.8894,4.8894,4.8894,4.8894,4.8894,4.8894,4.8894,4.8894,4.8894,4.8894,4.8894,4.8894,4.8894,4.8894,4.8894,4.8894,4.8894,4.8894,4.8894,4.8894,4.8894,4.8913,4.8936,4.9029,4.9121,4.9213,4.9285,4.917,4.9032,4.9397,4.9833,5.02,5.0474,5.0952,5.1542,5.1791,5.1791,5.1791,5.1791,5.1791,5.1791,5.1791,5.1791,5.1791,5.1791,5.1791,5.1791,5.1791,5.1791,5.1791,5.1791,5.1791,5.1791,5.1791,5.1791,5.1791,5.1791,5.1791,5.1791,5.1791,5.1791,5.1791,5.1791,5.1791,5.1791,5.1055,5.2072,5.2924,5.3748,5.4257,5.3615,5.328,5.3124,5.2387,5.2027,5.2207,5.2812,5.3237,5.2947,5.2431,5.2207,5.2005,5.0984,5.0391,4.9888,4.9702,4.9101,4.8894,4.8894,4.8894,4.8894,4.8894,4.8894,4.8972,4.8894,4.8894,4.8933,4.8933,4.8929,4.8933,4.8913,4.8933,4.8894,4.8952,4.8952,4.8952,4.8913,4.8913,4.8894,4.8894,4.8894,4.8894,4.8894,4.8894,4.8894,4.8894,4.8894,4.8894,4.8894,4.8894,4.8894,4.8894,4.8894,4.8933,4.8952,4.8972,4.8991,4.8933,4.8933,4.8894,4.8894,4.8894,4.8894,4.8894,4.8894,4.8894,4.8894,4.8894,4.8982,4.9006,4.9032,4.9055,4.9009,4.894,4.9098,4.9627,5.02,5.0588,5.1157,5.1656,5.1791,5.1791,5.1791,5.1791,5.1791,5.1791,5.1791,5.1791,5.1791,5.1791,5.1791,5.1791,5.1791,5.1791,5.1791,5.1791,5.1791,5.1791,5.1791,5.1791,5.1791,5.1791,5.1791,5.1791,5.1791,5.1791,5.1791,5.1791,5.1791,5.1791,4.8986,4.917,5.0666,5.223,5.3415,5.2093,5.1349,5.112,4.9702,4.9032,4.94,5.0803,5.1258,5.0712,4.9816,4.9239,4.9055,4.9472,4.9193,4.9124,4.9009,4.8894,4.8894,4.8894,4.8949,4.9007,4.9046,4.9148,4.9246,4.9246,4.9222,4.9089,4.9046,4.9066,4.907,4.9089,4.9183,4.9246,4.9265,4.9144,4.907,4.8952,4.8913,4.8894,4.8894,4.8894,4.8894,4.8894,4.8894,4.8894,4.8894,4.8894,4.8949,4.8988,4.9046,4.9066,4.9222,4.9203,4.9183,4.9222,4.9183,4.9148,4.907,4.905,4.9089,4.9089,4.9089,4.9046,4.9046,4.8933,4.8933,4.8894,4.8894,4.8894,4.8894,4.8894,4.8894,4.8894,4.8894,4.8936,4.9466,5.0108,5.0565,5.1157,5.152,5.1656,5.1746,5.1791,5.1791,5.1791,5.1791,5.1791,5.1791,5.1791,5.1791,5.1791,5.1791,5.1791,5.1791,5.1791,5.1791,5.1791,5.1791,5.1791,5.1791,5.1791,5.1791,5.1791,5.1791,5.1791,5.1791,5.1791,5.1791,5.1791,5.1791,4.8894,4.8959,4.9331,4.9702,4.9977,4.961,4.9426,4.938,4.9147,4.8894,4.9009,4.9101,4.9403,4.9449,4.9193,4.8894,4.8894,4.8894,4.8894,4.8917,4.8894,4.8894,4.8991,4.9125,4.9164,4.9281,4.9433,4.959,4.9656,4.9789,4.9926,4.9848,4.9887,4.9887,4.9906,4.9867,4.9809,4.9813,4.9813,4.9789,4.9633,4.9398,4.8952,4.8894,4.8894,4.8894,4.8894,4.8894,4.8894,4.8894,4.8972,4.9011,4.9086,4.9281,4.9355,4.9476,4.9613,4.973,4.973,4.973,4.9711,4.975,4.9754,4.9793,4.9789,4.9789,4.9769,4.9672,4.9535,4.9109,4.9011,4.8933,4.8894,4.8894,4.8894,4.8894,4.8894,4.8894,4.8894,4.9052,4.9374,4.9719,4.9902,5.0519,5.1134,5.1293,5.1497,5.152,5.152,5.1633,5.1723,5.1746,5.1723,5.1791,5.1791,5.1791,5.1791,5.1791,5.1791,5.1791,5.1791,5.1791,5.1791,5.1791,5.1791,5.1791,5.1791,5.1791,5.1791,5.1791,5.1791,5.1791,5.1791,5.1791,5.1791]},{"header":{"parameterUnit":"m.s-1","parameterCategory":1,"la1":31.0,"la2":29.5877,"lo1":-88.7671,"lo2":-86.6584,"dy":0.0162,"dx":0.0185,"nx":115,"ny":88,"refTime":"2023-11-09T06:00:00:Z","depth":0,"parameterNumber":3,"parameterNumberName":"V-component_of_WINDS"},"data":[0.0,0.0,0.0,0.0,0.0,0.0,0.0,0.0,0.0,0.0,0.0,0.0,0.0,0.0,0.0,0.0,0.0,0.0,0.0,0.0,0.0,0.0,0.0,0.0,0.0,0.0,0.0,0.0,0.0,0.0,0.0,0.0,0.0,0.0,0.0,0.0,0.0,0.0,0.0,0.0,0.0,0.0,0.0,0.0,0.0,0.0,0.0,0.0,0.0,0.0,0.0,0.0,0.0,0.0,0.0,0.0,0.0,0.0,0.0,0.0,0.0,0.0,0.0,0.0,0.0,0.0,0.0,0.0,0.0,0.0,0.0,0.0,0.0,0.0,0.0,0.0,0.0,0.0,0.0,0.0,0.0,0.0,0.0,0.0,0.0,0.0,0.0,0.0,0.0,0.0,0.0,0.0,0.0,0.0,0.0,0.0,0.0,0.0,0.0,0.0,0.0,0.0,0.0,0.0,0.0,0.0,0.0,0.0,0.0,0.0,0.0,0.0,0.0,0.0,0.0,0.0,0.0,0.0,0.0,0.0,0.0,0.0,0.0,0.0,0.0,0.0,0.0,0.0,0.0,0.0,0.0,0.0,0.0,0.0,0.0,0.0,0.0,0.0,0.0,0.0,0.0,0.0,0.0,0.0,0.0,0.0,0.0,0.0,0.0,0.0,0.0,0.0,0.0,0.0,0.0,0.0,0.0,0.0,0.0,0.0,0.0,0.0,0.0,0.0,0.0,0.0,0.0,0.0,0.0,0.0,0.0,0.0,0.0,0.0,0.0,0.0,0.0,0.0,0.0,0.0,0.0,0.0,0.0,0.0,0.0,0.0,0.0,0.0,0.0,0.0,0.0,0.0,0.0,0.0,0.0,0.0,0.0,0.0,0.0,0.0,0.0,0.0,0.0,0.0,0.0,0.0,0.0,0.0,0.0,0.0,0.0,0.0,0.0,0.0,0.0,0.0,0.0,0.0,0.0,0.0,0.0,0.0,0.0,0.0,0.0,0.0,0.0,0.0,0.0,0.0,0.0,0.0,0.0,0.0,0.0,0.0,0.0,0.0,0.0,0.0,0.0,0.0,0.0,0.0,0.0,0.0,0.0,0.0,0.0,0.0,0.0,0.0,0.0,0.0,0.0,0.0,0.0,0.0,0.0,0.0,0.0,0.0,0.0,0.0,0.0,0.0,0.0,0.0,0.0,0.0,0.0,0.0,0.0,0.0,0.0,0.0,0.0,0.0,0.0,0.0,0.0,0.0,0.0,0.0,0.0,0.0,0.0,0.0,0.0,0.0,0.0,0.0,0.0,0.0,0.0,0.0,0.0,0.0,0.0,0.0,0.0,0.0,0.0,0.0,0.0,0.0,0.0,0.0,0.0,0.0,0.0,0.0,0.0,0.0,0.0,0.0,0.0,0.0,0.0,0.0,0.0,0.0,0.0,0.0,0.0,0.0,0.0,0.0,0.0,0.0,0.0,0.0,0.0,0.0,0.0,0.0,0.0,0.0,0.0,0.0,0.0,0.0,0.0,0.0,0.0,0.0,0.0,0.0,0.0,0.0,0.0,0.0,0.0,0.0,0.0,0.0,0.0,0.0,0.0,0.0,0.0,0.0,0.0,0.0,0.0,0.0,0.0,0.0,0.0,0.0,0.0,0.0,0.0,0.0,0.0,0.0,0.0,0.0,0.0,0.0,0.0,0.0,0.0,0.0,0.0,0.0,0.0,0.0,0.0,0.0,0.0,0.0,0.0,0.0,0.0,0.0,0.0,0.0,0.0,0.0,0.0,0.0,0.0,0.0,0.0,0.0,0.0,0.0,0.0,0.0,0.0,0.0,0.0,0.0,0.0,0.0,0.0,0.0,0.0,0.0,0.0,0.0,0.0,0.0,0.0,0.0,0.0,0.0,0.0,0.0,0.0,0.0,0.0,0.0,0.0,0.0,0.0,0.0,0.0,0.0,0.0,0.0,0.0,0.0,0.0,0.0,0.0,0.0,0.0,0.0,0.0,0.0,0.0,0.0,0.0,0.0,0.0,0.0,0.0,0.0,0.0,0.0,0.0,0.0,0.0,0.0,0.0,0.0,0.0,0.0,0.0,0.0,0.0,0.0,0.0,0.0,0.0,0.0,0.0,0.0,0.0,0.0,0.0,0.0,0.0,0.0,0.0,0.0,0.0,0.0,0.0,0.0,0.0,0.0,0.0,0.0,0.0,0.0,0.0,0.0,0.0,0.0,0.0,0.0,0.0,0.0,0.0,0.0,0.0,0.0,0.0,0.0,0.0,0.0,0.0,0.0,0.0,0.0,0.0,0.0,0.0,0.0,0.0,0.0,0.0,0.0,0.0,0.0,0.0,0.0,0.0,0.0,0.0,0.0,0.0,0.0,0.0,0.0,0.0,0.0,0.0,0.0,0.0,0.0,0.0,0.0,0.0,0.0,0.0,0.0,0.0,0.0,0.0,0.0,0.0,0.0,0.0,0.0,0.0,0.0,0.0,0.0,0.0,0.0,0.0,0.0,0.0,0.0,0.0,0.0,0.0,0.0,0.0,0.0,0.0,0.0,0.0,0.0,0.0,0.0,0.0,0.0,0.0,0.0,0.0,0.0,0.0,0.0,0.0,0.0,0.0,0.0,0.0,0.0,0.0,0.0,0.0,0.0,0.0,0.0,0.0,0.0,0.0,0.0,0.0,0.0,0.0,0.0,0.0,0.0,0.0,0.0,0.0,0.0,0.0,0.0,0.0,0.0,0.0,0.0,0.0,0.0,0.0,0.0,0.0,0.0,0.0,0.0,0.0,0.0,0.0,0.0,0.0,0.0,0.0,0.0,0.0,0.0,0.0,0.0,0.0,0.0,0.0,0.0,0.0,0.0,0.0,0.0,0.0,0.0,0.0,0.0,0.0,0.0,0.0,0.0,0.0,0.0,0.0,0.0,0.0,0.0,0.0,0.0,0.0,0.0,0.0,0.0,0.0,0.0,0.0,0.0,0.0,0.0,0.0,0.0,0.0,0.0,0.0,0.0,0.0,0.0,0.0,0.0,0.0,0.0,0.0,0.0,0.0,0.0,0.0,0.0,0.0,0.0,0.0,0.0,0.0,0.0,0.0,0.0,0.0,0.0,0.0,0.0,0.0,0.0,0.0,0.0,0.0,0.0,0.0,0.0,0.0,0.0,0.0,0.0,0.0,0.0,0.0,0.0,0.0,0.0,0.0,0.0,0.0,0.0,0.0,0.0,0.0,0.0,0.0,0.0,0.0,0.0,0.0,0.0,0.0,0.0,0.0,0.0,0.0,0.0,0.0,0.0,0.0,0.0,0.0,0.0,0.0,0.0,0.0,0.0,0.0,0.0,0.0,0.0,0.0,0.0,0.0,0.0,0.0,0.0,0.0,0.0,0.0,0.0,0.0,0.0,0.0,0.0,0.0,0.0,0.0,0.0,0.0,0.0,0.0,0.0,0.0,0.0,0.0,0.0,0.0,0.0,0.0,0.0,0.0,0.0,0.0,0.0,0.0,0.0,0.0,0.0,0.0,0.0,0.0,0.0,0.0,0.0,0.0,0.0,0.0,0.0,0.0,0.0,0.0,0.0,0.0,0.0,0.0,0.0,0.0,0.0,0.0,0.0,0.0,0.0,0.0,0.0,0.0,0.0,0.0,0.0,0.0,0.0,0.0,0.0,0.0,0.0,0.0,0.0,0.0,0.0,0.0,0.0,0.0,0.0,0.0,0.0,0.0,0.0,0.0,0.0,0.0,0.0,0.0,0.0,0.0,0.0,0.0,0.0,0.0,0.0,0.0,0.0,0.0,0.0,0.0,0.0,0.0,0.0,0.0,0.0,0.0,0.0,0.0,0.0,0.0,0.0,0.0,0.0,0.0,0.0,0.0,0.0,0.0,0.0,0.0,0.0,0.0,0.0,0.0,0.0,0.0,0.0,0.0,0.0,0.0,0.0,0.0,0.0,0.0,0.0,0.0,0.0,0.0,0.0,0.0,0.0,0.0,0.0,0.0,0.0,0.0,0.0,0.0,0.0,0.0,0.0,0.0,0.0,0.0,0.0,0.0,0.0,0.0,0.0,0.0,0.0,0.0,0.0,0.0,0.0,0.0,0.0,0.0,0.0,0.0,0.0,0.0,0.0,0.0,0.0,0.0,0.0,0.0,0.0,0.0,0.0,0.0,0.0,0.0,0.0,0.0,0.0,0.0,0.0,0.0,0.0,0.0,0.0,0.0,0.0,0.0,0.0,0.0,0.0,0.0,0.0,0.0,0.0,0.0,0.0,0.0,0.0,3.5114,0.0,0.0,0.0,0.0,0.0,0.0,0.0,0.0,0.0,0.0,0.0,0.0,0.0,0.0,0.0,0.0,0.0,0.0,0.0,0.0,0.0,0.0,0.0,0.0,0.0,0.0,0.0,0.0,0.0,0.0,0.0,0.0,0.0,0.0,0.0,0.0,0.0,0.0,0.0,0.0,0.0,0.0,0.0,0.0,0.0,0.0,0.0,0.0,0.0,0.0,0.0,0.0,0.0,0.0,0.0,0.0,0.0,0.0,0.0,0.0,0.0,0.0,0.0,0.0,0.0,0.0,0.0,0.0,0.0,0.0,0.0,0.0,0.0,0.0,0.0,0.0,0.0,0.0,0.0,0.0,0.0,0.0,0.0,0.0,0.0,0.0,0.0,0.0,0.0,0.0,0.0,0.0,0.0,0.0,0.0,0.0,0.0,0.0,0.0,0.0,0.0,0.0,0.0,0.0,0.0,0.0,0.0,0.0,0.0,0.0,3.4799,3.4799,3.4799,3.486,3.4981,0.0,0.0,0.0,0.0,0.0,0.0,0.0,0.0,0.0,0.0,0.0,0.0,0.0,0.0,0.0,0.0,0.0,0.0,0.0,0.0,0.0,0.0,0.0,0.0,0.0,0.0,0.0,0.0,0.0,0.0,0.0,0.0,0.0,0.0,0.0,0.0,0.0,0.0,0.0,0.0,0.0,0.0,0.0,0.0,0.0,0.0,0.0,0.0,0.0,0.0,0.0,0.0,0.0,0.0,0.0,0.0,0.0,0.0,0.0,0.0,0.0,0.0,0.0,0.0,0.0,0.0,0.0,0.0,0.0,0.0,0.0,0.0,0.0,0.0,0.0,0.0,0.0,0.0,0.0,0.0,0.0,0.0,0.0,0.0,0.0,0.0,0.0,0.0,0.0,0.0,0.0,0.0,0.0,0.0,0.0,0.0,0.0,0.0,0.0,0.0,0.0,0.0,0.0,0.0,0.0,0.0,0.0,0.0,0.0,0.0,0.0,0.0,3.4799,3.4848,3.4969,0.0,0.0,0.0,0.0,0.0,0.0,0.0,0.0,0.0,0.0,0.0,0.0,0.0,0.0,0.0,0.0,0.0,0.0,0.0,0.0,0.0,0.0,0.0,0.0,0.0,0.0,0.0,0.0,0.0,0.0,0.0,0.0,0.0,0.0,0.0,0.0,0.0,0.0,0.0,0.0,0.0,0.0,0.0,0.0,0.0,0.0,0.0,0.0,0.0,0.0,0.0,0.0,0.0,0.0,0.0,0.0,0.0,0.0,0.0,0.0,0.0,0.0,0.0,0.0,0.0,0.0,0.0,0.0,0.0,0.0,0.0,0.0,0.0,0.0,0.0,0.0,0.0,0.0,0.0,0.0,0.0,0.0,0.0,0.0,0.0,0.0,0.0,0.0,0.0,0.0,0.0,0.0,0.0,0.0,0.0,0.0,0.0,0.0,0.0,0.0,0.0,0.0,0.0,0.0,0.0,0.0,0.0,0.0,0.0,0.0,3.4799,3.4799,3.4799,0.0,3.5488,0.0,0.0,0.0,0.0,0.0,0.0,0.0,0.0,0.0,0.0,0.0,0.0,0.0,0.0,0.0,0.0,0.0,0.0,0.0,0.0,0.0,0.0,0.0,0.0,0.0,0.0,0.0,0.0,0.0,0.0,0.0,0.0,0.0,0.0,0.0,0.0,0.0,0.0,0.0,0.0,0.0,0.0,0.0,0.0,0.0,0.0,0.0,0.0,0.0,0.0,0.0,0.0,0.0,0.0,0.0,0.0,0.0,0.0,0.0,0.0,0.0,0.0,0.0,0.0,0.0,0.0,0.0,0.0,0.0,0.0,0.0,0.0,0.0,0.0,0.0,0.0,0.0,0.0,0.0,0.0,0.0,0.0,0.0,0.0,0.0,0.0,0.0,0.0,0.0,0.0,0.0,0.0,0.0,0.0,0.0,0.0,0.0,0.0,0.0,0.0,0.0,0.0,0.0,0.0,0.0,0.0,0.0,0.0,0.0,0.0,3.4799,3.4799,3.4799,3.4969,0.0,0.0,0.0,0.0,0.0,0.0,0.0,0.0,0.0,0.0,0.0,0.0,0.0,0.0,0.0,0.0,0.0,0.0,0.0,0.0,0.0,0.0,0.0,0.0,0.0,0.0,0.0,0.0,0.0,0.0,0.0,0.0,0.0,0.0,0.0,0.0,0.0,0.0,0.0,0.0,0.0,0.0,0.0,0.0,0.0,0.0,0.0,0.0,0.0,0.0,0.0,0.0,0.0,0.0,0.0,0.0,0.0,0.0,0.0,0.0,0.0,0.0,0.0,0.0,0.0,0.0,0.0,0.0,0.0,0.0,0.0,0.0,0.0,0.0,0.0,0.0,0.0,0.0,0.0,0.0,0.0,0.0,0.0,0.0,0.0,0.0,0.0,0.0,0.0,0.0,0.0,0.0,0.0,0.0,0.0,0.0,0.0,0.0,0.0,0.0,0.0,0.0,0.0,0.0,0.0,0.0,0.0,0.0,0.0,0.0,3.4799,3.4799,3.4799,3.4799,3.4957,3.5308,0.0,0.0,0.0,0.0,0.0,0.0,0.0,0.0,0.0,0.0,0.0,0.0,0.0,0.0,0.0,0.0,0.0,0.0,0.0,0.0,0.0,0.0,0.0,0.0,0.0,0.0,0.0,0.0,0.0,0.0,0.0,0.0,0.0,0.0,0.0,0.0,0.0,0.0,0.0,0.0,0.0,0.0,0.0,0.0,0.0,0.0,0.0,0.0,0.0,0.0,0.0,0.0,0.0,0.0,0.0,0.0,0.0,0.0,0.0,0.0,0.0,0.0,0.0,0.0,0.0,0.0,0.0,0.0,0.0,0.0,0.0,0.0,0.0,0.0,0.0,0.0,0.0,0.0,0.0,0.0,0.0,0.0,0.0,0.0,0.0,0.0,0.0,0.0,0.0,0.0,0.0,0.0,0.0,0.0,0.0,0.0,0.0,0.0,0.0,0.0,0.0,0.0,0.0,0.0,0.0,0.0,0.0,0.0,3.4799,3.4799,3.4799,3.4799,3.4799,3.5042,0.0,0.0,0.0,0.0,0.0,0.0,0.0,0.0,0.0,0.0,0.0,0.0,0.0,0.0,0.0,0.0,0.0,0.0,0.0,0.0,0.0,0.0,0.0,0.0,0.0,0.0,0.0,0.0,0.0,0.0,0.0,0.0,0.0,0.0,0.0,0.0,0.0,0.0,0.0,0.0,0.0,0.0,0.0,0.0,0.0,0.0,0.0,0.0,0.0,0.0,0.0,0.0,0.0,0.0,0.0,0.0,0.0,0.0,0.0,0.0,0.0,0.0,0.0,0.0,0.0,0.0,0.0,0.0,0.0,0.0,0.0,0.0,0.0,0.0,0.0,0.0,0.0,0.0,0.0,0.0,0.0,0.0,0.0,0.0,0.0,0.0,0.0,0.0,0.0,0.0,0.0,0.0,0.0,0.0,0.0,0.0,0.0,0.0,0.0,0.0,0.0,0.0,0.0,0.0,0.0,0.0,0.0,0.0,0.0,3.4799,3.4799,3.4799,3.4799,3.4799,3.4981,0.0,0.0,0.0,0.0,0.0,0.0,0.0,0.0,0.0,0.0,0.0,0.0,0.0,0.0,0.0,0.0,0.0,0.0,0.0,0.0,0.0,0.0,0.0,0.0,0.0,0.0,0.0,0.0,0.0,0.0,0.0,0.0,0.0,0.0,0.0,0.0,0.0,0.0,0.0,0.0,0.0,0.0,0.0,0.0,0.0,0.0,0.0,0.0,0.0,0.0,0.0,0.0,0.0,0.0,0.0,0.0,0.0,0.0,0.0,0.0,0.0,0.0,0.0,0.0,0.0,0.0,0.0,0.0,0.0,0.0,0.0,0.0,0.0,0.0,0.0,0.0,0.0,0.0,0.0,0.0,0.0,0.0,0.0,0.0,0.0,0.0,0.0,0.0,0.0,0.0,0.0,0.0,0.0,0.0,0.0,0.0,0.0,0.0,0.0,0.0,0.0,0.0,0.0,0.0,0.0,0.0,0.0,0.0,0.0,3.4799,0.0,3.4884,3.4799,3.4884,3.5042,0.0,0.0,0.0,0.0,0.0,0.0,0.0,0.0,0.0,0.0,0.0,0.0,0.0,0.0,0.0,0.0,0.0,0.0,0.0,0.0,0.0,0.0,0.0,0.0,0.0,0.0,0.0,0.0,0.0,0.0,0.0,0.0,0.0,0.0,0.0,0.0,0.0,0.0,0.0,0.0,0.0,0.0,0.0,0.0,0.0,0.0,0.0,0.0,0.0,0.0,0.0,0.0,0.0,0.0,0.0,0.0,0.0,0.0,0.0,0.0,0.0,0.0,0.0,0.0,0.0,0.0,0.0,0.0,0.0,0.0,0.0,0.0,0.0,0.0,0.0,0.0,0.0,0.0,0.0,0.0,0.0,0.0,0.0,0.0,0.0,0.0,0.0,0.0,0.0,0.0,0.0,0.0,0.0,0.0,0.0,0.0,0.0,0.0,0.0,0.0,0.0,0.0,0.0,0.0,0.0,0.0,0.0,0.0,3.4823,3.4823,3.509,3.5163,3.4847,3.5139,3.5356,0.0,0.0,0.0,0.0,0.0,0.0,0.0,0.0,0.0,0.0,0.0,0.0,0.0,0.0,0.0,0.0,0.0,0.0,0.0,0.0,0.0,0.0,0.0,0.0,0.0,0.0,0.0,0.0,0.0,0.0,0.0,0.0,0.0,0.0,0.0,0.0,0.0,0.0,0.0,0.0,0.0,0.0,0.0,0.0,0.0,0.0,0.0,0.0,0.0,0.0,0.0,0.0,0.0,0.0,0.0,0.0,0.0,0.0,0.0,0.0,0.0,0.0,0.0,0.0,0.0,0.0,0.0,0.0,0.0,0.0,0.0,0.0,0.0,0.0,0.0,0.0,0.0,0.0,0.0,0.0,0.0,0.0,0.0,0.0,0.0,0.0,0.0,0.0,0.0,0.0,0.0,0.0,0.0,0.0,0.0,0.0,0.0,0.0,0.0,0.0,0.0,0.0,0.0,0.0,0.0,0.0,0.0,0.0,0.0,3.5376,3.6209,3.6491,3.6217,3.6491,3.6776,0.0,0.0,0.0,0.0,0.0,0.0,0.0,0.0,0.0,0.0,0.0,0.0,0.0,0.0,0.0,0.0,0.0,0.0,0.0,0.0,0.0,0.0,0.0,0.0,0.0,0.0,0.0,0.0,0.0,0.0,0.0,0.0,0.0,0.0,0.0,0.0,0.0,0.0,0.0,0.0,0.0,0.0,0.0,0.0,0.0,0.0,0.0,0.0,0.0,0.0,0.0,0.0,0.0,0.0,0.0,0.0,0.0,0.0,0.0,0.0,0.0,0.0,0.0,0.0,0.0,0.0,0.0,0.0,0.0,0.0,0.0,0.0,0.0,0.0,0.0,0.0,0.0,0.0,0.0,0.0,0.0,0.0,0.0,0.0,0.0,0.0,0.0,0.0,0.0,0.0,0.0,0.0,0.0,0.0,0.0,0.0,0.0,0.0,0.0,0.0,0.0,0.0,0.0,0.0,0.0,0.0,0.0,0.0,0.0,3.6571,3.7107,3.7281,3.6992,3.7268,3.7456,3.7593,0.0,0.0,0.0,0.0,0.0,0.0,0.0,0.0,0.0,0.0,0.0,0.0,0.0,0.0,0.0,0.0,0.0,0.0,0.0,0.0,0.0,0.0,0.0,0.0,0.0,0.0,0.0,0.0,0.0,0.0,0.0,0.0,0.0,0.0,0.0,0.0,0.0,0.0,0.0,0.0,0.0,0.0,0.0,0.0,0.0,0.0,0.0,0.0,0.0,0.0,0.0,0.0,0.0,0.0,0.0,0.0,0.0,0.0,0.0,0.0,0.0,0.0,0.0,0.0,0.0,0.0,0.0,0.0,0.0,0.0,0.0,0.0,0.0,0.0,0.0,0.0,0.0,0.0,0.0,0.0,0.0,0.0,0.0,0.0,0.0,0.0,0.0,0.0,0.0,0.0,0.0,0.0,0.0,0.0,0.0,0.0,0.0,0.0,0.0,0.0,0.0,0.0,0.0,0.0,0.0,0.0,0.0,0.0,3.8193,3.789,3.7642,3.743,3.7642,3.7717,0.0,0.0,0.0,0.0,0.0,0.0,0.0,0.0,0.0,0.0,0.0,0.0,0.0,0.0,0.0,0.0,0.0,0.0,0.0,0.0,0.0,0.0,0.0,0.0,0.0,0.0,0.0,0.0,0.0,0.0,0.0,0.0,0.0,0.0,0.0,0.0,0.0,0.0,0.0,0.0,0.0,0.0,0.0,0.0,0.0,0.0,0.0,0.0,0.0,0.0,0.0,0.0,0.0,0.0,0.0,0.0,0.0,0.0,0.0,0.0,0.0,0.0,0.0,0.0,0.0,0.0,0.0,0.0,0.0,0.0,0.0,0.0,0.0,0.0,0.0,0.0,0.0,0.0,0.0,0.0,0.0,0.0,0.0,0.0,0.0,0.0,0.0,0.0,0.0,0.0,0.0,0.0,0.0,0.0,0.0,0.0,0.0,0.0,0.0,0.0,0.0,0.0,0.0,0.0,0.0,0.0,0.0,0.0,0.0,3.9253,3.9192,3.9028,3.8784,3.9015,3.9143,0.0,0.0,0.0,0.0,0.0,0.0,0.0,0.0,0.0,0.0,0.0,0.0,0.0,0.0,0.0,0.0,0.0,0.0,0.0,0.0,0.0,0.0,0.0,0.0,0.0,0.0,0.0,0.0,0.0,0.0,0.0,0.0,0.0,0.0,0.0,0.0,0.0,0.0,0.0,0.0,0.0,0.0,0.0,0.0,0.0,0.0,0.0,0.0,0.0,0.0,0.0,0.0,0.0,0.0,0.0,0.0,0.0,0.0,0.0,0.0,0.0,0.0,0.0,0.0,0.0,0.0,0.0,0.0,0.0,0.0,0.0,0.0,0.0,0.0,0.0,0.0,0.0,0.0,0.0,0.0,0.0,0.0,0.0,0.0,0.0,0.0,0.0,0.0,0.0,0.0,0.0,0.0,0.0,0.0,0.0,0.0,0.0,0.0,0.0,0.0,0.0,0.0,0.0,0.0,0.0,0.0,0.0,0.0,3.9017,3.9672,3.971,3.9633,3.9477,3.9633,3.971,0.0,0.0,0.0,0.0,0.0,0.0,0.0,0.0,0.0,0.0,0.0,0.0,0.0,0.0,0.0,0.0,0.0,0.0,0.0,0.0,0.0,0.0,0.0,0.0,0.0,0.0,0.0,0.0,0.0,0.0,0.0,0.0,0.0,0.0,0.0,0.0,0.0,0.0,0.0,0.0,0.0,0.0,0.0,0.0,0.0,0.0,0.0,0.0,0.0,0.0,0.0,0.0,0.0,0.0,0.0,0.0,0.0,0.0,0.0,0.0,0.0,0.0,0.0,0.0,0.0,0.0,0.0,0.0,0.0,0.0,0.0,0.0,0.0,0.0,0.0,0.0,0.0,0.0,0.0,0.0,0.0,0.0,0.0,0.0,0.0,0.0,0.0,0.0,0.0,0.0,0.0,0.0,0.0,0.0,0.0,0.0,0.0,0.0,0.0,0.0,0.0,0.0,0.0,0.0,0.0,0.0,0.0,0.0,3.9208,3.9672,3.971,3.971,3.971,3.971,3.971,0.0,0.0,0.0,0.0,0.0,0.0,0.0,0.0,0.0,0.0,0.0,0.0,0.0,0.0,0.0,0.0,0.0,0.0,0.0,0.0,0.0,0.0,0.0,0.0,0.0,0.0,0.0,0.0,0.0,0.0,0.0,0.0,0.0,0.0,0.0,0.0,0.0,0.0,0.0,0.0,0.0,0.0,0.0,0.0,0.0,0.0,0.0,0.0,0.0,0.0,0.0,0.0,0.0,0.0,0.0,0.0,0.0,0.0,0.0,0.0,0.0,0.0,0.0,0.0,0.0,0.0,0.0,0.0,0.0,0.0,0.0,0.0,0.0,0.0,0.0,0.0,0.0,0.0,0.0,0.0,0.0,0.0,0.0,0.0,0.0,0.0,0.0,0.0,0.0,0.0,0.0,0.0,0.0,0.0,0.0,0.0,0.0,0.0,0.0,0.0,0.0,0.0,0.0,0.0,0.0,0.0,0.0,0.0,3.9584,3.9697,3.971,3.971,3.971,3.971,3.971,0.0,0.0,0.0,0.0,0.0,0.0,0.0,0.0,0.0,0.0,0.0,0.0,0.0,0.0,0.0,0.0,0.0,0.0,0.0,0.0,0.0,0.0,0.0,0.0,0.0,0.0,0.0,0.0,0.0,0.0,0.0,0.0,0.0,0.0,0.0,0.0,0.0,0.0,0.0,0.0,0.0,0.0,0.0,0.0,0.0,0.0,0.0,0.0,3.962,0.0,0.0,0.0,0.0,0.0,0.0,0.0,0.0,0.0,0.0,0.0,0.0,0.0,0.0,0.0,0.0,0.0,0.0,0.0,0.0,0.0,0.0,0.0,0.0,0.0,0.0,0.0,0.0,0.0,0.0,0.0,0.0,0.0,0.0,0.0,0.0,0.0,0.0,0.0,0.0,0.0,0.0,0.0,0.0,0.0,0.0,0.0,0.0,0.0,0.0,0.0,0.0,0.0,0.0,0.0,0.0,0.0,0.0,0.0,3.971,3.971,3.971,3.971,3.971,3.971,3.971,0.0,0.0,0.0,0.0,0.0,0.0,0.0,0.0,0.0,0.0,0.0,0.0,0.0,0.0,0.0,0.0,0.0,0.0,0.0,0.0,0.0,0.0,0.0,0.0,0.0,0.0,0.0,0.0,0.0,0.0,0.0,0.0,0.0,0.0,0.0,0.0,0.0,0.0,0.0,0.0,0.0,0.0,0.0,0.0,0.0,0.0,0.0,0.0,0.0,0.0,0.0,0.0,0.0,0.0,0.0,0.0,0.0,0.0,0.0,0.0,0.0,0.0,0.0,0.0,0.0,0.0,0.0,0.0,0.0,0.0,0.0,0.0,0.0,0.0,0.0,0.0,0.0,0.0,0.0,0.0,0.0,0.0,0.0,0.0,0.0,0.0,0.0,0.0,0.0,0.0,0.0,0.0,0.0,0.0,0.0,0.0,0.0,0.0,0.0,0.0,0.0,0.0,0.0,0.0,0.0,0.0,0.0,3.971,3.971,3.971,3.971,3.971,3.971,3.971,3.971,3.971,0.0,0.0,0.0,0.0,0.0,0.0,0.0,0.0,0.0,0.0,0.0,0.0,0.0,0.0,0.0,0.0,0.0,0.0,0.0,0.0,0.0,0.0,0.0,0.0,0.0,0.0,0.0,0.0,0.0,0.0,0.0,0.0,0.0,0.0,0.0,0.0,0.0,0.0,3.9349,3.9543,0.0,0.0,0.0,0.0,0.0,0.0,0.0,0.0,3.971,0.0,0.0,0.0,0.0,0.0,0.0,0.0,0.0,0.0,0.0,0.0,0.0,0.0,0.0,0.0,0.0,0.0,0.0,0.0,0.0,0.0,0.0,0.0,0.0,0.0,0.0,0.0,0.0,0.0,0.0,0.0,0.0,0.0,0.0,0.0,0.0,0.0,0.0,0.0,0.0,0.0,0.0,0.0,0.0,0.0,0.0,0.0,0.0,0.0,0.0,0.0,0.0,0.0,0.0,0.0,0.0,3.971,3.971,3.971,3.971,3.971,3.971,3.971,3.971,3.971,3.971,0.0,0.0,0.0,0.0,0.0,0.0,0.0,0.0,0.0,0.0,0.0,0.0,0.0,0.0,0.0,0.0,0.0,0.0,0.0,0.0,0.0,0.0,0.0,0.0,0.0,0.0,0.0,0.0,0.0,0.0,0.0,0.0,0.0,0.0,0.0,0.0,0.0,0.0,0.0,3.9671,3.971,0.0,0.0,0.0,0.0,0.0,0.0,0.0,0.0,3.971,0.0,0.0,0.0,0.0,0.0,0.0,0.0,0.0,0.0,0.0,0.0,0.0,0.0,0.0,0.0,0.0,0.0,0.0,0.0,0.0,0.0,0.0,0.0,0.0,0.0,0.0,0.0,0.0,0.0,0.0,0.0,0.0,0.0,0.0,0.0,0.0,0.0,0.0,0.0,0.0,0.0,0.0,0.0,0.0,0.0,0.0,0.0,0.0,0.0,0.0,0.0,0.0,0.0,0.0,0.0,3.971,3.971,3.971,3.971,3.971,3.971,3.971,3.971,3.971,0.0,0.0,0.0,0.0,0.0,0.0,0.0,0.0,0.0,0.0,0.0,0.0,0.0,0.0,0.0,0.0,0.0,0.0,0.0,0.0,0.0,0.0,0.0,0.0,0.0,0.0,0.0,0.0,0.0,0.0,0.0,0.0,0.0,0.0,0.0,0.0,0.0,0.0,0.0,0.0,3.971,3.971,3.971,0.0,0.0,0.0,0.0,0.0,0.0,3.971,3.971,0.0,0.0,0.0,0.0,0.0,0.0,0.0,0.0,0.0,0.0,0.0,0.0,0.0,0.0,0.0,0.0,0.0,0.0,0.0,0.0,0.0,0.0,0.0,0.0,0.0,0.0,0.0,0.0,0.0,0.0,0.0,0.0,0.0,0.0,0.0,0.0,0.0,0.0,0.0,0.0,0.0,0.0,0.0,0.0,0.0,0.0,0.0,0.0,0.0,0.0,0.0,0.0,0.0,0.0,0.0,4.0006,4.0211,4.0211,4.0019,4.0006,3.9904,3.9723,3.9891,3.9916,0.0,0.0,0.0,0.0,0.0,0.0,0.0,0.0,0.0,0.0,0.0,0.0,0.0,0.0,0.0,0.0,0.0,0.0,0.0,0.0,0.0,0.0,0.0,0.0,0.0,0.0,0.0,0.0,0.0,0.0,0.0,0.0,0.0,0.0,0.0,0.0,0.0,0.0,0.0,0.0,0.0,3.971,3.971,3.971,0.0,0.0,0.0,0.0,3.971,3.971,0.0,0.0,0.0,0.0,0.0,0.0,0.0,0.0,0.0,0.0,0.0,0.0,0.0,0.0,0.0,0.0,0.0,0.0,0.0,0.0,0.0,0.0,0.0,0.0,0.0,0.0,0.0,0.0,0.0,0.0,0.0,0.0,0.0,0.0,0.0,0.0,0.0,0.0,0.0,0.0,0.0,0.0,0.0,0.0,0.0,0.0,0.0,0.0,0.0,0.0,0.0,0.0,0.0,0.0,0.0,0.0,4.107,4.1963,4.1987,4.1082,4.1033,4.0592,3.9749,4.0567,4.0604,0.0,0.0,0.0,0.0,0.0,0.0,0.0,0.0,0.0,0.0,0.0,0.0,0.0,0.0,0.0,0.0,0.0,0.0,0.0,0.0,0.0,0.0,0.0,0.0,0.0,0.0,0.0,0.0,0.0,0.0,0.0,0.0,0.0,0.0,0.0,0.0,0.0,0.0,0.0,0.0,0.0,3.971,3.971,3.971,3.971,0.0,0.0,3.971,3.971,3.971,0.0,0.0,0.0,0.0,0.0,0.0,0.0,0.0,0.0,0.0,0.0,0.0,0.0,0.0,0.0,0.0,0.0,0.0,0.0,0.0,0.0,0.0,0.0,0.0,0.0,0.0,0.0,0.0,0.0,0.0,0.0,0.0,0.0,0.0,0.0,0.0,0.0,0.0,0.0,0.0,0.0,0.0,0.0,0.0,0.0,0.0,0.0,0.0,0.0,0.0,0.0,0.0,0.0,0.0,0.0,4.092,4.0427,4.1963,4.2294,4.1269,4.1803,4.1889,4.1482,4.1877,4.1617,0.0,0.0,0.0,0.0,0.0,0.0,0.0,0.0,0.0,0.0,0.0,0.0,0.0,0.0,0.0,0.0,0.0,0.0,0.0,0.0,0.0,0.0,0.0,0.0,0.0,0.0,0.0,0.0,0.0,0.0,0.0,0.0,0.0,0.0,0.0,0.0,0.0,0.0,0.0,0.0,0.0,0.0,3.971,3.971,0.0,0.0,0.0,3.9798,4.0124,0.0,0.0,0.0,0.0,0.0,0.0,0.0,0.0,0.0,0.0,0.0,0.0,0.0,0.0,0.0,0.0,0.0,0.0,0.0,0.0,0.0,0.0,0.0,0.0,0.0,0.0,0.0,0.0,0.0,0.0,0.0,0.0,0.0,0.0,0.0,0.0,0.0,0.0,0.0,0.0,0.0,0.0,0.0,0.0,0.0,0.0,0.0,0.0,0.0,0.0,0.0,0.0,0.0,0.0,0.0,0.0,0.0,4.0529,4.266,4.33,4.2287,4.3009,4.3315,4.3045,4.3127,0.0,0.0,0.0,0.0,0.0,0.0,0.0,0.0,0.0,0.0,0.0,0.0,0.0,0.0,0.0,0.0,0.0,0.0,0.0,0.0,0.0,0.0,0.0,0.0,0.0,0.0,0.0,3.971,0.0,0.0,0.0,0.0,0.0,0.0,0.0,0.0,0.0,0.0,0.0,0.0,0.0,0.0,4.0211,4.0658,4.0696,4.0645,0.0,0.0,4.0563,4.0678,4.07,4.0826,0.0,0.0,0.0,0.0,0.0,0.0,0.0,0.0,0.0,0.0,0.0,0.0,0.0,0.0,0.0,0.0,0.0,0.0,0.0,0.0,0.0,0.0,0.0,0.0,0.0,0.0,0.0,0.0,0.0,0.0,0.0,0.0,0.0,0.0,0.0,0.0,0.0,0.0,0.0,0.0,0.0,0.0,0.0,0.0,0.0,0.0,0.0,0.0,0.0,0.0,0.0,0.0,0.0,0.0,4.2647,4.2698,4.5214,4.6019,4.5068,4.5104,4.4645,4.3692,4.4002,4.3285,0.0,0.0,0.0,0.0,0.0,0.0,0.0,0.0,0.0,0.0,0.0,0.0,0.0,0.0,0.0,0.0,0.0,0.0,0.0,0.0,0.0,0.0,0.0,0.0,0.0,0.0,0.0,0.0,0.0,0.0,0.0,0.0,0.0,0.0,0.0,0.0,0.0,0.0,0.0,0.0,0.0,4.1666,4.3231,4.3421,4.3288,0.0,4.2788,4.2423,4.1426,4.1252,4.1264,4.1302,0.0,0.0,0.0,0.0,0.0,0.0,0.0,0.0,0.0,0.0,0.0,0.0,0.0,0.0,0.0,0.0,0.0,0.0,0.0,0.0,0.0,0.0,0.0,0.0,0.0,0.0,0.0,0.0,0.0,0.0,0.0,0.0,0.0,0.0,0.0,0.0,0.0,0.0,0.0,0.0,0.0,0.0,0.0,0.0,0.0,0.0,0.0,0.0,0.0,0.0,0.0,0.0,0.0,4.3591,4.2977,4.5881,4.6895,4.5922,4.6505,4.6636,4.6238,4.6378,4.5786,0.0,0.0,0.0,0.0,0.0,0.0,0.0,0.0,0.0,0.0,0.0,0.0,0.0,0.0,0.0,0.0,0.0,0.0,0.0,0.0,0.0,0.0,0.0,0.0,0.0,0.0,0.0,0.0,3.971,3.971,3.971,0.0,0.0,0.0,0.0,0.0,0.0,0.0,0.0,0.0,0.0,4.3585,4.4226,4.433,0.0,0.0,4.4062,4.4031,4.3912,4.3283,4.2986,4.3347,4.2827,0.0,0.0,0.0,0.0,0.0,0.0,0.0,0.0,0.0,0.0,0.0,0.0,0.0,0.0,0.0,0.0,0.0,0.0,0.0,0.0,0.0,0.0,0.0,0.0,0.0,0.0,0.0,0.0,0.0,0.0,0.0,0.0,0.0,0.0,0.0,0.0,0.0,0.0,0.0,0.0,0.0,0.0,0.0,0.0,0.0,0.0,0.0,0.0,0.0,0.0,0.0,0.0,4.4692,4.3999,4.6692,4.7711,4.6971,4.7688,4.8072,4.8043,4.7881,4.7276,0.0,0.0,0.0,0.0,0.0,0.0,0.0,0.0,0.0,0.0,0.0,0.0,0.0,0.0,0.0,0.0,0.0,0.0,0.0,0.0,0.0,0.0,0.0,0.0,0.0,0.0,0.0,0.0,3.971,3.971,3.971,0.0,0.0,0.0,0.0,0.0,0.0,0.0,0.0,0.0,0.0,4.5447,4.595,4.5742,4.5423,4.5197,4.4907,4.4761,4.4957,4.4692,4.4662,4.5265,0.0,0.0,0.0,0.0,0.0,0.0,0.0,0.0,0.0,0.0,0.0,0.0,0.0,0.0,0.0,0.0,0.0,0.0,0.0,0.0,0.0,0.0,0.0,0.0,0.0,0.0,0.0,3.8517,0.0,0.0,3.902,0.0,0.0,0.0,0.0,0.0,0.0,0.0,0.0,0.0,0.0,0.0,0.0,0.0,0.0,0.0,0.0,0.0,0.0,0.0,0.0,0.0,0.0,4.6155,4.6155,4.78,4.8675,4.8627,4.8675,4.8699,4.867,4.813,4.7316,4.6288,0.0,0.0,0.0,0.0,0.0,0.0,0.0,0.0,0.0,0.0,0.0,0.0,0.0,0.0,0.0,0.0,0.0,0.0,0.0,0.0,0.0,0.0,0.0,0.0,0.0,0.0,3.971,3.971,3.9735,0.0,0.0,0.0,0.0,0.0,0.0,0.0,0.0,0.0,4.6461,4.6718,4.7166,4.8749,4.8075,4.7179,4.6431,4.5489,4.4621,4.4162,4.5122,4.6159,0.0,0.0,0.0,0.0,0.0,0.0,0.0,0.0,0.0,0.0,0.0,0.0,0.0,0.0,0.0,0.0,0.0,0.0,0.0,0.0,0.0,0.0,0.0,0.0,0.0,0.0,0.0,4.0074,4.0468,0.0,0.0,0.0,0.0,0.0,0.0,0.0,0.0,0.0,0.0,0.0,4.3224,4.4917,0.0,0.0,0.0,0.0,0.0,0.0,0.0,0.0,0.0,0.0,0.0,0.0,4.7403,4.7453,4.871,4.9349,4.9361,4.9361,4.9361,4.9361,4.917,4.8695,4.7872,0.0,0.0,0.0,0.0,0.0,0.0,0.0,0.0,0.0,0.0,0.0,0.0,0.0,0.0,0.0,0.0,0.0,0.0,0.0,0.0,0.0,0.0,0.0,0.0,0.0,3.971,0.0,0.0,0.0,0.0,0.0,0.0,0.0,0.0,0.0,0.0,0.0,4.6443,4.7521,4.8931,4.9885,5.0009,5.0413,5.0498,0.0,0.0,0.0,0.0,0.0,0.0,0.0,0.0,0.0,0.0,0.0,0.0,0.0,0.0,5.065,4.9047,4.8362,4.823,4.8864,0.0,0.0,0.0,0.0,0.0,0.0,0.0,0.0,0.0,0.0,0.0,0.0,0.0,0.0,4.1935,4.2343,4.2058,0.0,0.0,0.0,0.0,0.0,0.0,0.0,0.0,4.5079,4.5269,4.5449,4.6888,4.7147,4.646,4.7561,4.7592,0.0,0.0,0.0,0.0,0.0,0.0,0.0,0.0,4.9257,4.9282,4.9989,5.0378,5.0378,5.0158,5.0042,5.0054,4.9809,4.9507,4.9047,4.9047,4.8584,0.0,0.0,0.0,0.0,0.0,0.0,0.0,0.0,0.0,0.0,0.0,0.0,0.0,0.0,0.0,0.0,0.0,0.0,0.0,0.0,0.0,0.0,0.0,4.1016,0.0,0.0,0.0,0.0,0.0,0.0,0.0,0.0,0.0,4.6172,4.7206,4.8352,4.9335,5.0715,5.1531,5.1354,0.0,0.0,0.0,0.0,0.0,0.0,0.0,5.1078,5.1489,5.1244,5.0995,5.106,5.1866,5.2497,5.2395,0.0,0.0,5.123,5.0458,5.0304,5.0979,5.1014,5.0981,5.108,5.1411,5.1634,0.0,0.0,0.0,0.0,4.5132,0.0,0.0,0.0,4.4972,4.4641,0.0,4.3294,0.0,0.0,0.0,0.0,4.5347,4.5376,0.0,0.0,4.7593,4.7993,4.8537,4.8347,4.8699,4.9451,4.8996,4.9167,4.9914,4.9131,0.0,0.0,0.0,0.0,0.0,0.0,5.1617,5.1534,5.1547,5.1588,5.1559,5.1017,5.0739,5.071,5.01,4.978,4.9722,4.9722,4.8964,4.7402,4.8222,0.0,0.0,0.0,0.0,0.0,0.0,0.0,0.0,0.0,0.0,0.0,0.0,0.0,0.0,0.0,0.0,0.0,0.0,0.0,0.0,4.2734,0.0,0.0,0.0,0.0,0.0,0.0,0.0,0.0,0.0,0.0,4.8386,4.8214,4.918,5.1834,0.0,0.0,0.0,0.0,5.1184,5.1005,5.0005,4.9556,5.0084,5.1303,5.237,5.2966,0.0,0.0,5.4871,5.5049,5.5138,5.4896,5.5049,5.5059,5.4369,5.3076,5.2746,5.4318,5.3854,5.3563,5.4563,5.4836,5.5079,4.6443,0.0,0.0,0.0,0.0,4.5632,4.5801,4.6311,4.5598,4.5573,4.6079,4.5807,0.0,0.0,0.0,0.0,0.0,0.0,4.7877,4.8299,4.8459,4.878,4.9238,4.9361,4.9581,4.9914,4.9758,4.9737,4.9832,5.0037,5.0055,4.9943,0.0,0.0,0.0,0.0,5.1617,5.1617,5.1617,5.1617,5.1588,5.1427,5.134,5.134,5.1137,5.0859,5.0448,5.0419,4.9964,4.903,4.9262,0.0,0.0,0.0,0.0,0.0,0.0,0.0,0.0,0.0,0.0,0.0,0.0,0.0,0.0,0.0,0.0,0.0,0.0,0.0,4.1506,4.3981,4.5079,0.0,0.0,0.0,0.0,0.0,0.0,0.0,0.0,0.0,5.1493,5.1593,5.198,0.0,0.0,5.3411,5.3136,5.3635,5.3837,5.3317,5.336,0.0,5.3655,5.3868,5.4136,5.4522,5.5338,5.6047,5.6375,5.6504,5.6543,5.6452,5.6504,5.6496,5.6303,5.5598,5.5209,5.5675,5.5835,5.6014,5.6344,5.6517,5.6526,4.9021,4.7479,4.7609,4.7678,4.7592,4.6983,4.7141,4.7814,4.7186,4.7294,4.7848,4.7848,4.7989,4.8253,4.8162,0.0,0.0,0.0,4.8885,4.9243,4.9358,4.9685,5.0199,5.049,5.0757,5.0939,5.0998,5.0945,5.0786,5.1054,5.1304,5.1477,0.0,5.1639,5.1991,5.2239,5.2356,5.2356,5.2356,5.2356,5.2356,5.2136,5.1862,5.1617,5.1617,5.1427,5.1062,5.1062,5.0859,5.0465,5.0216,4.9913,0.0,0.0,0.0,0.0,0.0,0.0,0.0,0.0,0.0,0.0,0.0,4.3128,4.2644,0.0,0.0,0.0,4.3424,4.3835,4.4707,4.6423,0.0,0.0,0.0,0.0,0.0,0.0,0.0,5.1925,5.2812,5.3347,5.3359,5.3955,5.4174,5.3665,5.3952,5.4221,5.4366,0.0,5.5508,5.5359,5.5688,5.597,5.597,5.5799,5.5777,5.5944,5.6269,5.6628,5.7004,5.7094,5.7094,5.7094,5.7094,5.7094,5.7094,5.7004,5.6838,5.6628,5.6838,5.7094,5.7094,5.7094,5.7094,5.1355,5.1289,5.0103,4.9546,4.9456,4.9426,4.9438,4.9468,4.9426,4.9468,4.9468,4.9456,4.9468,4.9516,4.9349,0.0,4.9246,4.9246,4.9706,5.0416,5.0446,5.0757,5.1385,5.1732,5.2024,5.2246,5.2363,5.2412,5.238,5.2226,5.2292,5.2646,5.2694,5.2681,5.2701,5.3197,5.3487,5.3487,5.3487,5.3487,5.3487,5.2962,5.2368,5.1775,5.1733,5.1746,5.1688,5.1688,5.1646,5.1588,5.1062,5.0768,5.0768,0.0,0.0,0.0,0.0,0.0,0.0,0.0,0.0,0.0,0.0,0.0,0.0,0.0,0.0,0.0,4.7133,0.0,4.9844,4.9433,0.0,0.0,0.0,5.0671,5.2286,5.2731,5.2939,5.2986,0.0,0.0,5.4418,5.5521,5.582,5.4568,5.4448,5.488,5.6102,5.6239,5.6492,5.6915,5.7064,5.7094,5.6974,5.6991,5.6978,5.7094,5.7197,5.7227,5.7317,5.7334,5.7274,5.7334,5.7287,5.7317,5.7274,5.7769,5.7965,5.7393,5.7317,5.7304,5.7377,5.7363,5.7393,5.2725,5.2707,5.2378,5.1678,5.0739,5.0739,5.075,5.0739,5.0739,5.0739,5.075,5.0739,5.102,5.154,5.2001,5.2187,5.2187,5.2187,5.2288,5.2498,5.2498,5.2588,5.2737,5.2826,5.2807,5.266,5.2686,5.2586,5.2442,5.2868,5.3116,5.3199,5.3477,5.3477,5.331,5.3429,5.3487,5.3487,5.3487,5.3487,5.3487,5.3342,5.3197,5.3039,5.3052,5.2833,5.2381,5.2365,5.2136,5.163,5.1456,5.1398,5.1369,5.0784,0.0,0.0,0.0,0.0,0.0,0.0,0.0,0.0,0.0,4.6522,4.6167,0.0,4.6882,0.0,4.949,5.0277,4.8742,5.0559,0.0,0.0,5.1708,5.2334,5.2925,5.353,5.4062,5.4583,5.5273,5.588,5.6346,5.6675,5.6778,5.6436,5.6406,5.6526,5.6868,5.6898,5.6928,5.7107,5.7154,5.7094,5.7154,5.7094,5.7304,5.7769,5.7859,5.8038,5.853,5.862,5.862,5.862,5.862,5.862,5.859,5.8756,5.8786,5.865,5.862,5.862,5.862,5.862,5.862,5.4084,5.4084,5.4097,5.3653,5.2953,5.2336,5.2097,5.2097,5.2097,5.2097,5.2097,5.2085,5.2276,5.2677,5.3037,5.3198,5.3198,5.3198,5.3198,5.3198,5.3198,5.3198,5.3216,5.3516,5.3549,5.3431,5.3729,5.3736,5.3503,5.3845,5.393,5.3815,5.3972,5.3993,5.3867,5.3605,5.3487,5.3487,5.3487,5.3487,5.3487,5.3487,5.3487,5.3487,5.3487,5.3355,5.3007,5.302,5.2833,5.2472,5.2181,5.21,5.2215,5.1616,5.1325,0.0,0.0,0.0,0.0,0.0,0.0,0.0,0.0,0.0,0.0,0.0,4.9746,4.9959,5.1475,5.1815,5.0312,5.1874,5.2852,5.2528,5.3037,5.3714,5.4473,5.4862,5.5341,5.597,5.6389,5.6718,5.7064,5.7363,5.7543,5.7543,5.7812,5.7872,5.759,5.7543,5.7663,5.7932,5.7992,5.7992,5.7979,5.7992,5.8112,5.8457,5.8547,5.8667,5.9039,5.9099,5.9099,5.9099,5.9099,5.9099,5.9099,5.9099,5.9099,5.9099,5.9099,5.9099,5.9099,5.9099,5.9099,5.5281,5.5222,5.5222,5.5222,5.5114,5.3935,5.3468,5.3468,5.3456,5.3456,5.3468,5.3456,5.3456,5.3456,5.3456,5.3456,5.3468,5.3468,5.3456,5.3456,5.3468,5.3468,5.3498,5.4042,5.4329,5.4371,5.4922,5.5108,5.4854,5.4854,5.4709,5.4419,5.4381,5.4355,5.4329,5.3954,5.3666,5.354,5.35,5.3487,5.3487,5.3487,5.3487,5.3487,5.3514,5.354,5.3569,5.3579,5.3592,5.3592,5.3095,5.292,5.3138,5.2536,5.2281,0.0,5.2442,0.0,0.0,0.0,0.0,0.0,0.0,0.0,0.0,5.2388,5.2734,5.2487,5.3007,5.3238,5.2993,5.3321,5.3815,5.4371,5.4508,5.5029,5.6162,5.6312,5.6539,5.7154,5.7257,5.7244,5.7423,5.7889,5.8234,5.8278,5.8637,5.8786,5.8367,5.8248,5.8427,5.9026,5.9099,5.8949,5.8979,5.9039,5.9039,5.9069,5.9069,5.9099,5.9099,5.9189,5.9262,5.9249,5.9398,5.9428,5.9368,5.9385,5.9398,5.9458,5.9488,5.9398,5.9159,5.9099,5.9129,5.5713,5.5222,5.5222,5.5222,5.5179,5.4922,5.4832,5.4832,5.4832,5.4803,5.4832,5.4832,5.4832,5.4832,5.4832,5.4832,5.4832,5.4832,5.482,5.4803,5.4832,5.4803,5.4832,5.4952,5.5012,5.4999,5.5132,5.5166,5.5146,5.5146,5.5078,5.5027,5.4811,5.4696,5.4713,0.0,0.0,0.0,5.3605,5.3487,5.3487,5.3487,5.3487,5.35,5.371,0.0,5.3841,5.4019,5.4149,5.4149,5.4031,0.0,0.0,0.0,0.0,0.0,0.0,0.0,0.0,0.0,0.0,0.0,5.306,5.3149,5.2603,5.2895,5.3003,5.2776,5.3498,5.3987,5.3968,5.4987,5.5683,5.582,5.6239,5.6645,5.6928,5.6928,5.7184,5.7829,5.7905,5.8128,5.859,5.8846,5.8919,5.8876,5.8996,5.9069,5.8936,5.8876,5.8949,5.9099,5.9189,5.9159,5.9099,5.9159,5.9249,5.9099,5.9099,5.9159,5.9219,5.9608,5.9891,5.9921,6.037,6.0701,6.0701,6.0731,6.0641,6.0731,6.0701,6.0402,5.9338,5.9129,5.9249,5.6449,5.6137,5.6137,5.6149,0.0,5.6149,5.6149,5.6077,5.5461,5.5222,5.5222,5.5222,5.5222,5.5222,5.5222,5.5222,5.5222,5.5222,5.5222,5.5222,5.5222,5.5222,5.5222,5.5222,5.5222,5.5222,5.5521,5.5683,5.5713,5.6,5.6119,5.6137,5.5995,5.5931,5.5931,5.5955,5.5709,5.5109,5.4964,5.4818,5.4685,5.4818,5.4831,5.4685,5.4921,0.0,0.0,0.0,0.0,0.0,0.0,0.0,0.0,5.4243,0.0,5.4268,5.3966,5.3775,5.3788,5.3788,5.3826,5.398,5.4614,5.4704,5.4052,5.41,5.4274,5.4465,5.4936,5.5299,5.5628,5.6226,5.6641,5.6658,5.6928,5.7214,5.753,5.7603,5.7859,5.8457,5.8577,5.8726,5.9069,5.9099,5.9099,5.9129,5.9412,5.9621,5.9561,5.9308,5.9189,5.9561,5.9907,6.0103,6.0073,6.0073,6.0073,6.0073,6.0073,6.0073,6.0073,6.0386,6.0581,6.0625,6.088,6.109,6.109,6.109,6.109,6.109,6.109,6.094,6.0206,6.0086,6.0176,5.7214,5.7094,5.7094,5.7094,5.7094,5.7094,5.7094,5.7004,5.6,0.0,0.0,5.5551,5.5551,5.5538,5.5538,5.5551,5.5551,5.5551,5.5521,5.5508,5.5551,5.5538,5.5551,5.5521,5.5538,5.5581,5.6102,5.6372,5.6372,5.6868,5.7094,5.7094,5.7094,5.7167,5.7261,5.705,5.6915,5.6791,5.6464,5.6185,5.5957,5.6172,5.6185,5.5973,5.6225,5.6372,5.6372,5.6425,5.6189,5.5657,5.5627,5.5495,5.5223,5.5206,5.5309,5.5495,5.5551,5.5538,5.5551,5.5551,5.5521,5.5551,5.6042,5.6119,5.5581,5.5538,5.576,5.6299,5.6372,5.6551,5.7034,5.7214,5.7274,5.7274,5.7393,5.7693,5.8188,5.8278,5.8487,5.8996,5.9189,5.9279,5.9308,5.9415,5.9444,5.9548,5.9967,6.028,6.022,5.9877,5.9757,6.022,6.0655,6.103,6.109,6.103,6.109,6.1,6.103,6.109,6.112,6.121,6.1269,6.1269,6.1419,6.1658,6.1658,6.1898,6.1764,6.1808,6.1808,6.1764,6.1808,6.1808,6.1718,5.7649,5.7094,5.7094,5.7094,5.7094,5.7094,5.7094,5.7064,5.6915,5.6838,5.6825,5.6838,5.6838,5.6825,5.6838,5.6825,5.6825,5.6825,5.6838,5.6838,5.6838,5.6825,5.6838,5.6838,5.6825,5.6838,5.6958,5.6987,5.6987,5.7077,5.7094,5.7124,5.7094,5.738,5.7905,5.7939,5.8168,5.8649,5.7108,5.6279,5.6239,5.6279,5.6279,5.6265,5.6535,5.6621,5.6664,5.6875,5.6947,5.6857,5.6827,5.6823,5.6803,5.673,5.6786,5.6825,5.6825,5.6825,5.6825,5.6838,5.6825,5.6838,5.6928,5.6928,5.6825,5.6825,5.6855,5.6974,5.6974,5.7017,5.7137,5.762,5.7979,5.7995,5.8457,5.8846,5.8936,5.8966,5.9009,5.9175,5.9621,5.998,5.9997,6.0416,6.0701,6.0791,6.0894,6.1014,6.1074,6.088,6.0851,6.094,6.103,6.109,6.1299,6.112,6.1299,6.109,6.1269,6.1419,6.1449,6.1822,6.2121,6.2002,6.2839,6.3408,6.3528,6.4082,6.4127,6.4157,6.4141,6.4187,6.4127,6.4157,6.3798,5.9534,5.9279,5.9265,5.9265,5.9279,5.9279,5.9279,5.9279,5.9279,5.8441,5.7154,5.7094,5.7094,5.7094,5.7094,5.7094,5.7094,5.7094,5.7094,5.7094,5.7094,5.7094,5.7094,5.7094,5.7094,5.7137,5.7483,5.7649,5.7679,5.7979,5.8201,5.8201,5.853,5.886,5.9189,5.9534,5.9893,6.0133,5.8603,5.7746,5.7611,5.7746,5.7759,5.7611,5.7867,5.8001,5.7985,5.8105,5.8035,5.7649,5.762,5.7483,5.7124,5.7094,5.7094,5.7094,5.7094,5.7094,5.7094,5.7094,5.7274,5.759,5.7649,5.7812,5.8171,5.7513,5.7244,5.759,5.7649,5.7782,5.8141,5.8457,5.8637,5.8637,5.8936,5.9249,5.9578,5.9651,5.9787,6.0133,6.0446,6.0641,6.0625,6.091,6.109,6.115,6.1628,6.2271,6.263,6.2945,6.2795,6.1898,6.1942,6.2331,6.2586,6.2675,6.2825,6.3124,6.3214,6.3214,6.3199,6.3513,6.3603,6.3693,6.4201,6.447,6.453,6.4755,6.4964,6.4994,6.4994,6.4994,6.4994,6.4994,6.4665,6.109,6.109,6.109,6.109,6.109,6.109,6.109,6.109,6.109,5.9923,5.8141,5.7842,5.7693,5.7543,5.7556,5.7543,5.7543,5.7543,5.7543,5.7543,5.7693,5.7796,5.7796,5.7902,5.7992,5.8052,5.8547,5.8773,5.8846,5.9295,5.9548,5.9594,6.007,6.0326,6.0326,6.0864,6.109,6.103,6.0073,5.9455,5.9263,5.9439,5.9469,5.9277,5.9425,5.9548,5.9534,5.9534,5.9308,5.8803,5.8773,5.8487,5.7855,5.7766,5.7693,5.7586,5.7556,5.7603,5.7752,5.7752,5.8052,5.8726,5.8773,5.8996,5.9398,5.862,5.8052,5.8308,5.8487,5.8786,5.9205,5.9488,5.9548,5.9548,5.9548,5.9803,6.0236,6.0326,6.0505,6.1,6.121,6.1359,6.1523,6.1658,6.1898,6.2257,6.2899,6.3677,6.4186,6.471,6.4246,6.3408,6.3213,6.3617,6.4141,6.4171,6.4351,6.4934,6.4904,6.4755,6.4785,6.4904,6.4964,6.4874,6.5069,6.5218,6.5233,6.5428,6.5518,6.5607,6.5607,6.5547,6.5577,6.5577,6.5293,6.112,6.109,6.115,6.109,6.115,6.115,6.115,6.115,6.112,6.1,6.0581,6.0086,5.9458,5.8979,5.8919,5.8919,5.8919,5.8906,5.8906,5.8979,5.9561,5.9801,5.9801,6.0386,6.0731,6.0641,6.0701,6.0641,6.0641,6.0791,6.091,6.091,6.097,6.1,6.1,6.109,6.112,6.109,6.1,6.0896,6.0898,6.0896,6.0896,6.0869,6.0882,6.091,6.0851,6.091,6.088,6.0821,6.0747,6.0505,5.9891,5.9801,5.9518,5.8979,5.8919,5.9159,5.9741,5.9845,6.0057,6.0731,6.0731,6.0731,6.0851,6.0761,6.0192,5.9415,5.9578,5.9921,6.004,6.0505,6.0761,6.0731,6.0791,6.094,6.103,6.1,6.103,6.109,6.1838,6.2241,6.2839,6.3288,6.3857,6.4171,6.447,6.477,6.4889,6.5099,6.5174,6.48,6.4829,6.4829,6.4919,6.4904,6.4994,6.5084,6.5069,6.5159,6.5233,6.5218,6.5054,6.5637,6.5727,6.6086,6.6176,6.634,6.6835,6.6819,6.6819,6.6835,6.6835,6.6835,6.649,6.2285,6.2271,6.2285,6.2285,6.2285,6.2271,6.2285,6.2285,6.2271,6.2061,6.1702,6.1373,6.0894,6.0282,6.0282,6.0282,6.0282,6.0296,6.0296,6.0312,6.0581,6.0685,6.0731,6.094,6.109,6.109,6.109,6.109,6.109,6.109,6.109,6.115,6.1479,6.1702,6.1702,6.2091,6.2285,6.2271,6.2285,6.2285,6.2181,6.1523,6.109,6.109,6.109,6.109,6.109,6.109,6.109,6.109,6.109,6.097,6.0715,6.0685,6.0551,6.0282,6.0282,6.0402,6.0685,6.0685,6.0791,6.109,6.109,6.109,6.109,6.109,6.0821,6.0462,6.0535,6.0685,6.0745,6.094,6.109,6.109,6.109,6.1433,6.2211,6.2271,6.251,6.3244,6.3648,6.3872,6.4171,6.4441,6.471,6.5024,6.5293,6.5607,6.5607,6.5906,6.6161,6.6176,6.6191,6.5996,6.5697,6.5577,6.5757,6.6056,6.6176,6.6191,6.6206,6.655,6.6789,6.6729,6.7208,6.7597,6.7837,6.7926,6.8166,6.8106,6.8166,6.8166,6.8166,6.8166,6.7867,6.3632,6.3632,6.3632,6.3632,6.3617,6.3632,6.3632,6.3617,6.3617,6.3348,6.2915,6.2885,6.2646,6.2137,6.1449,6.109,6.109,6.109,6.109,6.112,6.1269,6.1389,6.1389,6.1569,6.1642,6.1642,6.1658,6.1672,6.1642,6.1642,6.1628,6.1762,6.2315,6.263,6.269,6.3288,6.3617,6.3632,6.3632,6.3617,6.3512,6.269,6.2017,6.1688,6.1642,6.1642,6.1642,6.1642,6.1642,6.1672,6.1642,6.1583,6.1389,6.1359,6.1299,6.112,6.109,6.118,6.1359,6.1553,6.1732,6.1882,6.2047,6.2167,6.2153,6.2167,6.2197,6.2227,6.2153,6.2137,6.1658,6.1957,6.2153,6.2153,6.2167,6.2616,6.3468,6.3617,6.3947,6.4845,6.4785,6.5084,6.5263,6.5413,6.5637,6.5682,6.5996,6.6281,6.6311,6.667,6.7014,6.7224,6.7254,6.6969,6.643,6.649,6.6759,6.7104,6.7343,6.7537,6.7537,6.8002,6.8241,6.7956,6.8675,6.8884,6.8615,6.8794,6.9004,6.9004,6.9004,6.9004,6.8824,6.8974,6.8974,6.4904,6.4889,6.4904,6.4815,6.4904,6.4845,6.4874,6.48,6.4845,6.4845,6.4725,6.4755,6.4815,6.4516,6.2332,6.118,6.118,6.1299,6.1359,6.1419,6.1868,6.2091,6.2091,6.2704,6.3003,6.3003,6.3003,6.3003,6.3003,6.3003,6.3018,6.3033,6.3588,6.3887,6.3947,6.447,6.4889,6.477,6.477,6.4845,6.4845,6.4755,6.4082,6.3123,6.3018,6.3003,6.3003,6.3018,6.3003,6.3018,6.3003,6.2734,6.2181,6.2135,6.1868,6.1329,6.121,6.1449,6.2121,6.2704,6.3213,6.3767,6.4201,6.4695,6.4456,6.4456,6.4456,6.4725,6.4516,6.4201,6.3348,6.3842,6.4456,6.4545,6.4665,6.4695,6.4845,6.4829,6.4919,6.5084,6.5174,6.5413,6.5906,6.6505,6.67,6.6759,6.6894,6.6954,6.6984,6.7044,6.7373,6.7792,6.7928,6.7732,6.7194,6.7403,6.7762,6.7972,6.8301,6.875,6.8884,6.8928,6.8944,6.9004,6.9183,6.9243,6.9064,6.9064,6.9183,6.9243,6.9303,6.9273,6.9482,6.9137,6.9197,6.4994,6.4994,6.4994,6.4994,6.4994,6.4994,6.4994,6.4994,6.4994,6.4994,6.4994,6.4994,6.4994,6.4934,6.4037,6.3588,6.3603,6.3588,6.3588,6.3633,6.3872,6.3962,6.3992,6.4246,6.4321,6.4321,6.4336,6.4321,6.4321,6.4336,6.4321,6.4321,6.453,6.465,6.471,6.4874,6.4994,6.4994,6.4994,6.4994,6.5024,6.4994,6.4755,6.4381,6.4291,6.4291,6.4321,6.4291,6.4291,6.4291,6.4321,6.4216,6.3992,6.3962,6.3872,6.3633,6.3588,6.3723,6.3932,6.4171,6.4381,6.462,6.4845,6.5054,6.4994,6.4994,6.4994,6.5084,6.5413,6.5338,6.5099,6.5039,6.4994,6.4994,6.5024,6.5203,6.5503,6.5637,6.5787,6.6161,6.6281,6.64,6.658,6.6849,6.6999,6.7029,6.7373,6.7583,6.7703,6.7972,6.8315,6.8525,6.8615,6.8555,6.8375,6.8435,6.866,6.8675,6.8854,6.8944,6.9064,6.9482,6.9602,6.9692,6.9782,6.9991,6.9961,6.9961,6.9961,7.0021,7.0051,6.9931,7.0231,6.9945,7.0005,6.5637,6.5637,6.5637,6.5637,6.5637,6.5637,6.5637,6.5637,6.5637,6.5667,6.5637,6.5637,6.5637,6.5667,6.5637,6.5637,6.5577,6.5218,6.4994,6.4994,6.4994,6.4994,6.4994,6.4994,6.4994,6.4994,6.4994,6.4994,6.4994,6.4994,6.4994,6.4994,6.5174,6.5338,6.5353,6.5503,6.5637,6.5637,6.5637,6.5667,6.5652,6.5667,6.5637,6.5637,6.5637,6.5428,6.5054,6.4994,6.4994,6.4994,6.4994,6.4994,6.4994,6.4994,6.4994,6.4994,6.4964,6.4994,6.5024,6.5174,6.5293,6.5353,6.5547,6.5637,6.5622,6.5622,6.5637,6.5757,6.5996,6.634,6.6251,6.5906,6.5667,6.5637,6.5637,6.5817,6.6251,6.6311,6.652,6.6849,6.7119,6.7284,6.7373,6.7553,6.7657,6.7643,6.8062,6.8301,6.8391,6.866,6.9093,6.9273,6.9303,6.9453,6.9512,6.9662,6.9453,6.9423,6.9602,6.9542,6.9542,6.9991,7.026,7.0366,7.056,7.0799,7.0903,7.0903,7.0932,7.0962,7.0723,7.0514,7.0693,7.0783,7.0783,6.6954,6.691,6.6984,6.6849,6.6819,6.6819,6.6909,6.6849,6.6879,6.6789,6.6729,6.6879,6.6759,6.6879,6.6759,6.6879,6.661,6.5697,6.5218,6.5218,6.5174,6.5174,6.5174,6.5233,6.5233,6.5218,6.5084,6.5084,6.5174,6.5233,6.5218,6.5233,6.5742,6.6011,6.5996,6.652,6.6879,6.6819,6.6789,6.6849,6.6969,6.6849,6.6789,6.6849,6.6849,6.6311,6.5174,6.5114,6.5188,6.5144,6.5159,6.5054,6.5174,6.5174,6.5084,6.5174,6.5114,6.5084,6.5174,6.5697,6.5996,6.6056,6.658,6.6789,6.6729,6.6789,6.6805,6.6759,6.6819,6.6939,6.6924,6.6909,6.6864,6.6939,6.6759,6.6789,6.6969,6.6999,6.7044,6.7208,6.7673,6.7972,6.8122,6.8391,6.8675,6.8734,6.8914,6.9004,6.9034,6.9199,6.9393,6.9798,7.0007,7.0081,7.05,7.0813,7.047,7.0231,7.044,7.053,7.041,7.0649,7.0769,7.0889,7.1248,7.1471,7.1531,7.1531,7.1411,7.1381,7.1172,7.1202,7.1351,7.1471,7.1291,6.7137,6.7304,6.7106,6.6999,6.6999,6.6999,6.6999,6.6999,6.6999,6.6999,6.6999,6.6999,6.6999,6.6999,6.6999,6.6999,6.6939,6.655,6.637,6.634,6.6355,6.634,6.634,6.637,6.637,6.637,6.637,6.637,6.634,6.634,6.637,6.643,6.655,6.667,6.667,6.6909,6.6999,6.6999,6.6999,6.6999,6.6999,6.6999,6.6999,6.6999,6.6999,6.6759,6.64,6.637,6.64,6.6325,6.637,6.637,6.637,6.637,6.637,6.637,6.637,6.637,6.64,6.652,6.667,6.6729,6.6879,6.6969,6.6999,6.6999,6.6999,6.6999,6.6999,6.6999,6.7059,6.7433,6.7493,6.7074,6.6999,6.7254,6.7643,6.8062,6.8345,6.8375,6.8555,6.8675,6.8704,6.8974,6.9093,6.9153,6.9423,6.9678,6.9738,7.0007,7.032,7.0606,7.0649,7.056,7.0769,7.1009,7.0919,7.0755,7.0949,7.1128,7.1068,7.1202,7.1321,7.1517,7.1906,7.2086,7.2129,7.2099,7.2009,7.2099,7.2189,7.2219,7.2249,7.2129,7.195,6.7243,6.7289,6.7091,6.6999,6.6999,6.6999,6.6999,6.6999,6.6999,6.6999,6.6999,6.6999,6.6999,6.6999,6.6999,6.6999,6.6999,6.6999,6.6999,6.6999,6.6999,6.6999,6.6999,6.6999,6.6999,6.6999,6.6999,6.6999,6.6999,6.6999,6.6999,6.6969,6.6999,6.6969,6.6999,6.6999,6.6999,6.6999,6.6999,6.6999,6.6999,6.6999,6.6999,6.6999,6.6999,6.6999,6.6999,6.6999,6.6999,6.6999,6.6999,6.6999,6.6999,6.6969,6.6999,6.6999,6.6969,6.6969,6.6999,6.6939,6.6999,6.6999,6.6999,6.6999,6.6999,6.6999,6.7074,6.7343,6.7403,6.7479,6.7762,6.8092,6.8151,6.7822,6.7777,6.7942,6.8361,6.8734,6.8944,6.8974,6.9183,6.9333,6.9363,6.9632,6.9692,6.9782,7.0051,7.0336,7.0426,7.0649,7.0829,7.0889,7.0829,7.0829,7.0889,7.1068,7.1278,7.1278,7.1354,7.1427,7.1427,7.18,7.2039,7.2189,7.2488,7.2535,7.2548,7.2638,7.2654,7.2894,7.3043,7.2787,7.2608,7.2668,7.2565,6.7365,6.7106,6.7075,6.7091,6.706,6.706,6.7045,6.6999,6.6999,6.6999,6.6999,6.7134,6.7119,6.7104,6.7268,6.7328,6.7164,6.7268,6.7298,6.7298,6.7268,6.7238,6.7029,6.6999,6.6999,6.6999,6.6999,6.6999,6.6999,6.6999,6.6999,6.6999,6.6999,6.6999,6.6999,6.6999,6.6999,6.6999,6.7029,6.706,6.7014,6.7045,6.7029,6.7014,6.6999,6.6999,6.6999,6.6999,6.6999,6.6999,6.6999,6.6999,6.6999,6.6999,6.6999,6.6999,6.6999,6.6999,6.6999,6.6999,6.6999,6.6999,6.7089,6.7074,6.7148,6.7343,6.7583,6.8017,6.8032,6.8271,6.875,6.9004,6.9034,6.9093,6.8974,6.9004,6.9034,6.9123,6.9317,6.9363,6.9678,7.0037,7.0067,7.047,7.0679,7.0739,7.0753,7.0769,7.0799,7.0859,7.0873,7.0932,7.0992,7.1188,7.1278,7.1727,7.1936,7.2026,7.2072,7.2146,7.2116,7.2475,7.2757,7.2907,7.3103,7.3073,7.3163,7.3373,7.3402,7.3492,7.3402,7.3057,7.3116,7.3343,7.3402,6.7909,6.8014,6.7804,6.7608,6.7396,6.7381,6.7228,6.7014,6.7044,6.7135,6.7149,6.7523,6.7763,6.7762,6.8241,6.8465,6.8375,6.8405,6.8481,6.8465,6.8465,6.7867,6.7148,6.6999,6.7029,6.7059,6.7119,6.6999,6.6999,6.7119,6.7074,6.6999,6.7135,6.7089,6.6999,6.7105,6.6999,6.7045,6.7274,6.7289,6.7151,6.7334,6.7243,6.7014,6.7044,6.7059,6.6999,6.6999,6.6999,6.6999,6.6999,6.6999,6.6999,6.6999,6.6999,6.6999,6.7029,6.6999,6.6999,6.7059,6.7029,6.7029,6.7493,6.7748,6.7748,6.8211,6.8495,6.875,6.8734,6.8794,6.9064,6.9453,6.9842,7.026,6.9961,6.9722,6.9782,7.0141,7.0394,7.044,7.053,7.059,7.0649,7.0739,7.0903,7.0903,7.0903,7.0932,7.0992,7.1022,7.1052,7.1158,7.1248,7.1517,7.1833,7.2325,7.2624,7.2744,7.2894,7.3133,7.3103,7.3223,7.3462,7.3642,7.3941,7.4001,7.4227,7.4467,7.4377,7.4091,7.4151,7.4031,7.424,7.4437,7.4377,6.8773,6.9062,6.8896,6.8713,6.8561,6.8546,6.8423,6.8285,6.8255,6.8255,6.8345,6.8646,6.8749,6.8685,6.9045,6.91,6.9019,6.9004,6.9068,6.9241,6.9337,6.8822,6.808,6.7837,6.7852,6.7852,6.7822,6.7882,6.7898,6.7992,6.8069,6.8145,6.8178,6.8285,6.8346,6.8255,6.8255,6.8331,6.8439,6.8377,6.8101,6.8377,6.8362,6.8177,6.8177,6.8255,6.8285,6.8255,6.7921,6.7241,6.6999,6.6999,6.6999,6.6999,6.6999,6.6999,6.7254,6.7433,6.7508,6.7673,6.7837,6.7897,6.8271,6.8391,6.8481,6.8824,6.9034,6.9363,6.9393,6.9542,6.9812,7.0171,7.05,7.0739,7.056,7.0396,7.035,7.0633,7.0843,7.0903,7.0903,7.0903,7.0903,7.0903,7.0903,7.0903,7.0903,7.1098,7.1278,7.1278,7.1427,7.1637,7.1876,7.2176,7.2475,7.2954,7.3283,7.3402,7.3642,7.3911,7.3941,7.3941,7.4091,7.433,7.4676,7.4886,7.4886,7.4886,7.4766,7.4646,7.4856,7.4886,7.4886,7.4886,7.4886,6.9778,7.0082,7.0082,7.0097,6.999,7.0036,6.9868,6.9943,6.9821,6.9836,6.9867,7.0019,6.9847,6.9629,6.9855,6.9622,6.9289,6.9581,6.9603,6.9838,6.9995,6.978,6.9261,6.8934,6.8937,6.8937,6.9023,6.8978,6.8984,6.9279,6.9433,6.939,6.9668,6.9913,6.9653,6.9791,6.9974,6.976,6.9761,6.9623,6.9422,6.9608,6.9608,6.9376,6.95,6.9653,6.9745,6.9745,6.912,6.7422,6.73,6.742,6.7375,6.7284,6.7314,6.7449,6.7869,6.8107,6.8167,6.8571,6.8884,6.8854,6.8944,6.9093,6.9153,6.9303,6.9602,7.0021,7.0097,7.029,7.062,7.0859,7.0859,7.0873,7.0859,7.0873,7.0903,7.0903,7.0903,7.0903,7.0903,7.0903,7.0919,7.0949,7.1038,7.1308,7.1368,7.171,7.1906,7.1996,7.2206,7.2505,7.2727,7.2937,7.3253,7.3582,7.3821,7.4031,7.4347,7.4557,7.4557,7.4587,7.4736,7.4886,7.4886,7.4886,7.4886,7.4886,7.4886,7.4886,7.4886,7.4886,7.4886,7.4886,7.4886,7.0616,7.0678,7.0724,7.0587,7.0419,7.0389,7.0251,7.0065,7.0065,7.0188,7.0157,7.0582,7.0607,7.0353,7.0997,7.1123,7.0603,7.0923,7.1251,7.0997,7.1031,7.0871,7.0391,6.986,6.9599,6.966,6.9254,6.9333,6.9677,6.9783,6.9663,6.9972,7.0202,7.005,7.0142,7.0295,7.002,7.0066,7.0296,7.0327,7.0157,7.0342,7.0373,7.008,7.0111,7.0065,7.002,7.002,6.9791,6.9409,6.9117,6.8977,6.8795,6.8623,6.8623,6.8716,6.8726,6.878,6.8824,6.8974,6.9034,6.9153,6.9542,6.9798,6.9828,7.0201,7.047,7.0709,7.0726,7.0739,7.0843,7.0903,7.0903,7.0903,7.0903,7.0903,7.0903,7.0903,7.0903,7.0903,7.0932,7.0903,7.0932,7.1457,7.1607,7.1743,7.2026,7.2428,7.2578,7.2684,7.2954,7.3283,7.3492,7.3672,7.3821,7.4078,7.4287,7.4437,7.4706,7.4886,7.4886,7.4886,7.4886,7.4886,7.4886,7.4886,7.4886,7.4886,7.4886,7.4886,7.4886,7.4886,7.4886,7.4886,7.4886,7.1613,7.189,7.189,7.1829,7.1691,7.166,7.1583,7.1444,7.1413,7.1413,7.1474,7.181,7.1745,7.1477,7.1953,7.1899,7.1658,7.1961,7.1899,7.1629,7.1805,7.1883,7.1487,7.1102,7.0884,7.068,7.0347,7.0444,7.0773,7.0885,7.11,7.1195,7.1289,7.1536,7.1413,7.1367,7.1474,7.152,7.1567,7.1521,7.1274,7.1506,7.1629,7.1459,7.1413,7.1428,7.1459,7.1459,7.1335,7.1149,7.0947,7.0472,6.9847,6.957,6.9523,6.9475,6.9682,6.9565,6.9546,6.9722,6.9931,6.9871,7.0231,7.032,7.0456,7.0739,7.0843,7.0903,7.0873,7.0873,7.0903,7.0903,7.0903,7.0903,7.0903,7.0903,7.0903,7.0903,7.0903,7.0962,7.1218,7.1338,7.1564,7.1996,7.2265,7.2415,7.2475,7.2847,7.3313,7.3402,7.3672,7.3958,7.4197,7.4377,7.4437,7.4557,7.4676,7.4766,7.4796,7.4886,7.4886,7.4886,7.4886,7.4886,7.4886,7.4886,7.4886,7.4886,7.4886,7.4886,7.4886,7.4886,7.4886,7.4886,7.4886,7.2475,7.2999,7.2999,7.2999,7.2999,7.2952,7.2875,7.2906,7.2999,7.2736,7.2983,7.2999,7.2595,7.2531,7.2531,7.2388,7.2262,7.2167,7.2025,7.1851,7.2358,7.2325,7.2042,7.2015,7.2002,7.1597,7.1381,7.1618,7.1999,7.2326,7.2176,7.2517,7.2766,7.2659,7.286,7.2952,7.2736,7.269,7.2706,7.2674,7.2472,7.2689,7.2736,7.2736,7.2721,7.2721,7.2675,7.2705,7.2751,7.2608,7.2562,7.181,7.0906,7.0323,7.0261,7.0042,7.0538,7.0591,7.0521,7.0677,7.0866,7.0984,7.0889,7.0889,7.0873,7.0843,7.0873,7.0903,7.0903,7.0903,7.0903,7.0903,7.0903,7.0932,7.0962,7.1038,7.1068,7.1098,7.1291,7.1188,7.1667,7.2026,7.2265,7.2595,7.2864,7.3057,7.3146,7.3296,7.3762,7.4061,7.4287,7.4377,7.4557,7.4646,7.4676,7.4706,7.4856,7.4886,7.4886,7.4886,7.5006,7.5452,7.5502,7.4971,7.4886,7.492,7.492,7.4886,7.4886,7.4886,7.4886,7.4886,7.4886,7.4886,7.4886,7.2906,7.2999,7.2999,7.2999,7.2999,7.2999,7.2999,7.2999,7.2999,7.2999,7.2999,7.2983,7.2827,7.2655,7.2812,7.2859,7.2671,7.2451,7.2231,7.22,7.2577,7.2404,7.2199,7.2374,7.2405,7.2279,7.2104,7.2231,7.2577,7.2655,7.2656,7.2874,7.2968,7.2999,7.2999,7.2999,7.2999,7.2999,7.2999,7.2936,7.2921,7.2936,7.2999,7.2999,7.2999,7.2999,7.2999,7.2999,7.2968,7.2921,7.2921,7.2736,7.2273,7.1822,7.168,7.1696,7.1645,7.1561,7.1478,7.1347,7.1355,7.1258,7.1097,7.0935,7.0919,7.0903,7.0903,7.0903,7.0903,7.0903,7.0903,7.0979,7.0949,7.1038,7.1427,7.1697,7.1816,7.2116,7.2249,7.1996,7.2385,7.2744,7.2954,7.3223,7.3582,7.3821,7.3971,7.4061,7.436,7.4557,7.4676,7.4766,7.4826,7.4856,7.4856,7.4856,7.4886,7.4886,7.4886,7.4886,7.5214,7.6097,7.618,7.5607,7.521,7.5108,7.5057,7.4937,7.4886,7.4886,7.4886,7.4903,7.4886,7.4886,7.4886,7.2999,7.2999,7.2999,7.2999,7.2999,7.2999,7.2999,7.2999,7.2999,7.2999,7.2999,7.2983,7.2921,7.2843,7.2905,7.2999,7.2874,7.2718,7.253,7.2577,7.2655,7.2577,7.2325,7.2578,7.2734,7.2718,7.2608,7.2624,7.2968,7.2859,7.2859,7.2936,7.2999,7.2999,7.2999,7.2999,7.2999,7.2999,7.2999,7.2999,7.2999,7.2999,7.2999,7.2999,7.2999,7.2999,7.2999,7.2999,7.2999,7.2983,7.2999,7.2999,7.2921,7.278,7.2529,7.2513,7.2357,7.2167,7.2055,7.1786,7.1658,7.1403,7.1212,7.1051,7.0938,7.0903,7.0919,7.0919,7.0903,7.0903,7.0903,7.1218,7.1414,7.1517,7.1996,7.2355,7.2565,7.3043,7.3073,7.2924,7.3193,7.3462,7.3522,7.3851,7.427,7.4557,7.4736,7.4826,7.4886,7.4886,7.4886,7.4971,7.5023,7.5163,7.5197,7.5244,7.5214,7.5193,7.5159,7.5142,7.5401,7.6246,7.6495,7.6227,7.5859,7.6044,7.5142,7.5006,7.4954,7.4971,7.504,7.5074,7.4954,7.4886,7.4886,7.2999,7.2999,7.2999,7.2999,7.2999,7.2999,7.2999,7.2999,7.2999,7.2999,7.2999,7.2999,7.2999,7.2999,7.2983,7.2999,7.2999,7.2968,7.2827,7.2734,7.2843,7.2827,7.2734,7.2827,7.2968,7.2936,7.2936,7.2999,7.2983,7.2968,7.2983,7.2999,7.2999,7.2999,7.2999,7.2999,7.2999,7.2999,7.2999,7.2999,7.2999,7.2999,7.2999,7.2999,7.2999,7.2999,7.2999,7.2999,7.3122,7.3214,7.3276,7.3307,7.3399,7.3399,7.3212,7.2886,7.267,7.2451,7.2294,7.2104,7.1993,7.1771,7.1596,7.1387,7.1226,7.1145,7.1092,7.1136,7.1145,7.1308,7.1501,7.1816,7.2056,7.2235,7.2654,7.3163,7.3283,7.3612,7.4018,7.4018,7.4108,7.4192,7.4324,7.424,7.4616,7.4676,7.4826,7.4826,7.4886,7.4886,7.492,7.504,7.518,7.5486,7.5621,7.5722,7.5772,7.5809,7.5792,7.5792,7.601,7.6379,7.6726,7.743,7.7929,7.7882,7.6528,7.5536,7.5943,7.603,7.5557,7.5435,7.5658,7.5248,7.4886,7.2999,7.2999,7.2999,7.2999,7.2999,7.2999,7.2999,7.2999,7.2999,7.2999,7.2999,7.2999,7.2999,7.2999,7.2999,7.2999,7.2999,7.2983,7.2952,7.2905,7.2968,7.2968,7.2936,7.2968,7.2999,7.2999,7.2999,7.2999,7.2999,7.2999,7.2999,7.2999,7.2999,7.2999,7.2999,7.2999,7.2999,7.2999,7.2999,7.2999,7.303,7.303,7.306,7.306,7.3122,7.3183,7.3245,7.3276,7.3399,7.3814,7.3876,7.4184,7.4645,7.4769,7.4399,7.3875,7.3336,7.2952,7.2873,7.2699,7.2572,7.2444,7.2255,7.199,7.1934,7.1723,7.1728,7.2182,7.1953,7.1983,7.2309,7.2668,7.2757,7.2997,7.3373,7.3702,7.3881,7.4095,7.4501,7.4998,7.5059,7.5113,7.5173,7.5005,7.4886,7.4886,7.4903,7.4954,7.5231,7.5489,7.5725,7.6013,7.6296,7.6564,7.6646,7.6677,7.6677,7.6677,7.6677,7.6663,7.6958,7.7462,7.8518,7.9191,7.9562,7.97,7.8848,7.8106,7.7673,7.7138,7.6693,7.6611,7.671,7.601,7.4954,7.2999,7.2999,7.2999,7.2999,7.2999,7.2999,7.2999,7.2999,7.2999,7.2999,7.2999,7.2999,7.2999,7.2999,7.2999,7.2999,7.2999,7.2999,7.2999,7.2999,7.2999,7.2999,7.2983,7.2999,7.2999,7.2999,7.2999,7.2999,7.2999,7.2999,7.2999,7.2999,7.2999,7.2999,7.2999,7.2999,7.2999,7.2999,7.2999,7.2999,7.3091,7.3337,7.3584,7.3614,7.3876,7.4046,7.4076,7.4122,7.4245,7.4553,7.4553,7.4676,7.4922,7.4984,7.4799,7.4615,7.4338,7.3968,7.3629,7.3458,7.3438,7.3555,7.3455,7.3403,7.3132,7.2813,7.2616,7.2896,7.2643,7.2704,7.302,7.3253,7.3402,7.3709,7.4426,7.4519,7.4729,7.4702,7.5014,7.5523,7.6077,7.6246,7.6213,7.5776,7.5557,7.5452,7.5523,7.5641,7.6313,7.7123,7.7318,7.7496,7.7754,7.801,7.8026,7.8026,7.8042,7.8042,7.8042,7.809,7.8201,7.8769,7.9792,7.9914,7.967,7.9945,8.046,7.9807,7.8581,7.8137,7.7817,7.7592,7.7235,7.5809,7.5108,7.2999,7.2999,7.2999,7.2999,7.2999,7.2999,7.2999,7.2999,7.2999,7.2999,7.2999,7.2999,7.2999,7.2999,7.2999,7.2999,7.2999,7.2999,7.2999,7.2999,7.2999,7.2999,7.2999,7.2999,7.2999,7.2999,7.2999,7.2999,7.2999,7.2999,7.2999,7.2999,7.2999,7.2999,7.2999,7.303,7.306,7.3337,7.3337,7.343,7.363,7.4015,7.4199,7.4399,7.4707,7.5015,7.5015,7.4953,7.4953,7.523,7.5245,7.5498,7.6113,7.6381,7.6479,7.6495,7.6508,7.6305,7.5605,7.5076,7.4569,7.4528,7.4696,7.4497,7.4767,7.4344,7.4204,7.443,7.4018,7.3878,7.3984,7.4503,7.5043,7.5471,7.5864,7.5858,7.5879,7.6113,7.6429,7.6991,7.7496,7.777,7.7528,7.6745,7.6346,7.608,7.613,7.6396,7.7253,7.8392,7.8486,7.8549,7.9113,7.9346,7.9408,7.9408,7.9408,7.9423,7.9423,7.9439,7.9516,8.0006,8.0866,8.0657,8.0188,8.0851,8.1752,8.0565,7.9499,7.9777,7.9716,7.8391,7.7415,7.606,7.5295,7.2999,7.2999,7.2999,7.2999,7.2999,7.2999,7.2999,7.2999,7.2999,7.2999,7.2999,7.2999,7.2999,7.2999,7.2999,7.2999,7.2999,7.2999,7.2999,7.2999,7.2999,7.2999,7.2999,7.2999,7.2999,7.2999,7.2999,7.2999,7.306,7.3183,7.3091,7.2999,7.3091,7.303,7.3122,7.3307,7.3553,7.383,7.3953,7.423,7.4522,7.483,7.4892,7.4953,7.4984,7.5015,7.5046,7.5329,7.5687,7.6198,7.6423,7.7008,7.803,7.8281,7.8446,7.8692,7.8837,7.8694,7.8309,7.6726,7.5334,7.5079,7.5394,7.6072,7.6727,7.6213,7.6135,7.6428,7.6026,7.5966,7.63,7.6735,7.6955,7.7246,7.7421,7.7516,7.7625,7.7882,7.817,7.8597,7.891,7.9175,7.9576,7.8973,7.7898,7.7577,7.8026,7.8296,7.8518,7.9345,7.9314,7.9547,8.0279,8.0642,8.0747,8.0762,8.0762,8.0762,8.0762,8.0762,8.0777,8.1401,8.1839,8.1988,8.1752,8.241,8.2685,8.1577,8.1089,8.1872,8.1489,7.9685,7.8249,7.7023,7.6213,7.2999,7.2999,7.2999,7.2999,7.2999,7.2999,7.2999,7.2999,7.2999,7.2999,7.2999,7.2999,7.2999,7.2999,7.2999,7.2999,7.2999,7.2999,7.303,7.2999,7.2999,7.2999,7.2999,7.3091,7.2999,7.306,7.306,7.3276,7.3599,7.3614,7.3937,7.3907,7.3445,7.3383,7.3522,7.3922,7.4323,7.4491,7.4615,7.4799,7.4953,7.543,7.5614,7.5614,7.6137,7.6199,7.639,7.7069,7.7463,7.7873,7.8406,7.9183,7.9832,8.0002,8.0266,8.0525,8.0625,8.0592,8.0425,7.8948,7.8197,7.8502,7.8627,7.8685,7.9058,7.8702,7.8538,7.8452,7.8125,7.7951,7.7997,7.8122,7.8297,7.8738,7.9004,7.9144,7.9252,7.9485,7.9716,8.0021,8.0294,8.0582,8.1029,8.1398,8.0188,7.9207,7.9716,8.0142,8.0279,8.049,8.0565,8.064,8.1372,8.1727,8.1829,8.1945,8.206,8.2003,8.1959,8.1887,8.18,8.2147,8.2552,8.2855,8.2883,8.2855,8.2713,8.2424,8.2381,8.2552,8.1752,8.0339,7.9066,7.7947,7.7496,7.3122,7.3307,7.3307,7.3183,7.2999,7.2999,7.2999,7.2999,7.2999,7.2999,7.2999,7.2999,7.2999,7.2999,7.2999,7.2999,7.3091,7.3214,7.3307,7.343,7.3553,7.3537,7.3584,7.3645,7.3783,7.3584,7.3614,7.3953,7.4276,7.4276,7.4491,7.4491,7.4153,7.4061,7.4276,7.4723,7.5092,7.5261,7.5292,7.546,7.5645,7.6014,7.6291,7.6468,7.7084,7.7531,7.7884,7.8549,7.9264,7.9603,8.0107,8.0826,8.1198,8.1403,8.1549,8.1785,8.1915,8.1867,8.1679,8.0814,8.0384,8.0227,8.0416,8.0716,8.1109,8.0905,8.052,8.0463,8.0061,7.9745,7.9636,7.9684,8.0019,8.0535,8.0702,8.0806,8.0762,8.0866,8.1103,8.1387,8.1592,8.177,8.1901,8.2233,8.1752,8.0881,8.1163,8.1489,8.1548,8.1843,8.2161,8.2233,8.2467,8.2699,8.2827,8.2609,8.2438,8.2481,8.2481,8.2581,8.2685,8.2883,8.2883,8.2883,8.2883,8.2883,8.2784,8.2628,8.2699,8.2841,8.1767,8.0657,8.0021,7.9035,7.8941,7.343,7.3953,7.3984,7.3614,7.3183,7.303,7.3091,7.3214,7.3183,7.3183,7.3214,7.3183,7.3183,7.3183,7.3322,7.3368,7.343,7.3783,7.3968,7.4091,7.4384,7.4738,7.4769,7.4707,7.4522,7.4892,7.4976,7.5025,7.516,7.5604,7.557,7.5662,7.5822,7.5288,7.508,7.5063,7.5385,7.5877,7.6001,7.6488,7.6861,7.7178,7.7435,7.7707,7.8344,7.8864,7.9129,8.0095,8.0712,8.0873,8.1183,8.1871,8.2562,8.2661,8.3082,8.3967,8.413,8.4238,8.4251,8.2079,8.137,8.1356,8.1712,8.1857,8.242,8.2392,8.2163,8.2044,8.1785,8.1509,8.1377,8.1289,8.1734,8.1955,8.2075,8.2032,8.193,8.1901,8.206,8.2118,8.2495,8.2813,8.2798,8.2827,8.2784,8.2581,8.277,8.2784,8.2628,8.2671,8.2855,8.2883,8.2883,8.2883,8.2883,8.2883,8.2827,8.2883,8.2883,8.2883,8.2883,8.2883,8.2883,8.2883,8.2883,8.2883,8.2883,8.2855,8.2883,8.2798,8.1974,8.1062,8.0552,8.0324,8.0339,7.4461,7.4645,7.4645,7.4538,7.4338,7.4307,7.4323,7.4338,7.4307,7.4307,7.4307,7.4338,7.4338,7.4307,7.4245,7.4245,7.4338,7.443,7.4676,7.4755,7.5175,7.4953,7.5141,7.5457,7.5268,7.5287,7.5682,7.6619,7.6995,7.7459,7.8357,7.8732,7.8255,7.7575,7.6678,7.6564,7.7508,7.6989,7.7391,7.8092,7.8344,7.8957,7.9376,7.9376,7.9882,8.0156,8.0262,8.1388,8.2001,8.2188,8.252,8.3296,8.377,8.3825,8.4089,8.4553,8.458,8.458,8.4526,8.3599,8.3407,8.3241,8.3157,8.3282,8.3865,8.3721,8.3598,8.3426,8.3163,8.2953,8.2967,8.2732,8.2878,8.2808,8.2808,8.268,8.2595,8.2623,8.2713,8.2685,8.2869,8.2911,8.2926,8.2897,8.2883,8.2883,8.2883,8.2883,8.277,8.277,8.2883,8.2883,8.2883,8.2883,8.2883,8.2883,8.2883,8.2883,8.2883,8.2883,8.2883,8.2883,8.2883,8.2883,8.2883,8.2883,8.2883,8.2883,8.2883,8.2595,8.2089,8.1916,8.1738,8.1796,8.2046,7.5138,7.5337,7.5353,7.5491,7.56,7.5183,7.5015,7.5015,7.5015,7.5015,7.4984,7.4984,7.4953,7.4984,7.5015,7.5015,7.5063,7.5788,7.6008,7.6118,7.687,7.726,7.726,7.6917,7.7526,7.7228,7.7675,7.8539,7.889,7.9718,8.0135,8.0485,8.1198,7.9908,7.8839,7.8844,7.9189,7.88,7.922,7.9514,7.976,8.0186,8.065,8.0784,8.1095,8.1479,8.1828,8.2472,8.3351,8.3619,8.4035,8.458,8.458,8.458,8.458,8.458,8.458,8.458,8.454,8.4526,8.4251,8.4352,8.458,8.458,8.4566,8.4312,8.4271,8.419,8.4143,8.4021,8.3884,8.3651,8.3513,8.3443,8.322,8.308,8.2954,8.2954,8.3066,8.3052,8.3108,8.3094,8.2996,8.2926,8.2883,8.2883,8.2883,8.2883,8.2883,8.2883,8.2883,8.2883,8.2883,8.2883,8.2883,8.2883,8.2883,8.2883,8.2883,8.2883,8.2883,8.2883,8.2883,8.2883,8.2883,8.2883,8.2883,8.2883,8.2883,8.2883,8.2742,8.2713,8.2883,8.2883,8.2883,7.5478,7.5984,7.6014,7.6384,7.6691,7.5692,7.5169,7.5138,7.5138,7.5169,7.5138,7.5261,7.5323,7.5199,7.5169,7.523,7.5595,7.7042,7.7543,7.8242,7.9048,7.9788,8.014,8.0125,7.9678,8.0214,8.0619,8.0451,8.0808,8.1327,8.1378,8.1461,8.2373,8.1759,8.125,8.1,8.0843,8.0442,8.0592,8.0816,8.0977,8.1198,8.1563,8.1857,8.2259,8.2675,8.3101,8.3701,8.4211,8.446,8.4553,8.458,8.458,8.458,8.458,8.458,8.458,8.458,8.458,8.458,8.458,8.458,8.458,8.458,8.458,8.454,8.45,8.45,8.4419,8.4359,8.4238,8.4061,8.3898,8.3692,8.3429,8.3262,8.3108,8.315,8.329,8.3388,8.3499,8.3457,8.3206,8.308,8.2883,8.2883,8.2883,8.2883,8.2883,8.2883,8.2883,8.2883,8.2883,8.2883,8.2883,8.2883,8.2883,8.2883,8.2883,8.2883,8.2883,8.2883,8.2883,8.2883,8.2883,8.2883,8.2883,8.2883,8.2883,8.2883,8.2883,8.2883,8.2883,8.2883,8.2883,7.7364,7.6724,7.6722,7.6845,7.6938,7.6568,7.6414,7.6414,7.6414,7.6414,7.6431,7.6414,7.6407,7.6414,7.6414,7.6481,7.7013,7.7746,7.836,7.9309,8.0476,8.0722,8.0902,8.1036,8.0888,8.1212,8.1621,8.2173,8.2373,8.2816,8.3338,8.3701,8.366,8.3537,8.3434,8.3434,8.2316,8.1654,8.1857,8.2073,8.2434,8.2802,8.3012,8.3393,8.3517,8.3852,8.4103,8.4298,8.458,8.458,8.458,8.458,8.458,8.458,8.458,8.458,8.458,8.458,8.458,8.458,8.458,8.458,8.458,8.458,8.458,8.458,8.458,8.458,8.458,8.4507,8.4413,8.4292,8.4143,8.3905,8.3686,8.3568,8.3443,8.3499,8.3637,8.372,8.3816,8.3582,8.3346,8.3066,8.2883,8.2883,8.2883,8.2883,8.2883,8.2883,8.2883,8.2883,8.2883,8.2883,8.2883,8.2883,8.2883,8.2883,8.2883,8.2883,8.2883,8.2883,8.2883,8.2883,8.2883,8.2883,8.2883,8.2883,8.2883,8.2883,8.2883,8.2883,8.2883,8.2883,8.2883,7.9222,7.847,7.796,7.7491,7.713,7.7539,7.7751,7.767,7.7214,7.6983,7.7065,7.7526,7.7751,7.7865,7.8281,7.8597,7.8707,7.9891,8.0555,8.0882,8.1549,8.2273,8.2345,8.2216,8.2458,8.2647,8.2886,8.3448,8.3633,8.4021,8.4513,8.4446,8.458,8.458,8.4473,8.4224,8.3729,8.3157,8.3046,8.3351,8.3756,8.4157,8.4446,8.458,8.458,8.458,8.458,8.458,8.458,8.458,8.458,8.458,8.458,8.458,8.458,8.458,8.458,8.458,8.458,8.458,8.458,8.458,8.458,8.458,8.458,8.458,8.458,8.458,8.458,8.4566,8.4513,8.4433,8.4312,8.4177,8.4061,8.3911,8.3898,8.3898,8.3966,8.4034,8.3911,8.3651,8.3388,8.308,8.2883,8.2883,8.2883,8.2883,8.2883,8.2883,8.2883,8.2883,8.2883,8.2883,8.2883,8.2883,8.2883,8.2883,8.2883,8.2883,8.2883,8.2883,8.2883,8.2883,8.2883,8.2883,8.2883,8.2883,8.2883,8.2883,8.2883,8.2883,8.2883,8.2883,8.2883,8.0858,8.062,7.9515,7.8439,7.7588,7.8597,7.9035,7.8942,7.7976,7.7377,7.7686,7.8549,7.9035,7.9207,7.9837,8.0292,8.0545,8.1432,8.2015,8.2704,8.3462,8.3994,8.4076,8.4486,8.3879,8.4278,8.4486,8.4197,8.446,8.458,8.458,8.458,8.458,8.458,8.458,8.458,8.4265,8.4143,8.4076,8.4265,8.4392,8.4553,8.458,8.458,8.458,8.458,8.458,8.458,8.458,8.458,8.458,8.458,8.458,8.458,8.458,8.458,8.458,8.458,8.458,8.458,8.458,8.458,8.458,8.458,8.458,8.458,8.458,8.458,8.458,8.458,8.454,8.456,8.4466,8.4352,8.4278,8.4184,8.4156,8.4184,8.4265,8.4238,8.398,8.3747,8.3568,8.3276,8.2897,8.2883,8.2883,8.2883,8.2883,8.2883,8.2883,8.2883,8.2883,8.2883,8.2883,8.2883,8.2883,8.2883,8.2883,8.2883,8.2883,8.2883,8.2883,8.2883,8.2883,8.2883,8.2883,8.2883,8.2883,8.2883,8.2883,8.2883,8.2883,8.2883,8.2883,8.1665,8.0784,8.0455,8.0124,7.9943,8.0231,8.0367,8.0337,8.0048,7.9898,7.9959,8.0184,8.0335,8.047,8.0858,8.1139,8.1344,8.2373,8.2647,8.3143,8.4089,8.4566,8.458,8.458,8.458,8.458,8.458,8.458,8.458,8.458,8.458,8.458,8.458,8.458,8.458,8.458,8.458,8.458,8.458,8.458,8.458,8.458,8.458,8.458,8.458,8.458,8.458,8.458,8.458,8.458,8.458,8.458,8.458,8.458,8.458,8.458,8.458,8.458,8.458,8.458,8.458,8.458,8.458,8.458,8.458,8.458,8.458,8.458,8.458,8.458,8.458,8.4614,8.46,8.4547,8.4493,8.444,8.4352,8.4419,8.45,8.4332,8.4075,8.3857,8.3692,8.3402,8.3038,8.2883,8.2883,8.2883,8.2883,8.2883,8.2883,8.2883,8.2883,8.2883,8.2883,8.2883,8.2883,8.2883,8.2883,8.2883,8.2883,8.2883,8.2883,8.2883,8.2883,8.2883,8.2883,8.2883,8.2883,8.2883,8.2883,8.2883,8.2883,8.2883,8.2883,8.311,8.243,8.1886,8.13,8.0962,8.1388,8.1654,8.1756,8.223,8.2458,8.2345,8.1958,8.1636,8.1824,8.2202,8.2345,8.2472,8.3199,8.3605,8.3906,8.4062,8.446,8.458,8.458,8.458,8.458,8.458,8.458,8.4715,8.458,8.458,8.4647,8.4647,8.4695,8.4647,8.4614,8.4647,8.458,8.4681,8.4681,8.4681,8.4614,8.4614,8.458,8.458,8.458,8.458,8.458,8.458,8.458,8.458,8.458,8.458,8.458,8.458,8.458,8.458,8.458,8.4647,8.4681,8.4715,8.4749,8.4647,8.4647,8.458,8.458,8.458,8.458,8.458,8.458,8.458,8.458,8.458,8.4574,8.456,8.45,8.4486,8.4513,8.4553,8.4507,8.4197,8.3857,8.3623,8.3276,8.2968,8.2883,8.2883,8.2883,8.2883,8.2883,8.2883,8.2883,8.2883,8.2883,8.2883,8.2883,8.2883,8.2883,8.2883,8.2883,8.2883,8.2883,8.2883,8.2883,8.2883,8.2883,8.2883,8.2883,8.2883,8.2883,8.2883,8.2883,8.2883,8.2883,8.2883,8.4526,8.4419,8.3393,8.233,8.152,8.2463,8.2928,8.3115,8.4062,8.45,8.4285,8.331,8.2984,8.3365,8.3994,8.4379,8.4486,8.4197,8.4406,8.4446,8.4513,8.458,8.458,8.458,8.4728,8.483,8.4898,8.5019,8.5189,8.5189,8.5202,8.4918,8.4898,8.4931,8.4884,8.4918,8.5134,8.5189,8.5222,8.5067,8.4884,8.4681,8.4614,8.458,8.458,8.458,8.458,8.458,8.458,8.458,8.458,8.458,8.4728,8.4796,8.4898,8.4931,8.5202,8.5168,8.5134,8.5202,8.5134,8.5019,8.4884,8.485,8.4918,8.4918,8.4918,8.4898,8.4898,8.4647,8.4647,8.458,8.458,8.458,8.458,8.458,8.458,8.458,8.458,8.46,8.4292,8.3911,8.3637,8.3276,8.3052,8.2968,8.2911,8.2883,8.2883,8.2883,8.2883,8.2883,8.2883,8.2883,8.2883,8.2883,8.2883,8.2883,8.2883,8.2883,8.2883,8.2883,8.2883,8.2883,8.2883,8.2883,8.2883,8.2883,8.2883,8.2883,8.2883,8.2883,8.2883,8.2883,8.2883,8.458,8.4587,8.4325,8.4062,8.3899,8.4116,8.4224,8.4251,8.4433,8.458,8.4513,8.446,8.4238,8.4211,8.4406,8.458,8.458,8.458,8.458,8.4566,8.458,8.458,8.4749,8.5033,8.51,8.5303,8.5621,8.5892,8.5899,8.6183,8.642,8.6284,8.6352,8.6352,8.6386,8.6318,8.6217,8.6169,8.6169,8.6183,8.5912,8.5506,8.4681,8.458,8.458,8.458,8.458,8.458,8.458,8.458,8.4715,8.4783,8.4965,8.5303,8.5486,8.5642,8.5878,8.6081,8.6081,8.6081,8.6048,8.6115,8.6068,8.6135,8.6183,8.6183,8.6149,8.598,8.5743,8.4952,8.4783,8.4647,8.458,8.458,8.458,8.458,8.458,8.458,8.458,8.4533,8.4346,8.4143,8.4034,8.3665,8.329,8.3192,8.3066,8.3052,8.3052,8.2982,8.2926,8.2911,8.2926,8.2883,8.2883,8.2883,8.2883,8.2883,8.2883,8.2883,8.2883,8.2883,8.2883,8.2883,8.2883,8.2883,8.2883,8.2883,8.2883,8.2883,8.2883,8.2883,8.2883,8.2883,8.2883]}]]